[[{"header":{"parameterUnit":"m.s-1","parameterCategory":1,"la1":30.6,"la2":29.2853,"lo1":-89.7004,"lo2":-87.6739,"dy":0.0162,"dx":0.0183,"nx":112,"ny":82,"refTime":"2024-04-05T12:00:00:Z","depth":0,"parameterNumber":2,"parameterNumberName":"U-component_of_WINDS"},"data":[0.0,0.0,0.0,0.0,0.0,0.0,0.0,0.0,0.0,0.0,0.0,0.0,0.0,0.0,0.0,0.0,0.0,0.0,0.0,0.0,0.0,0.0,0.0,0.0,0.0,0.0,0.0,0.0,0.0,0.0,0.0,0.0,0.0,0.0,0.0,0.0,0.0,0.0,0.0,0.0,0.0,0.0,0.0,0.0,0.0,0.0,0.0,0.0,0.0,0.0,0.0,0.0,0.0,0.0,0.0,0.0,0.0,0.0,0.0,0.0,0.0,0.0,0.0,0.0,0.0,0.0,0.0,0.0,0.0,0.0,0.0,0.0,0.0,0.0,0.0,0.0,0.0,0.0,0.0,0.0,0.0,0.0,0.0,0.0,0.0,0.0,0.0,0.0,0.0,0.0,2.7004,2.9283,3.2606,3.3715,3.1403,3.0672,2.8639,2.4637,0.0,0.0,0.0,0.0,0.0,0.0,0.0,0.0,0.0,0.0,0.0,0.0,0.0,0.0,0.0,0.0,0.0,0.0,0.0,0.0,0.0,0.0,0.0,0.0,0.0,0.0,0.0,0.0,0.0,0.0,0.0,0.0,0.0,0.0,0.0,0.0,0.0,0.0,0.0,0.0,0.0,0.0,0.0,0.0,0.0,0.0,0.0,0.0,0.0,0.0,0.0,0.0,0.0,0.0,0.0,0.0,0.0,0.0,0.0,0.0,0.0,0.0,0.0,0.0,0.0,0.0,0.0,0.0,0.0,0.0,0.0,0.0,0.0,0.0,0.0,0.0,0.0,0.0,0.0,0.0,0.0,0.0,0.0,0.0,0.0,0.0,0.0,0.0,0.0,0.0,0.0,0.0,0.0,0.0,0.0,0.0,0.0,0.0,0.0,0.0,0.0,0.0,0.0,0.0,2.7881,3.0759,3.2217,3.2265,3.054,2.8816,2.6849,2.4548,0.0,0.0,0.0,0.0,0.0,0.0,0.0,0.0,0.0,0.0,0.0,0.0,0.0,0.0,0.0,0.0,0.0,0.0,0.0,0.0,0.0,0.0,0.0,0.0,0.0,0.0,0.0,0.0,0.0,0.0,0.0,0.0,0.0,0.0,0.0,0.0,0.0,0.0,0.0,0.0,0.0,0.0,0.0,0.0,0.0,0.0,0.0,0.0,0.0,0.0,0.0,0.0,0.0,0.0,0.0,0.0,0.0,0.0,0.0,0.0,0.0,0.0,0.0,0.0,0.0,0.0,0.0,0.0,0.0,0.0,0.0,0.0,0.0,0.0,0.0,0.0,0.0,0.0,0.0,0.0,0.0,0.0,0.0,0.0,0.0,0.0,0.0,0.0,0.0,0.0,0.0,0.0,0.0,0.0,0.0,0.0,0.0,0.0,0.0,0.0,0.0,0.0,0.0,2.7531,2.8913,3.117,3.2118,3.1788,2.9732,2.7997,2.6279,2.4513,2.4329,0.0,0.0,0.0,0.0,0.0,0.0,0.0,0.0,0.0,0.0,0.0,0.0,0.0,0.0,0.0,0.0,0.0,0.0,0.0,0.0,0.0,0.0,0.0,0.0,0.0,0.0,0.0,0.0,0.0,0.0,0.0,0.0,0.0,0.0,0.0,0.0,0.0,0.0,0.0,0.0,0.0,0.0,0.0,0.0,0.0,0.0,0.0,0.0,0.0,0.0,0.0,0.0,0.0,0.0,0.0,0.0,0.0,0.0,0.0,0.0,0.0,0.0,0.0,0.0,0.0,0.0,0.0,0.0,0.0,0.0,0.0,0.0,0.0,0.0,0.0,0.0,0.0,0.0,0.0,0.0,0.0,0.0,0.0,0.0,0.0,0.0,0.0,0.0,0.0,0.0,0.0,0.0,0.0,0.0,0.0,0.0,0.0,0.0,0.0,0.0,0.0,0.0,2.8955,2.9398,3.0944,3.1513,3.0846,2.8608,2.6916,2.5433,2.4204,2.3055,0.0,0.0,0.0,0.0,0.0,0.0,0.0,0.0,0.0,0.0,0.0,0.0,0.0,0.0,0.0,0.0,0.0,0.0,0.0,0.0,0.0,0.0,0.0,0.0,0.0,0.0,0.0,0.0,0.0,0.0,0.0,0.0,0.0,0.0,0.0,0.0,0.0,0.0,0.0,0.0,0.0,0.0,0.0,0.0,0.0,0.0,0.0,0.0,0.0,0.0,0.0,0.0,0.0,0.0,0.0,0.0,0.0,0.0,0.0,0.0,0.0,0.0,0.0,0.0,0.0,0.0,0.0,0.0,0.0,0.0,0.0,0.0,0.0,0.0,0.0,0.0,0.0,0.0,0.0,0.0,0.0,0.0,0.0,0.0,0.0,0.0,0.0,0.0,0.0,0.0,0.0,0.0,0.0,0.0,0.0,0.0,0.0,0.0,0.0,0.0,0.0,0.0,2.8077,2.8709,3.0123,2.9677,2.8572,2.6924,2.4789,2.3472,2.3319,2.2268,0.0,0.0,0.0,0.0,0.0,0.0,0.0,0.0,0.0,0.0,0.0,0.0,0.0,0.0,0.0,0.0,0.0,0.0,0.0,0.0,0.0,0.0,0.0,0.0,0.0,0.0,0.0,0.0,0.0,0.0,0.0,0.0,0.0,0.0,0.0,0.0,0.0,0.0,0.0,0.0,0.0,0.0,0.0,0.0,0.0,0.0,0.0,0.0,0.0,0.0,0.0,0.0,0.0,0.0,0.0,0.0,0.0,0.0,0.0,0.0,0.0,0.0,0.0,0.0,0.0,0.0,0.0,0.0,0.0,0.0,0.0,0.0,0.0,0.0,0.0,0.0,0.0,0.0,0.0,0.0,0.0,0.0,0.0,0.0,0.0,0.0,0.0,0.0,0.0,0.0,0.0,0.0,0.0,0.0,0.0,0.0,0.0,0.0,0.0,0.0,0.0,0.0,2.8126,2.8452,0.0,2.9177,2.8154,2.6025,2.4451,2.3437,2.3212,0.0,0.0,0.0,0.0,0.0,0.0,0.0,0.0,0.0,0.0,0.0,0.0,0.0,0.0,0.0,0.0,0.0,0.0,0.0,0.0,0.0,0.0,0.0,0.0,0.0,0.0,0.0,0.0,0.0,0.0,0.0,0.0,0.0,0.0,0.0,0.0,0.0,0.0,0.0,0.0,0.0,0.0,0.0,0.0,0.0,0.0,0.0,0.0,0.0,0.0,0.0,0.0,0.0,0.0,0.0,0.0,0.0,0.0,0.0,0.0,0.0,0.0,0.0,0.0,0.0,0.0,0.0,0.0,0.0,0.0,0.0,0.0,0.0,0.0,0.0,0.0,0.0,0.0,0.0,0.0,0.0,0.0,0.0,0.0,0.0,0.0,0.0,0.0,0.0,0.0,0.0,0.0,0.0,0.0,0.0,0.0,0.0,0.0,0.0,0.0,0.0,0.0,2.7317,2.7474,2.7641,0.0,2.8026,2.709,2.5162,2.3753,2.2937,2.2817,0.0,0.0,0.0,0.0,0.0,0.0,0.0,0.0,0.0,0.0,0.0,0.0,0.0,0.0,0.0,0.0,0.0,0.0,0.0,0.0,0.0,0.0,0.0,0.0,0.0,0.0,0.0,0.0,0.0,0.0,0.0,0.0,0.0,0.0,0.0,0.0,0.0,0.0,0.0,0.0,0.0,0.0,0.0,0.0,0.0,0.0,0.0,0.0,0.0,0.0,0.0,0.0,0.0,0.0,0.0,0.0,0.0,0.0,0.0,0.0,0.0,0.0,0.0,0.0,0.0,0.0,0.0,0.0,0.0,0.0,0.0,0.0,0.0,0.0,0.0,0.0,0.0,0.0,0.0,0.0,0.0,0.0,0.0,0.0,0.0,0.0,0.0,0.0,0.0,0.0,0.0,0.0,0.0,0.0,0.0,0.0,0.0,0.0,0.0,0.0,0.0,0.0,2.5682,2.5876,2.6161,2.6526,2.586,2.5072,2.4263,2.2481,2.1592,0.0,0.0,0.0,0.0,0.0,0.0,0.0,0.0,0.0,0.0,0.0,0.0,0.0,0.0,0.0,0.0,0.0,0.0,0.0,0.0,0.0,0.0,0.0,0.0,0.0,0.0,0.0,0.0,0.0,0.0,0.0,0.0,0.0,0.0,0.0,0.0,0.0,0.0,0.0,0.0,0.0,0.0,0.0,0.0,0.0,0.0,0.0,0.0,0.0,0.0,0.0,0.0,0.0,0.0,0.0,0.0,0.0,0.0,0.0,0.0,0.0,0.0,0.0,0.0,0.0,0.0,0.0,0.0,0.0,0.0,0.0,0.0,0.0,0.0,0.0,0.0,0.0,0.0,0.0,0.0,0.0,0.0,0.0,0.0,0.0,0.0,0.0,0.0,0.0,0.0,0.0,0.0,0.0,0.0,0.0,0.0,0.0,0.0,0.0,0.0,0.0,0.0,0.0,2.586,2.5957,2.5937,2.5774,2.555,2.4832,2.3474,2.2319,2.188,2.2321,0.0,0.0,0.0,0.0,0.0,0.0,0.0,0.0,0.0,0.0,0.0,0.0,0.0,0.0,0.0,0.0,0.0,0.0,0.0,0.0,0.0,0.0,0.0,0.0,0.0,0.0,0.0,0.0,0.0,0.0,0.0,0.0,0.0,0.0,0.0,0.0,0.0,0.0,0.0,0.0,0.0,0.0,0.0,0.0,0.0,0.0,0.0,0.0,0.0,0.0,0.0,0.0,0.0,0.0,0.0,0.0,0.0,0.0,0.0,0.0,0.0,0.0,0.0,0.0,0.0,0.0,0.0,0.0,0.0,0.0,0.0,0.0,0.0,0.0,0.0,0.0,0.0,0.0,0.0,0.0,0.0,0.0,0.0,0.0,0.0,0.0,0.0,0.0,0.0,0.0,0.0,0.0,0.0,0.0,0.0,0.0,0.0,0.0,0.0,0.0,0.0,0.0,2.546,2.5213,2.4982,2.4927,2.4905,2.4392,2.3125,2.2263,2.1862,2.1994,0.0,0.0,0.0,0.0,0.0,0.0,0.0,0.0,0.0,0.0,0.0,0.0,0.0,0.0,0.0,0.0,0.0,0.0,0.0,0.0,0.0,0.0,0.0,0.0,0.0,0.0,0.0,0.0,0.0,0.0,0.0,0.0,0.0,0.0,0.0,0.0,0.0,0.0,0.0,0.0,0.0,0.0,0.0,0.0,0.0,0.0,0.0,0.0,0.0,0.0,0.0,0.0,0.0,0.0,0.0,0.0,0.0,0.0,0.0,0.0,0.0,0.0,0.0,0.0,0.0,0.0,0.0,0.0,0.0,0.0,0.0,0.0,0.0,0.0,0.0,0.0,0.0,0.0,0.0,0.0,0.0,0.0,0.0,0.0,0.0,0.0,0.0,0.0,0.0,0.0,0.0,0.0,0.0,0.0,0.0,0.0,0.0,0.0,0.0,0.0,0.0,0.0,2.4705,2.4025,2.3637,2.4063,2.408,2.3768,2.296,2.2208,2.1698,2.1456,0.0,0.0,0.0,0.0,0.0,0.0,0.0,0.0,0.0,0.0,0.0,0.0,0.0,0.0,0.0,0.0,0.0,0.0,0.0,0.0,0.0,0.0,0.0,0.0,0.0,0.0,0.0,0.0,0.0,0.0,0.0,0.0,0.0,0.0,0.0,0.0,0.0,0.0,0.0,0.0,0.0,0.0,0.0,0.0,0.0,0.0,0.0,0.0,0.0,0.0,0.0,0.0,0.0,0.0,0.0,0.0,0.0,0.0,0.0,0.0,2.0617,0.0,0.0,0.0,0.0,0.0,0.0,0.0,0.0,0.0,0.0,0.0,0.0,0.0,0.0,0.0,0.0,0.0,0.0,0.0,0.0,0.0,0.0,0.0,0.0,0.0,0.0,0.0,0.0,0.0,0.0,0.0,0.0,0.0,0.0,0.0,0.0,0.0,0.0,0.0,0.0,0.0,2.4495,2.3849,2.3326,2.3254,2.3272,2.2942,2.2116,2.1913,2.2043,2.2593,2.263,0.0,0.0,0.0,0.0,0.0,0.0,0.0,0.0,0.0,0.0,0.0,0.0,0.0,0.0,0.0,0.0,0.0,0.0,0.0,0.0,0.0,0.0,0.0,0.0,0.0,0.0,0.0,0.0,0.0,0.0,0.0,0.0,0.0,0.0,0.0,0.0,0.0,0.0,0.0,0.0,0.0,0.0,0.0,0.0,0.0,0.0,0.0,0.0,0.0,0.0,0.0,0.0,0.0,0.0,0.0,0.0,0.0,0.0,0.0,0.0,2.1144,0.0,0.0,0.0,0.0,0.0,0.0,0.0,0.0,0.0,0.0,0.0,0.0,0.0,0.0,0.0,0.0,0.0,0.0,0.0,0.0,0.0,0.0,0.0,0.0,0.0,0.0,0.0,0.0,0.0,0.0,0.0,0.0,0.0,0.0,0.0,0.0,0.0,0.0,0.0,0.0,2.4377,2.3433,2.2759,2.2978,2.3364,2.3254,2.2446,2.2373,2.2556,2.296,2.2997,0.0,0.0,0.0,0.0,0.0,0.0,0.0,0.0,0.0,0.0,0.0,0.0,0.0,0.0,0.0,0.0,0.0,0.0,0.0,0.0,0.0,0.0,0.0,0.0,0.0,0.0,0.0,0.0,0.0,0.0,0.0,0.0,0.0,0.0,0.0,0.0,0.0,0.0,0.0,0.0,0.0,0.0,0.0,0.0,0.0,0.0,0.0,0.0,0.0,0.0,0.0,0.0,0.0,2.2521,2.275,2.2885,2.275,2.2412,2.1972,2.2479,2.2107,2.1201,2.1346,0.0,0.0,0.0,0.0,0.0,0.0,0.0,0.0,0.0,0.0,0.0,0.0,0.0,0.0,0.0,0.0,0.0,0.0,0.0,0.0,0.0,0.0,0.0,0.0,2.3988,2.3584,0.0,0.0,0.0,0.0,0.0,0.0,0.0,0.0,0.0,0.0,0.0,0.0,2.4275,2.311,2.2397,2.2923,2.3602,2.3731,2.307,2.2997,2.307,2.3199,2.3217,2.3217,0.0,0.0,0.0,0.0,0.0,0.0,0.0,0.0,0.0,0.0,0.0,0.0,0.0,0.0,0.0,0.0,0.0,0.0,0.0,0.0,0.0,0.0,0.0,0.0,0.0,0.0,0.0,0.0,0.0,0.0,0.0,0.0,1.7817,1.7817,0.0,0.0,0.0,0.0,0.0,0.0,0.0,0.0,0.0,0.0,0.0,0.0,0.0,2.2359,2.3325,2.3408,2.3652,2.411,2.4188,2.4543,2.5152,2.4492,2.4509,2.5,2.4441,0.0,2.1177,2.0799,0.0,0.0,0.0,0.0,0.0,0.0,0.0,0.0,0.0,0.0,0.0,0.0,0.0,0.0,0.0,0.0,0.0,0.0,0.0,0.0,0.0,0.0,2.4025,2.3327,2.3162,2.2905,0.0,2.2978,2.3841,2.3144,2.3107,0.0,0.0,0.0,0.0,0.0,0.0,0.0,2.4137,2.3437,2.2905,2.2997,2.3107,2.3125,2.3015,2.2997,2.3309,2.4006,2.4043,2.4043,2.4043,2.4135,0.0,0.0,0.0,0.0,0.0,0.0,0.0,0.0,0.0,0.0,0.0,0.0,0.0,0.0,0.0,0.0,0.0,0.0,0.0,0.0,0.0,0.0,0.0,0.0,0.0,0.0,0.0,0.0,0.0,1.8777,1.8687,1.8328,1.8852,1.9326,0.0,0.0,0.0,0.0,0.0,0.0,0.0,0.0,0.0,2.2707,2.3307,2.3861,2.4386,2.471,2.5007,2.5246,2.5563,2.5896,2.6201,2.5862,2.5676,2.5592,2.5253,2.4323,2.3004,2.2392,2.2202,2.2254,0.0,0.0,0.0,0.0,2.2106,2.231,2.231,2.204,0.0,2.2175,0.0,0.0,0.0,0.0,0.0,0.0,0.0,0.0,0.0,0.0,2.4116,2.3768,2.3676,2.3584,2.3217,2.3694,2.3951,0.0,2.3382,2.3676,2.3676,0.0,0.0,0.0,0.0,2.3399,2.4117,2.3511,2.2997,2.2997,2.34,2.3492,2.3052,2.3419,2.3823,2.4171,2.419,2.419,2.419,2.419,2.419,0.0,0.0,0.0,0.0,0.0,0.0,0.0,0.0,0.0,0.0,0.0,0.0,0.0,0.0,0.0,0.0,0.0,0.0,0.0,0.0,0.0,0.0,0.0,0.0,0.0,0.0,0.0,0.0,1.9121,1.9196,1.8523,1.9181,1.9687,0.0,0.0,0.0,0.0,0.0,0.0,2.2243,2.3512,2.4186,2.4066,2.4865,2.5415,2.5538,2.614,2.6444,2.6414,2.7006,2.7385,2.7554,2.7368,2.6979,2.6454,2.6268,2.5642,2.4712,2.3985,2.3359,2.2852,2.2665,2.2699,2.2835,2.2649,2.2581,2.2581,2.2581,2.2107,2.1566,2.2124,2.1976,2.1693,2.2337,0.0,0.0,0.0,0.0,2.4094,2.417,2.419,2.419,2.419,2.419,2.419,2.419,2.419,2.3951,0.0,2.3492,2.3896,2.3896,0.0,0.0,0.0,0.0,2.3529,2.4116,2.3676,2.3309,2.3309,2.3841,2.3951,2.3364,2.3859,2.419,2.419,2.419,2.419,2.419,2.419,2.419,2.419,0.0,0.0,0.0,0.0,0.0,0.0,0.0,0.0,0.0,0.0,0.0,0.0,0.0,0.0,0.0,0.0,0.0,0.0,0.0,0.0,0.0,0.0,0.0,0.0,0.0,0.0,0.0,0.0,0.0,1.7817,1.8897,0.0,0.0,0.0,0.0,2.2798,2.3465,2.4078,2.4705,2.503,2.5503,2.6149,2.6363,2.6758,2.7288,2.787,2.8107,2.7997,2.8619,2.9245,2.9922,2.9194,2.8876,2.8808,2.8027,2.6894,2.549,2.4729,2.4438,2.4337,2.3613,2.3765,2.432,2.3596,2.3342,2.3342,2.3342,2.2868,2.226,2.2293,2.2456,2.2694,2.3045,2.3183,0.0,0.0,2.3714,2.3795,2.4113,2.419,2.419,2.419,2.419,2.419,2.419,2.419,2.3951,0.0,2.3015,2.307,2.307,0.0,2.3327,2.408,2.4171,2.4153,2.419,2.4153,2.4135,2.4135,2.4171,2.4171,2.4135,2.4171,2.419,2.419,2.419,2.419,2.419,2.419,2.419,2.419,2.419,0.0,0.0,0.0,0.0,0.0,0.0,0.0,0.0,0.0,0.0,0.0,0.0,0.0,0.0,0.0,0.0,0.0,0.0,0.0,0.0,0.0,0.0,0.0,0.0,0.0,0.0,0.0,0.0,2.0303,2.1425,0.0,2.2112,2.2769,2.3456,2.3998,2.491,2.5589,2.5955,2.6894,2.7523,2.7765,2.8276,2.8606,2.8798,2.8974,2.9262,2.9592,2.9749,3.0202,3.0801,3.0531,3.0159,2.9668,2.889,2.7977,2.6979,2.6218,2.5338,2.4489,2.4218,2.4286,2.4472,2.4188,2.4103,2.4036,2.3562,2.3224,2.2936,2.2462,2.236,2.2463,2.2598,2.273,2.2898,2.3021,2.3212,2.3414,2.3522,2.3714,2.3876,2.3876,2.4036,2.419,2.419,2.419,2.4116,2.3823,2.3768,2.3768,2.3768,2.3768,2.3878,2.4153,2.419,2.419,2.419,2.419,2.419,2.419,2.419,2.419,2.419,2.419,2.419,2.419,2.419,2.419,2.419,2.419,2.419,2.419,2.419,2.419,0.0,0.0,0.0,0.0,0.0,0.0,0.0,0.0,0.0,0.0,0.0,0.0,0.0,0.0,0.0,0.0,0.0,0.0,0.0,0.0,0.0,0.0,0.0,0.0,0.0,0.0,2.2188,2.2637,2.3625,2.4268,2.4268,2.4773,2.5242,2.557,2.6514,2.7243,2.761,2.8652,2.9235,2.9235,2.9894,3.0133,2.9894,2.9873,2.9933,3.0069,3.0012,3.0293,3.0878,3.0878,3.0628,3.0074,2.9313,2.8535,2.7722,2.6996,2.6116,2.5203,2.4774,2.476,2.4993,2.4693,2.4609,2.4506,2.3671,2.3393,2.3274,2.2547,2.231,2.231,2.231,2.2426,2.2573,2.2669,2.2873,2.3069,2.3165,2.3437,2.3692,2.3692,2.3955,2.419,2.419,2.419,2.419,2.419,2.419,2.419,2.419,2.419,2.419,2.419,2.419,2.419,2.419,2.419,2.419,2.419,2.419,2.419,2.419,2.419,2.419,2.419,2.419,2.419,2.419,2.419,2.419,2.419,2.4284,2.4506,2.4857,0.0,0.0,0.0,0.0,0.0,0.0,0.0,0.0,0.0,0.0,0.0,0.0,0.0,0.0,0.0,0.0,0.0,0.0,0.0,0.0,0.0,0.0,0.0,2.1695,2.2338,2.3266,2.4537,2.53,2.5734,2.5734,2.6333,2.6991,2.7649,2.8308,2.8981,2.9639,3.0223,3.0537,3.0537,3.118,3.121,3.0537,3.0479,3.0165,2.9549,2.9437,2.9717,3.0293,3.0293,3.0218,3.0074,2.9313,2.8535,2.7722,2.6996,2.6691,2.659,2.5343,2.5318,2.5898,2.5137,2.4822,2.466,2.3748,2.3393,2.3241,2.2547,2.231,2.231,2.231,2.231,2.2332,2.2625,2.2695,2.2772,2.3093,2.3414,2.3692,2.3692,2.3937,2.419,2.419,2.419,2.419,2.419,2.419,2.419,2.419,2.419,2.419,2.419,2.419,0.0,2.419,2.419,2.419,2.419,2.419,2.419,2.419,2.419,2.419,2.419,2.419,2.419,2.419,2.419,2.419,2.419,2.4462,2.5099,2.6178,0.0,0.0,0.0,0.0,0.0,0.0,0.0,0.0,0.0,0.0,0.0,0.0,0.0,0.0,0.0,0.0,0.0,0.0,0.0,0.0,0.0,2.1721,2.1695,2.1695,2.3894,2.5644,2.6004,2.75,2.8487,2.8487,2.9056,2.9714,3.0387,3.0627,3.1016,3.1674,3.142,3.1255,3.1255,3.1377,3.1377,3.1255,3.0283,2.9962,3.0196,2.9214,2.9271,3.0293,3.0293,3.0218,3.0074,2.9313,2.8535,2.7722,2.6996,2.6691,2.6674,2.6303,2.5984,2.5732,2.6051,2.548,2.4555,2.4292,2.3494,2.2581,2.2378,2.231,2.231,2.231,2.231,2.231,2.2388,2.2398,2.2426,2.2535,2.2933,2.3346,2.3346,2.3774,2.419,2.419,2.419,2.419,2.419,2.419,2.419,2.419,2.419,2.419,2.419,2.419,0.0,2.419,2.419,2.419,2.419,2.419,2.419,2.419,2.419,2.419,2.419,2.419,2.419,2.419,2.419,2.419,2.419,2.4266,2.48,0.0,0.0,0.0,0.0,0.0,0.0,0.0,0.0,0.0,0.0,0.0,0.0,0.0,0.0,0.0,0.0,0.0,0.0,0.0,0.0,0.0,0.0,2.2531,2.3026,2.3295,2.5211,2.6901,2.7739,2.9101,3.0088,3.0372,3.0717,3.1106,3.1437,3.1482,3.1646,3.2078,3.1676,3.1482,3.1482,3.1482,3.1405,3.1106,3.0088,2.9644,2.9678,2.866,2.8561,2.9436,2.9436,2.9534,2.96,2.8822,2.8247,2.7722,2.6996,2.6691,0.0,0.0,0.0,0.0,0.0,2.5026,2.4472,2.4137,2.3477,2.2716,2.2412,2.231,2.231,2.231,2.231,2.231,2.231,2.231,2.231,2.231,2.2764,2.3189,2.3189,2.3714,2.419,2.419,2.419,2.419,2.419,2.419,0.0,2.419,2.419,2.419,2.419,2.419,2.419,2.419,2.419,2.419,2.419,2.419,2.419,2.419,2.419,0.0,0.0,0.0,2.419,2.419,2.4284,0.0,0.0,0.0,2.5506,2.6326,0.0,0.0,0.0,2.8869,2.9301,0.0,0.0,0.0,0.0,0.0,0.0,0.0,0.0,0.0,0.0,0.0,0.0,0.0,0.0,0.0,0.0,2.3445,2.4911,2.5719,2.6393,2.7515,2.937,3.0193,3.0866,3.1422,3.1541,3.1586,3.1586,3.1586,3.1586,3.1586,0.0,0.0,0.0,0.0,3.121,3.0507,2.9894,2.925,2.8592,2.7904,2.7852,2.8331,2.8295,2.851,2.8851,2.8127,2.7739,2.7638,2.6962,2.6691,2.6641,2.6127,2.5471,2.4693,2.4034,2.4029,2.4286,2.3613,0.0,0.0,2.2513,2.231,2.231,2.231,2.231,2.231,2.231,2.231,2.2327,2.2412,2.2886,2.3348,2.3436,2.3985,2.4465,2.4465,2.4465,2.4465,2.4465,2.4392,2.4337,2.4337,2.4263,2.419,2.419,2.419,2.419,2.419,2.419,2.419,2.419,0.0,0.0,2.419,2.419,2.4245,2.4318,2.441,2.4465,2.4465,2.4653,2.474,2.474,2.58,2.6645,2.7304,2.8268,2.908,2.9729,2.9193,2.9455,0.0,0.0,0.0,0.0,0.0,0.0,0.0,0.0,0.0,0.0,0.0,0.0,0.0,0.0,0.0,2.302,2.4014,2.5226,2.6946,2.7784,2.8547,2.9475,3.0612,3.139,3.1467,3.2018,3.2332,3.2332,3.2332,3.2332,3.2332,3.1765,3.1482,3.1482,3.1482,3.121,3.0507,2.9894,2.925,2.8592,0.0,0.0,2.8483,2.8342,2.8304,2.8274,2.795,2.7469,2.6894,2.6759,2.6691,2.664,2.5949,2.5209,2.4536,2.4385,2.4025,2.3579,2.3444,2.3004,2.2496,2.2361,2.231,2.231,2.231,2.231,0.0,2.231,2.231,2.2446,2.3038,2.3665,2.4329,2.4906,2.5605,2.6135,2.6135,2.6135,2.6135,2.6135,2.5603,2.5182,2.5182,2.463,2.419,2.419,2.419,2.419,2.419,2.419,2.419,2.419,2.419,2.419,2.419,2.419,2.4483,2.5146,2.5786,2.6135,2.6135,2.6176,2.6178,2.6178,2.6408,2.7008,2.7923,2.8128,2.8812,2.9954,2.9827,2.9875,0.0,0.0,0.0,0.0,0.0,0.0,0.0,0.0,0.0,0.0,0.0,2.1177,2.129,0.0,2.2819,2.3938,2.4956,2.6078,2.738,2.8173,2.8846,2.9505,3.0432,3.115,3.1437,3.1824,3.2018,3.2018,3.2018,3.2018,3.2018,3.1661,3.1482,3.1482,3.1482,3.121,3.0507,2.9894,2.925,2.8592,2.7904,2.7728,2.7922,2.781,2.7646,2.7504,2.7308,2.7046,2.6691,2.6691,2.6471,2.615,2.615,2.5456,2.4421,2.3663,2.3393,2.3393,2.3393,2.3156,2.2852,2.2852,2.2598,2.231,2.231,2.2564,2.2852,2.2852,2.3122,2.3477,2.3849,2.4445,2.503,2.5419,2.6056,2.6612,2.6612,2.6612,2.6612,2.6612,2.5952,2.5403,2.5403,2.4722,2.419,2.419,2.419,2.419,2.419,2.419,2.4355,2.4759,2.4795,2.4961,2.5364,2.5401,2.5566,2.597,2.6374,2.6612,2.6612,2.67,2.676,2.676,2.7231,2.7717,2.8089,2.8537,2.9083,2.9713,2.9796,2.9988,0.0,0.0,0.0,0.0,0.0,0.0,0.0,0.0,2.0682,2.1733,2.1662,2.1572,2.224,2.305,2.3864,2.4642,2.5809,2.6811,2.7535,2.8053,2.8652,2.931,2.9939,3.0597,3.127,3.1345,3.139,3.1467,3.1482,3.1482,3.1482,3.1482,3.1422,3.1345,3.1345,3.0941,3.0148,2.9639,2.9056,2.8397,2.7844,2.7523,2.7426,2.7406,2.7242,2.6951,2.6786,2.6776,2.6894,2.659,2.6218,2.5845,2.615,2.5625,2.456,2.3393,2.3241,2.3613,2.3613,2.3613,2.3579,2.3444,2.3004,2.2513,2.2513,2.2936,2.3456,2.368,2.4109,2.454,2.4768,2.5224,2.5694,2.5906,2.6459,2.6966,2.705,2.7071,2.7126,2.7273,2.6521,2.5935,2.6062,2.5291,2.4557,2.4245,2.4318,2.4428,2.4428,2.4575,2.4905,2.5548,2.5621,2.5897,2.6539,2.6741,2.6833,2.6833,2.6979,2.7071,2.7071,2.7222,2.7304,2.7304,2.8091,2.8428,2.8268,2.9142,2.9595,2.9716,3.0039,3.0216,1.6422,1.6866,1.7205,1.7633,1.8302,1.9136,0.0,0.0,2.0858,2.1581,2.1678,2.1849,2.251,2.3173,2.4014,2.5285,2.6108,2.6811,2.7535,2.7634,2.7934,2.8622,2.928,2.9924,3.0552,3.0612,3.0866,3.1437,3.1482,3.1482,3.1482,3.1482,3.1255,3.0642,3.0612,3.0043,2.8816,2.8742,2.8368,2.7679,2.7655,2.758,2.7575,2.798,2.7812,2.716,2.6845,2.708,2.7588,2.6268,2.6065,2.6437,2.522,2.5033,2.5456,2.5304,2.4864,2.4388,2.4388,2.4388,2.4286,2.3613,2.3342,2.3274,2.3274,2.3325,2.3616,2.4609,2.4722,2.472,2.5734,2.6085,2.6388,2.737,2.7915,2.8311,2.8654,2.8718,2.892,2.9659,2.8576,2.775,2.8484,2.7346,2.586,2.441,2.4795,2.5274,2.5274,2.5878,2.6374,2.6465,2.6465,2.6502,2.6594,2.7255,2.7658,2.7658,2.8338,2.8718,2.8718,2.8764,2.8764,2.8764,2.8883,2.892,2.8893,2.9706,3.0368,3.0846,3.1581,3.125,1.604,1.6862,0.0,0.0,1.9215,2.0124,2.1081,2.1291,2.147,2.2128,2.2263,2.2458,2.3101,2.3759,2.4507,0.0,2.5839,2.6243,2.6901,2.6677,2.6393,2.6303,2.6871,2.7979,2.9789,2.9968,3.0088,3.0372,3.0387,3.0387,3.0387,3.0387,3.0268,2.9983,2.9968,2.9714,2.9175,2.8786,2.8457,2.8173,2.7769,2.7625,2.7595,2.7736,2.7751,2.7745,2.7938,2.796,2.7739,2.7114,2.681,2.6623,2.6015,2.5964,2.6133,2.527,2.5033,2.5135,2.5135,2.5135,2.5084,2.478,2.4391,2.4036,2.4036,2.434,2.4862,2.5763,2.6228,2.669,2.7866,2.8355,2.8717,2.9479,2.9908,3.0184,3.0369,3.0393,3.0503,3.0834,2.9971,2.931,2.9641,2.8356,2.7071,2.6392,2.6172,2.6098,2.6098,2.597,2.608,2.6557,2.7438,2.8007,2.8007,2.8319,2.8552,2.8725,2.904,2.9291,2.9397,2.9416,2.9416,2.9416,2.9416,2.9416,2.9416,2.9752,3.0077,3.0443,3.075,3.0937,1.6225,0.0,0.0,1.9071,2.0005,2.0932,2.1769,2.1964,2.2099,2.2619,2.2724,2.2817,2.3266,2.3759,2.4358,2.5211,2.533,2.557,2.6228,2.5749,2.5166,2.4642,2.4881,2.5884,2.8008,2.8547,2.8906,2.928,2.931,2.9385,2.9564,2.9579,2.9505,2.931,2.931,2.922,2.9026,2.8562,2.8308,2.8308,2.7814,2.7625,2.7595,2.7643,2.8131,2.8965,2.8996,2.8772,2.8397,2.823,2.7824,2.7317,2.7317,2.7317,2.7182,2.6149,2.5795,2.5913,2.5913,2.5913,2.5879,2.5676,2.5372,2.5133,2.5133,2.5705,2.6582,2.743,2.8064,2.8714,2.9712,3.0264,3.0635,3.0854,3.1265,3.1558,3.1439,3.1384,3.1458,3.1678,3.1072,3.0595,3.0815,2.9714,2.8705,2.8503,2.797,2.7438,2.6998,2.6612,2.6521,2.6888,2.8172,2.8994,2.8994,2.9067,2.9181,2.9392,2.9454,2.9551,2.9696,2.9696,2.9696,2.9696,2.9696,2.9696,2.9696,2.9922,3.0269,3.0719,3.0948,3.1661,0.0,0.0,1.8029,1.9366,2.0183,2.1051,2.2353,2.2694,2.2694,2.2724,2.2724,2.2724,2.2739,2.2727,2.3161,2.4448,2.4612,2.4836,2.5555,2.5076,2.4612,2.4582,2.4059,2.3954,0.0,2.5929,2.7215,2.8532,2.8622,2.8906,2.9549,2.9579,2.928,2.8652,2.8622,2.8308,2.7685,2.767,2.7655,2.7655,2.7625,2.7625,2.7595,2.8089,2.9319,3.1038,2.96,2.9381,2.9989,2.9245,2.896,2.8943,2.8943,2.8943,2.8907,2.8892,2.7926,2.6657,2.6657,2.6657,2.6539,2.5845,2.6065,2.6623,2.6623,2.7466,2.8662,2.9761,3.0163,3.0302,3.0754,3.1148,3.1355,3.1008,3.149,3.1946,3.1499,3.1384,3.1623,3.2412,3.1916,3.1604,3.2394,3.1843,3.1017,3.0246,3.0118,2.9531,2.7952,2.8429,2.8613,2.7842,2.8521,2.8994,2.8994,2.9225,2.9392,2.9412,2.9589,2.9696,2.9696,2.9696,2.9696,2.9696,2.9696,2.9696,2.9696,3.0488,3.1442,3.2542,3.3312,3.4301,1.7963,0.0,1.8738,2.004,2.0855,2.1609,2.2513,2.2712,2.2724,2.2724,2.2338,2.2024,2.2024,2.2024,2.2443,2.3729,2.3595,2.355,2.4178,2.4088,2.3475,2.2188,2.2951,0.0,0.0,0.0,0.0,2.6557,2.7021,2.7365,2.759,2.8008,2.8143,2.7919,2.7919,2.759,2.6916,2.6916,2.6916,2.6916,2.7415,2.781,2.8222,2.876,2.9621,3.0584,3.0494,3.0311,3.0091,2.9837,2.9431,2.9011,2.9011,2.9011,2.9011,2.9011,2.8689,2.8129,2.7621,2.7435,2.7402,2.713,2.7588,2.8213,2.8213,2.8682,2.9397,3.0295,3.075,3.124,3.2187,3.2529,3.2811,3.3468,3.3844,3.4146,3.455,3.4651,3.4724,3.5,3.4376,3.388,3.4147,3.3091,3.1751,3.0393,2.9751,2.9017,2.7934,2.8503,2.8705,2.7879,2.8521,2.9067,2.9246,2.9351,2.9513,2.978,2.9861,2.9988,3.0174,3.0155,3.0155,3.0155,3.0155,3.0442,3.103,3.1303,3.19,3.2812,3.3067,3.3415,1.8733,1.9546,2.0385,2.1187,2.2104,2.2746,2.2703,2.2697,2.2514,2.1794,2.1596,2.1425,2.097,2.0879,2.1303,2.2551,2.2129,2.1994,2.3116,2.3071,2.2547,2.153,2.2308,2.2682,0.0,0.0,0.0,2.5196,2.5869,2.6243,2.6243,2.6856,2.7215,2.7215,2.7505,2.7415,2.6946,2.6946,2.7079,2.7258,2.7697,2.8367,2.9134,2.954,3.0038,3.0658,3.1015,3.092,3.0497,3.0497,3.0209,2.977,2.977,2.977,2.9807,2.9958,2.9843,2.9414,2.8198,2.8082,2.8391,2.8135,2.887,2.9868,2.9868,3.0331,3.0991,3.1467,3.1898,3.2457,3.3216,3.3873,3.4422,3.4907,3.5477,3.5973,3.6229,3.6303,3.6303,3.6303,3.5605,3.499,3.499,3.3652,3.2265,3.1219,3.0136,2.9035,2.7934,2.8503,2.8705,2.7879,2.8521,2.9112,2.9372,2.9474,2.9643,2.9984,3.0089,3.0209,3.0398,3.0398,3.0398,3.0398,3.0398,3.0833,3.1698,3.1698,3.2275,3.3353,3.3353,3.3526,1.9866,2.1425,2.264,2.267,2.3581,2.4164,2.2909,2.2562,2.1989,2.0145,2.0508,2.081,0.0,0.0,1.99,2.1084,2.0466,2.049,2.2394,2.2184,2.2034,0.0,0.0,0.0,0.0,0.0,0.0,2.4492,0.0,2.5555,2.5555,2.6183,2.6542,2.6542,2.722,2.76,2.7555,2.76,2.7947,2.8512,2.8543,2.918,3.0293,3.0293,3.0617,3.119,3.119,3.119,3.119,3.119,3.119,3.119,3.119,3.123,3.1291,3.166,3.1357,3.0508,2.8647,2.8733,2.957,2.8891,2.993,3.1466,3.1466,3.2281,3.3214,3.3214,3.3494,3.3807,3.3844,3.5037,3.6046,3.5312,3.634,3.7323,3.6578,3.6442,3.6423,3.6423,3.5725,3.5055,3.4963,3.3678,3.2669,3.2614,3.1274,2.9696,2.8117,2.8558,2.8723,2.7934,2.8539,2.9112,2.9373,2.9589,2.978,2.9999,3.0292,3.0456,3.0456,3.0456,3.0475,3.0533,3.0494,3.0929,3.1833,3.1833,3.266,3.4257,3.4257,3.468,2.0419,2.1262,2.2048,2.2585,2.2585,2.2338,2.2019,2.0956,2.0198,2.0783,2.012,1.9672,0.0,0.0,0.0,2.1233,2.1486,0.0,2.1899,2.296,0.0,2.2578,0.0,2.4337,2.3984,2.4517,0.0,0.0,2.4746,2.4821,2.4821,2.5495,2.5854,2.5854,2.693,2.7303,2.6795,2.7715,2.8281,2.843,2.8926,2.9585,3.0293,3.0293,3.0617,3.119,3.119,3.119,3.119,3.119,3.119,3.119,3.119,3.1372,3.166,3.1752,3.19,3.191,3.0826,3.068,3.0917,3.0723,3.1356,3.2216,3.2216,3.2679,3.3214,3.3214,3.3494,3.3935,3.4559,3.499,3.5605,3.6615,3.7184,3.7606,3.7991,3.8245,3.8386,3.8386,3.7236,3.5862,3.4637,3.3891,3.3293,3.2706,3.1751,3.0723,2.9714,2.9255,2.892,2.8723,2.8865,2.9181,2.9589,2.9661,2.9864,3.0267,3.0982,3.1371,3.1371,3.1371,3.166,3.2256,3.1679,3.2083,3.3564,3.3564,3.4122,3.518,3.518,3.4949,2.0986,2.1824,2.26,2.301,2.2834,2.2336,2.1636,2.0877,2.0313,2.0448,2.0473,0.0,2.1166,2.0891,2.079,0.0,0.0,0.0,2.2161,2.3195,2.3793,0.0,2.4626,0.0,2.4784,2.5186,2.5268,0.0,2.4902,2.4817,2.4513,2.5151,2.5605,2.5857,2.6946,2.7593,2.7784,2.8459,2.8957,2.9231,2.961,3.0123,3.0699,3.0699,3.0878,3.119,0.0,3.119,3.123,3.1389,3.147,3.147,3.1694,3.1914,3.2127,3.2332,3.2565,3.2787,3.2553,3.2451,3.2367,3.1876,3.2337,3.3057,3.3057,3.3508,3.3993,3.3993,3.441,3.4908,3.4972,3.5569,3.6248,3.6817,3.7496,3.818,3.8762,3.8999,3.8928,3.8353,3.7216,3.5895,3.4447,3.4093,3.3788,3.3209,3.2449,3.177,3.1311,2.9934,2.8994,2.8994,2.8994,2.9185,2.9661,2.9696,2.9896,3.0367,3.0871,3.1295,3.1679,3.1698,3.2083,3.2872,3.2468,3.2872,3.4199,3.4199,3.4641,3.5493,3.5493,3.5238,2.1553,2.2604,2.3475,2.3475,2.3383,2.2892,2.1406,2.1169,2.0936,1.9717,0.0,2.2153,2.1639,2.0952,2.0805,2.1871,0.0,2.034,2.2675,2.3181,2.3781,2.4992,2.5255,2.5351,2.5426,2.5365,2.5326,2.5326,2.5422,2.5191,2.4542,2.5062,2.5717,2.6439,2.7277,2.836,2.9629,2.9629,2.9892,3.0435,3.0435,3.0699,3.119,3.119,3.119,3.119,3.119,3.119,3.123,3.1623,3.1789,3.1861,3.2316,3.255,3.2648,3.3045,3.3243,3.3332,3.368,3.3807,3.3625,3.2637,3.3003,3.3807,3.3807,3.4376,3.5018,3.5055,3.5652,3.6166,3.5588,3.649,3.7429,3.6869,3.779,3.8873,3.9117,3.9111,3.8696,3.7457,3.6532,3.5595,3.451,3.4246,3.4123,3.3876,3.3136,3.2596,3.2647,3.0711,2.9305,2.9305,2.9305,2.9462,2.9776,2.9829,2.9994,3.033,3.059,3.1083,3.1833,3.1968,3.241,3.3237,3.3122,3.3506,3.4372,3.4372,3.4757,3.5493,3.5493,3.5493,2.2084,2.25,2.2847,2.2847,2.2218,2.1391,2.0558,1.9386,0.0,0.0,2.0324,2.0843,2.126,2.2206,2.2638,2.1832,2.2315,2.2721,2.2555,2.3606,2.4548,0.0,2.5605,2.6236,2.6564,2.626,0.0,0.0,2.5956,2.567,2.5105,2.5178,2.6021,2.781,2.86,2.9609,3.0878,3.0878,3.0935,3.1055,3.1055,3.1112,3.119,3.119,3.119,3.119,3.119,0.0,3.123,3.1623,3.1789,3.1861,3.2316,3.2745,3.3075,3.3184,3.339,3.3707,3.378,3.3807,3.377,3.357,3.3625,3.3807,3.3807,3.4376,3.5055,3.5342,3.5835,3.6519,3.7547,3.7835,3.8037,3.8839,3.9226,3.9457,3.9505,3.9164,3.8651,3.7967,3.6967,3.5968,3.5077,3.4513,3.4176,3.4147,3.3271,3.2679,3.2892,3.1795,3.098,3.098,3.098,3.083,3.0458,3.0584,3.0499,3.0099,3.1584,3.2526,3.2699,3.3372,3.416,3.5045,3.4334,3.4391,3.5276,3.5276,3.5353,3.5493,3.5493,3.5493,2.2963,2.3016,2.2979,2.3336,2.2524,2.1458,2.0758,0.0,0.0,0.0,2.0903,2.1573,2.2361,2.2582,0.0,2.2371,2.2055,2.2089,2.2807,2.318,2.3955,2.5596,2.6207,2.6736,2.7381,2.7233,2.708,2.708,2.7026,2.659,2.5689,2.6196,2.7036,2.818,2.9193,3.018,3.119,3.119,3.119,3.119,3.119,3.119,3.119,3.1411,3.1507,3.1545,3.1787,3.1896,3.1932,3.2332,3.2533,3.2565,3.2996,3.3314,3.3522,3.3522,3.3634,3.3815,3.3961,3.3993,3.4043,3.4189,3.4141,3.3993,3.3993,3.4693,3.5589,3.6171,3.6807,3.7505,3.8211,3.8583,3.8831,3.8954,3.9432,3.9859,3.9859,3.9452,3.8843,3.8146,3.7183,3.6211,3.5255,3.4851,3.4615,3.4467,3.4016,3.3728,3.3883,3.3437,3.2724,3.1709,3.1594,3.1492,3.1254,3.1447,3.1331,3.0708,3.1673,3.2468,3.2872,3.3295,3.4141,3.5455,3.5084,3.5084,3.5493,3.5493,3.5493,3.5493,3.5493,3.5493,2.3881,2.3733,2.3395,2.3887,2.2857,2.155,2.0942,2.0431,0.0,0.0,2.1394,2.2314,2.2806,0.0,2.221,0.0,2.1689,2.1489,2.3087,2.294,2.3653,0.0,2.6665,0.0,2.7969,2.8201,0.0,2.8233,2.8326,2.7871,2.6584,2.7649,2.8387,2.86,2.9812,3.0734,3.1312,3.1428,3.1504,3.1504,3.1504,3.1504,3.1504,3.1806,3.1951,3.1951,3.235,3.2484,0.0,3.3014,3.3214,3.3243,3.3634,3.3917,3.4064,3.4064,3.4209,3.4426,3.4457,3.4526,3.4581,3.467,3.4529,3.4311,3.4311,3.5049,3.609,3.6967,3.7737,3.8373,3.8755,3.9283,3.9561,3.8984,3.9527,4.0177,4.0177,3.9723,3.9027,3.8161,3.745,3.6656,3.5624,3.5405,3.5283,3.5078,3.4848,3.4714,3.4774,3.4793,3.4205,3.2666,3.2472,3.2334,3.2163,3.2391,3.2272,3.1622,3.1979,3.2526,3.3141,3.3353,3.4103,3.5455,3.5493,3.5493,3.5493,3.5493,3.5493,3.5493,3.5526,3.5526,2.4573,2.4459,2.3794,2.3736,2.225,2.0721,2.027,0.0,1.8775,1.9681,2.0877,2.154,2.082,0.0,0.0,0.0,0.0,2.3224,2.3052,2.3921,2.4972,2.6114,0.0,0.0,2.8416,2.919,2.9533,2.9268,2.9773,2.9532,2.8247,2.9274,2.9884,2.9914,3.1048,3.1683,3.1752,3.2179,3.2384,3.2384,3.2384,3.2384,3.2384,3.2417,3.2451,3.2451,3.2484,3.2484,0.0,3.3014,3.3214,3.3243,3.3634,3.4266,3.488,3.488,3.5549,3.6335,3.5634,3.5525,3.5637,3.4939,3.4674,3.4653,3.4653,3.5258,3.6132,3.7243,3.7904,3.8615,3.9959,4.0192,4.0101,4.0277,4.0399,4.0473,4.0473,3.9838,3.9027,3.8161,3.793,3.7603,3.6709,3.6345,3.6172,3.6155,3.5325,3.4793,3.5016,3.507,3.4994,3.4824,3.4586,3.4108,3.3317,3.3502,3.3315,3.2527,3.3412,3.3987,3.4083,3.4834,3.5353,3.5507,3.5493,3.5493,3.5493,3.5493,3.5493,3.5493,3.5565,3.5603,2.4471,2.4551,2.4305,2.4252,2.2544,2.0924,2.1096,0.0,1.8755,1.993,2.0525,2.0915,2.114,2.2076,0.0,0.0,0.0,0.0,2.2726,2.269,2.3666,2.6464,2.6928,0.0,0.0,0.0,3.0669,3.1049,3.1531,3.1508,3.0826,3.085,3.0889,3.0889,3.1742,3.1985,3.1512,3.1679,3.1777,3.1777,3.1777,3.2024,3.2517,3.2777,3.2921,3.2952,3.3196,3.3284,0.0,3.367,3.3802,3.3828,3.4213,3.4554,3.4811,3.4811,3.5109,3.5469,3.5318,3.5324,3.5399,3.5217,3.519,3.5138,3.4981,3.5605,3.6602,3.7655,3.8104,3.8625,4.0265,4.0595,4.0545,4.0662,4.0315,4.0104,4.0581,4.0046,3.9377,3.9031,3.8965,3.8691,3.7796,3.7563,3.7498,3.749,3.6664,3.6058,3.6174,3.5695,3.5354,3.5354,3.5105,3.4737,3.4223,3.4413,3.4227,3.3385,3.3873,3.4199,3.4199,3.4526,3.4968,3.5474,3.5493,3.5493,3.5493,3.5493,3.5526,3.5565,3.5603,3.5611,2.4107,2.4469,2.4595,2.4556,2.2692,2.1004,0.0,0.0,1.8668,2.0106,2.0354,2.0538,2.1191,2.1777,0.0,0.0,0.0,2.1784,2.2274,2.2192,2.3233,2.6341,0.0,2.7846,2.9782,3.0918,3.196,3.3042,3.2806,3.2652,3.273,3.2183,3.1823,3.1717,3.2364,3.2339,3.1507,3.1685,3.1786,3.1797,3.1867,3.2368,3.3176,3.3497,3.3588,3.3524,3.3891,3.4012,0.0,3.4218,3.4357,3.4379,3.4612,3.4845,3.5052,3.5052,3.5244,3.5514,3.5473,3.552,3.5621,3.5547,3.5718,3.5858,3.5423,3.5776,3.6584,3.756,3.8221,3.8955,4.041,4.0797,4.0739,4.0507,4.0011,3.9657,3.9929,3.9553,3.9069,3.8797,3.917,3.9262,3.8431,3.8491,3.8684,3.869,3.7897,3.732,3.7313,3.6747,3.6232,3.5982,3.5776,3.5479,3.4982,3.5105,3.4974,3.4343,3.4477,3.4584,3.4584,3.4584,3.4872,3.5488,3.5493,3.5493,3.5493,3.5526,3.5565,3.5603,3.5661,3.5716,2.3601,2.4312,2.4572,2.4448,2.2494,2.0668,0.0,0.0,1.8222,2.0038,2.0396,2.0396,2.0416,2.0421,2.0422,2.0409,0.0,0.0,2.1705,2.313,2.4495,0.0,2.6273,2.7811,3.034,3.1917,3.3474,3.5147,3.3369,0.0,3.3444,3.317,3.2826,3.2515,3.2952,3.2805,3.2,3.2643,3.298,3.2989,3.3269,3.3824,3.4674,3.4674,3.4508,3.42,3.4551,3.4508,0.0,3.4551,3.4694,3.4713,3.4694,3.5203,3.588,3.588,3.6576,3.7356,3.6556,3.6539,3.6743,3.5878,3.6232,3.6824,3.5949,3.5661,3.5815,3.6747,3.8244,3.9774,4.0599,4.0793,4.0599,3.9793,3.9618,3.9338,3.8331,3.8123,3.7831,3.6913,3.819,3.9148,3.8336,3.8981,3.9599,3.9599,3.8843,3.8294,3.8292,3.8271,3.7943,3.7088,3.6991,3.6593,3.557,3.5493,3.5493,3.5474,3.5474,3.5488,3.5488,3.5488,3.5474,3.5493,3.5493,3.5493,3.5493,3.5584,3.5603,3.5603,3.5795,3.5929,2.0592,2.151,2.2181,2.1545,2.0335,1.9335,1.9438,1.8487,1.7924,1.9239,1.9833,2.0162,2.0315,2.1309,2.1739,2.0588,2.1628,0.0,0.0,0.0,0.0,2.6974,2.9015,3.0751,0.0,0.0,3.3151,3.3807,3.3179,3.2791,3.2894,3.2783,3.2506,3.2052,3.2519,3.2224,3.1052,3.1236,3.1432,3.156,3.1638,3.2109,3.2938,3.3542,3.3746,3.3682,3.4408,3.4653,0.0,3.4851,3.5001,3.5059,3.525,3.5506,3.5755,3.5755,3.5978,3.6232,3.5983,3.5969,3.6028,3.5756,3.5881,3.6086,3.5894,3.618,3.6754,3.7694,3.9291,4.0721,4.0896,4.0949,4.0707,3.9819,3.9593,3.9348,3.8428,3.8247,3.8316,3.8627,3.914,3.9629,3.9934,4.0226,4.0427,4.0427,3.9635,3.9058,3.9043,3.8481,3.8029,3.7838,3.7812,3.7199,3.5707,3.5584,3.5584,3.5584,3.5584,3.5603,3.5641,3.5641,3.5641,3.5641,3.5641,3.5641,3.5641,3.5661,3.5718,3.5809,3.5923,3.6306,0.0,2.0348,2.0863,2.0321,1.9474,1.8709,0.0,0.0,1.8103,1.8778,1.944,2.0067,2.048,2.1356,2.1835,2.1317,2.2059,2.2781,0.0,0.0,0.0,2.8223,0.0,0.0,0.0,3.2541,3.2705,3.3164,3.2506,3.2177,3.2334,3.222,3.1862,3.1222,3.231,3.2348,3.1198,3.1617,3.1713,3.1536,3.1621,3.192,3.2416,3.2966,3.3352,3.3601,3.392,0.0,0.0,3.4404,3.4598,3.4958,3.5123,3.5403,3.5693,3.5693,3.5693,3.5693,3.5693,3.5726,3.5778,3.5785,3.5795,3.5879,3.6239,3.6719,3.7362,3.8567,3.9508,4.0266,4.0784,4.0703,4.0333,3.9749,3.9606,3.9247,3.8035,3.8001,3.8281,3.8479,3.9056,3.9681,4.0195,4.0565,4.0798,4.0798,4.0306,3.9937,3.9937,3.9412,3.8979,3.8752,3.8723,3.8002,3.6236,3.611,3.6001,3.5661,3.5642,3.5654,3.5693,3.5693,3.5693,3.5693,3.5693,3.5693,3.5693,3.5746,3.5994,3.644,3.6465,3.6953,0.0,2.0494,2.0379,2.032,1.9602,1.8677,1.7791,0.0,0.0,1.8591,1.9224,2.0042,2.0853,2.0783,2.1017,2.2374,2.2417,2.2494,0.0,2.4722,0.0,0.0,3.0854,0.0,3.1783,3.1824,3.2175,3.2937,3.152,3.0956,3.1758,3.1511,3.1018,3.0244,3.2207,3.2883,3.2052,3.3099,3.3252,3.2539,3.273,3.2814,3.2814,3.2833,3.3173,0.0,3.3221,0.0,0.0,3.3402,3.3686,3.4417,3.4412,3.4866,3.5521,3.5585,3.5618,3.5626,3.5684,3.5793,3.591,3.591,3.5944,3.6142,3.6939,3.7275,3.7689,3.9192,3.909,3.8897,4.0325,4.0196,3.9665,3.9588,3.9619,3.9172,3.7373,3.7608,3.7935,3.7065,3.8253,3.9422,3.948,4.0196,4.0773,4.0773,4.0758,4.0758,4.0758,4.0742,4.0438,3.9692,3.9607,3.893,3.7196,3.703,3.6614,3.574,3.5688,3.571,3.5723,3.5723,3.5723,3.5723,3.5723,3.5723,3.5723,3.5841,3.6382,3.7305,3.7305,3.7793,2.0088,0.0,1.9261,1.8595,1.8712,1.8715,0.0,0.0,0.0,0.0,0.0,1.9913,2.0828,2.1265,2.1728,2.241,2.2853,2.3314,2.3854,2.6029,0.0,2.9102,3.06,3.1276,3.0655,3.112,3.1303,3.0999,3.0752,3.0678,3.0898,3.0882,3.0737,3.0506,3.1655,3.1699,3.0529,3.1413,3.19,3.1904,3.202,3.2051,3.2051,3.2115,3.2218,3.2391,0.0,0.0,3.3384,3.3246,3.3317,3.3509,3.3512,3.3613,3.388,3.4534,3.4819,3.4953,3.5618,3.5903,3.5981,3.5923,3.5851,3.6049,3.7553,3.8081,3.8222,3.8549,3.9391,4.0149,3.981,4.0077,4.0258,3.9546,3.985,3.9831,3.8104,3.8411,3.895,3.8719,3.9027,3.9523,4.0138,4.0427,4.0581,4.0581,4.0415,4.0272,4.0272,4.004,3.9844,3.9757,3.9756,3.9435,3.8659,3.7551,3.6571,3.5749,3.5702,3.5758,3.5929,3.593,3.593,3.593,3.593,3.593,3.593,3.5955,3.6433,3.7305,3.7305,3.8077,1.9619,1.9439,1.8989,1.8508,1.8659,1.8641,1.7633,0.0,0.0,0.0,0.0,0.0,2.1671,2.2031,2.2367,2.3075,2.3493,2.4049,0.0,0.0,2.821,2.9379,3.0197,3.0641,0.0,3.0566,3.0449,3.0177,3.0323,3.0472,3.0593,3.0632,3.0657,3.0652,3.1071,3.1156,3.0874,3.1741,3.2037,3.1802,3.1828,3.1638,3.1245,3.1283,3.1535,0.0,0.0,0.0,3.2627,3.2217,3.2272,3.2597,3.26,3.2856,3.3322,3.4168,3.4528,3.4678,3.5522,3.584,3.5869,3.5811,3.577,3.5931,3.7257,3.7939,3.8426,3.9189,3.9773,4.0119,3.9946,3.9985,4.0023,3.9873,4.0181,4.0142,3.8873,3.9258,3.9688,3.9169,3.9484,3.9938,4.0262,4.0321,4.0321,4.0321,4.0043,3.988,3.988,3.9712,3.9626,3.9697,3.9719,3.9442,3.8785,3.7655,3.6794,3.632,3.5917,3.5741,3.5851,3.5851,3.5851,3.5851,3.5851,3.5851,3.5851,3.5851,3.6511,3.7757,3.7757,3.863,1.9104,1.9262,1.9369,1.9258,1.9109,1.8783,1.8008,0.0,0.0,0.0,0.0,0.0,0.0,2.2676,0.0,0.0,0.0,0.0,2.6499,2.7236,2.8201,2.9682,2.9832,0.0,3.0508,3.0,2.9748,2.9939,3.0113,3.0316,3.0574,3.0604,3.0632,3.0695,3.0656,3.0998,3.1744,3.2571,3.2632,3.1904,3.1916,3.1526,3.0807,3.0695,3.1015,3.1584,0.0,0.0,3.1549,3.0814,3.0965,3.1688,3.1688,3.2131,3.2875,3.3749,3.4173,3.4424,3.5378,3.5698,3.5685,3.5675,3.568,3.5815,3.6628,3.7435,3.8416,3.9977,3.9992,3.9677,4.0196,3.9892,3.9662,4.0335,4.0489,4.0296,3.9623,3.9992,4.0161,3.9185,3.9734,4.0302,4.0062,4.0022,4.0022,4.0022,3.9754,3.951,3.951,3.9481,3.9457,3.9457,3.9457,3.9175,3.8465,3.7589,3.7087,3.7187,3.62,3.5659,3.5698,3.5698,3.5698,3.5698,3.5698,3.5698,3.5698,3.5834,3.674,3.8296,3.8432,3.9315,1.9745,2.0266,2.057,2.0003,1.9831,1.9876,0.0,0.0,0.0,0.0,0.0,0.0,0.0,2.2479,2.2593,0.0,0.0,2.6505,0.0,0.0,2.8985,2.9569,0.0,2.9533,2.8631,2.908,2.9532,2.9731,3.0027,3.0287,3.0497,3.0611,3.0682,3.0693,3.0793,3.0924,3.1054,3.176,3.2025,3.1902,3.1958,3.1897,3.1756,3.1144,3.0523,2.9952,0.0,2.9763,2.9867,2.9694,3.0037,3.0709,3.0722,3.0756,3.0941,3.1795,3.2628,3.3551,3.5156,3.5663,3.5612,3.5617,3.5584,3.568,3.6488,3.7334,3.8174,3.8894,3.9689,4.0215,3.9623,3.9892,4.0335,4.0469,4.0489,4.0469,4.0335,4.0226,4.0101,3.9929,3.9806,3.9735,3.9668,3.9668,3.9668,3.9668,3.9389,3.9178,3.9178,3.898,3.8833,3.8833,3.8833,3.8886,3.8965,3.7604,3.7141,3.8045,3.6323,3.54,3.5682,3.5701,3.5701,3.5701,3.5701,3.5701,3.5701,3.644,3.7327,3.8323,3.9061,3.987,1.952,1.9907,2.0095,1.9849,2.0493,2.1061,0.0,0.0,0.0,0.0,0.0,0.0,0.0,0.0,2.4073,2.5637,0.0,2.6656,2.8348,2.8064,2.8003,0.0,0.0,2.8469,2.8562,2.8938,2.927,2.9532,2.9794,3.0051,3.0309,3.0505,3.0637,3.0703,3.0751,3.0836,3.0894,3.1206,3.1362,3.1362,3.1398,3.1158,3.0691,3.0359,2.9726,2.8886,0.0,2.8781,2.8739,2.8659,2.9083,2.9737,2.9737,3.0006,3.0494,3.1213,3.2244,3.3375,3.4173,3.4745,3.5108,3.5108,3.5089,3.5127,3.5526,3.6193,3.6918,3.7166,3.8728,4.0191,3.9827,3.9999,4.0321,4.0473,4.0489,4.0457,4.0321,4.0177,4.0002,3.9622,3.9576,3.9552,3.9364,3.9314,3.9314,3.9314,3.9082,3.8865,3.8865,3.8792,3.8707,3.8707,3.8707,3.8732,3.8884,3.7812,3.6898,3.6387,3.5856,3.5643,3.5813,3.5531,3.5576,3.602,3.5739,3.5815,3.6238,3.6647,3.7531,3.8834,3.9258,3.9854,1.8919,1.9258,1.9405,1.9481,0.0,2.1433,0.0,0.0,0.0,0.0,0.0,0.0,0.0,2.4121,0.0,2.6665,2.6743,2.7087,2.8358,2.7964,2.7882,2.8793,2.829,2.8175,2.8934,2.8994,2.9112,2.9392,2.9533,2.9761,3.0068,3.0304,3.0481,3.0576,3.0632,3.0736,3.0834,3.0834,3.0857,3.0898,3.0898,3.0449,2.9609,2.9609,2.9004,2.7988,2.7906,2.7971,2.8087,2.8018,2.8536,2.939,2.939,2.9771,3.0382,3.1001,3.191,3.2864,3.3053,3.3676,3.4392,3.4392,3.4524,3.4694,3.4694,3.5262,3.5903,3.5819,3.7629,3.9616,3.9678,3.9717,3.9795,4.021,4.0283,4.023,4.0042,3.9922,3.9712,3.9186,3.9257,3.9301,3.9036,3.9027,3.9027,3.9027,3.8844,3.8707,3.8707,3.8707,3.8707,3.8707,3.8707,3.8615,3.8432,3.8028,3.7008,3.5192,3.5713,3.6114,3.6179,3.5799,3.5855,3.6483,3.6088,3.617,3.6782,3.7057,3.7874,3.918,3.9454,3.9912,1.8043,1.8829,1.929,1.9237,0.0,0.0,0.0,0.0,0.0,0.0,0.0,0.0,0.0,2.4121,2.5195,2.612,2.7313,2.8836,3.0783,0.0,3.0412,3.0607,3.0184,2.9654,2.9051,2.8994,2.9112,2.9392,2.9394,2.9513,2.9712,3.0041,3.0229,3.0235,3.0474,3.0603,3.0623,3.0623,3.0716,3.0898,3.0898,3.0449,2.9609,2.9609,2.8672,2.709,2.6961,2.736,2.8093,2.7958,2.8852,3.0314,3.0314,3.0196,3.0113,3.0779,3.1089,3.1278,3.2033,3.2808,3.3488,3.3488,3.4035,3.4694,3.4694,3.5262,3.5861,3.5586,3.6746,3.8116,3.8445,3.8512,3.8701,3.9479,3.9668,3.9668,3.9645,3.9389,3.9178,3.9125,3.8923,3.875,3.8719,3.8719,3.8719,3.8719,3.8719,3.8707,3.8707,3.8707,3.8707,3.8707,3.8707,3.8395,3.7643,3.8212,3.793,3.6297,3.6485,3.6745,3.7005,3.6971,3.6971,3.7027,3.6993,3.7014,3.7071,3.8137,3.8709,3.8861,3.9912,4.0431,1.7461,1.8191,0.0,0.0,0.0,0.0,0.0,0.0,0.0,0.0,0.0,0.0,0.0,0.0,2.5142,2.6658,2.791,2.8985,2.9765,2.9728,2.9541,2.9334,2.8763,2.834,2.8309,2.8326,2.836,2.8453,2.8579,2.8691,2.875,2.9058,2.9091,2.8848,2.8929,2.8879,2.8668,2.8668,2.8717,2.8811,3.0105,2.9991,2.8661,2.8675,2.8015,2.6874,2.6773,2.6611,2.6505,2.7486,2.8275,2.8937,2.9807,2.9943,2.9682,3.0155,3.0239,3.0202,3.0757,3.118,3.1535,3.2001,3.2383,3.2776,3.354,3.3762,3.3842,3.4018,3.4295,3.5089,3.7466,3.8465,3.8964,3.9477,3.9599,3.9534,3.9339,3.9186,3.9063,3.8865,3.8762,3.8707,3.8707,3.8707,3.8707,3.8707,3.8707,3.8707,3.8707,3.8707,3.8707,3.8707,3.8707,3.8449,3.7798,3.8034,3.7812,3.6912,3.6767,3.6753,3.6835,3.6528,3.6581,3.7081,3.7103,3.7344,3.7857,3.8291,3.8772,3.9302,3.9751,3.9925,1.663,1.7218,1.772,0.0,0.0,0.0,0.0,0.0,0.0,0.0,0.0,0.0,0.0,0.0,0.0,0.0,2.822,2.8951,2.9316,2.9127,2.8849,2.8453,2.7947,2.7639,2.766,2.7472,2.7256,2.7087,2.7211,2.7201,2.6997,2.7435,2.7474,2.6972,2.715,2.7165,2.6931,2.7056,2.6979,2.6754,2.8447,2.8637,2.7488,2.7503,2.7017,2.6207,2.6124,2.5913,2.5703,2.684,2.7555,2.8011,2.9172,2.9382,2.9038,2.9204,2.9186,2.9098,2.9367,2.9821,3.0313,3.0597,3.1005,3.1533,3.2366,3.2402,3.2264,3.2818,3.2923,3.3458,3.593,3.7284,3.8127,3.8596,3.9025,3.9249,3.9027,3.8971,3.8923,3.875,3.8707,3.8707,3.8707,3.8707,3.8707,3.8707,3.8707,3.8707,3.8707,3.8707,3.8707,3.8707,3.8546,3.83,3.7946,3.7755,3.7542,3.721,3.6825,3.6667,3.686,3.6519,3.6558,3.7134,3.7143,3.7396,3.7942,3.8219,3.8646,3.9233,3.9486,3.9599,1.5449,1.5798,1.5946,0.0,0.0,0.0,0.0,0.0,0.0,0.0,0.0,0.0,0.0,0.0,0.0,2.7521,2.8134,2.8784,2.9892,2.9448,2.8849,2.8435,2.8364,2.8001,2.7151,2.6462,2.5828,2.5297,2.5266,2.5006,2.4398,2.5172,2.5349,2.469,2.5308,2.5663,2.5663,2.6064,2.585,2.5075,2.5869,2.6247,2.6192,2.6192,2.5718,2.4903,2.4823,2.5284,2.6066,2.6007,2.6752,2.7978,2.8559,2.853,2.817,2.7956,2.7897,2.7897,2.7886,2.8894,3.0044,2.9325,3.0123,3.1363,3.1363,3.1363,3.154,3.2254,3.3048,3.3684,3.3684,3.4607,3.5778,3.6573,3.7749,3.8689,3.8689,3.8689,3.8707,3.8707,3.8707,3.8707,3.8707,3.8707,3.8707,3.8707,3.8707,3.8707,3.8707,3.8707,3.8707,3.8707,3.8216,3.7893,3.7911,3.747,3.7173,3.719,3.6684,3.6643,3.7173,3.7173,3.7173,3.7173,3.719,3.719,3.719,3.802,3.8383,3.8414,3.9207,3.9599,1.5407,1.5897,0.0,0.0,0.0,0.0,0.0,0.0,0.0,0.0,0.0,2.6559,2.7538,0.0,0.0,2.6945,2.7555,2.7809,2.7297,2.7474,2.73,2.627,2.5727,2.5351,2.5104,2.4107,2.3412,2.3272,2.2925,2.2618,2.2449,2.2667,2.2591,2.2102,2.2276,2.2425,2.2463,2.2588,2.2703,2.284,2.3074,2.3996,2.543,2.543,2.5282,2.5022,2.5023,2.482,2.4543,2.5115,2.644,2.8033,2.7324,2.7192,2.7402,2.7248,2.7146,2.711,2.7404,2.775,2.8064,2.7888,2.8125,2.8671,2.9522,2.9554,2.9503,3.0471,3.1027,3.132,3.132,3.2579,3.4129,3.5188,3.5769,3.6278,3.7156,3.7348,3.7644,3.8517,3.8707,3.8707,3.8707,3.8707,3.8707,3.8707,3.8707,3.8707,3.8707,3.8382,3.815,3.815,3.7703,3.7248,3.6865,3.6724,3.6498,3.6079,3.5941,3.6097,3.662,3.6661,3.6661,3.6661,3.6999,3.719,3.719,3.7434,3.756,3.756,3.8154,3.8407,1.4424,1.4834,0.0,0.0,0.0,0.0,0.0,0.0,0.0,0.0,0.0,2.7322,2.7847,2.6931,0.0,2.6485,2.6651,2.6528,2.5828,2.5873,2.5491,2.4233,2.3935,2.3579,2.2956,2.1987,2.1207,2.0774,2.0211,1.9786,1.9504,1.9758,1.9638,1.915,1.928,1.9388,1.9424,1.961,1.9872,2.0178,2.0448,2.122,2.2513,2.3419,2.3817,2.3817,2.3817,2.3526,2.3106,2.396,2.4963,2.596,2.5773,2.5791,2.5967,2.6171,2.601,2.5796,2.6294,2.6419,2.6455,2.6777,2.6872,2.7116,2.8394,2.8375,2.8196,2.9399,2.987,2.9935,2.9935,3.0784,3.2083,3.3771,3.4783,3.5456,3.5964,3.6536,3.7073,3.7525,3.7899,3.8083,3.8083,3.8083,3.8083,3.8083,3.8083,3.8083,3.8083,3.7808,3.7614,3.7614,3.7173,3.6764,3.6416,3.6224,3.5941,3.5622,3.5622,3.5739,3.6054,3.6097,3.6097,3.6097,3.6399,3.6545,3.6545,3.6803,3.6882,3.6865,3.7396,3.7614,1.2932,0.0,0.0,0.0,1.6161,0.0,2.1025,2.5046,2.8339,2.8822,0.0,2.7616,2.7205,2.6021,2.5354,2.6046,2.5497,2.5035,2.5035,2.4455,2.3623,2.2468,2.2671,2.2339,2.0886,1.9908,1.8997,1.8011,1.7357,1.6723,1.6095,1.656,1.6598,1.5985,1.6325,1.655,1.6578,1.7023,1.7271,1.731,1.7932,1.8186,1.8298,2.0605,2.168,2.168,2.168,2.1714,2.1814,2.2488,2.2648,2.2621,2.3866,2.4191,2.4026,2.4585,2.4483,2.4148,2.4768,2.4995,2.5151,2.5679,2.5866,2.6118,2.7488,2.7474,2.7354,2.8661,2.9164,2.9316,2.9255,2.93,2.9978,3.2217,3.4115,3.5273,3.4764,3.5806,3.669,3.6127,3.6659,3.719,3.719,3.719,3.719,3.719,3.719,3.719,3.719,3.7152,3.7152,3.7152,3.6643,3.635,3.635,3.5898,3.5622,3.5622,3.5622,3.5622,3.5622,3.5622,3.5622,3.5622,3.5622,3.5622,3.5622,3.6097,3.635,3.6333,3.6882,3.7152,1.294,1.3161,0.0,0.0,1.6136,1.8177,1.9731,2.1642,2.3482,2.4941,2.6367,2.7024,2.6045,2.5499,2.509,2.4856,2.4189,2.358,2.3155,2.295,2.2615,2.1953,2.0703,1.9784,1.9425,1.7617,1.6318,1.61,1.5096,1.4411,1.4266,1.3882,1.3617,1.3486,1.3537,1.3817,1.4239,1.435,1.4582,0.0,1.5666,1.5998,1.6082,1.8746,1.995,1.995,1.995,2.0277,2.076,2.0373,2.0833,2.1753,2.1039,2.1406,2.2209,2.1946,2.2312,2.306,2.3216,2.3558,2.3936,2.3569,2.3455,2.3587,2.439,2.4932,2.5383,2.6049,2.7455,2.8575,2.7969,2.8607,2.9528,3.0098,3.05,3.1186,3.2495,3.3481,3.453,3.5844,3.6675,3.719,3.719,3.719,3.719,3.719,3.719,3.719,3.719,3.6843,3.6563,3.6563,3.6097,3.5783,3.5783,3.5667,3.5622,3.5622,3.5622,3.5622,3.5622,3.5622,3.5622,3.5622,3.5622,3.5622,3.5622,3.5694,3.5783,3.5766,3.6333,3.6563,0.0,0.0,0.0,1.4276,0.0,1.7008,1.8496,1.9333,2.0153,2.1212,2.3043,2.4212,2.3259,2.3007,2.2763,2.215,2.1741,2.1277,2.0731,2.061,2.0234,1.9136,1.8414,1.7638,1.659,1.5324,1.432,1.3736,1.2811,1.2308,1.2308,1.1997,1.1782,1.1782,1.146,1.1416,1.1704,1.1376,1.135,1.1643,1.2632,1.3428,1.4147,1.6725,1.7921,1.7921,1.7921,1.8127,1.847,1.8085,1.8375,1.9013,1.8673,1.8986,1.9628,1.9846,2.0127,2.0481,2.0993,2.1405,2.1786,2.2076,2.2146,2.2373,2.3344,2.3881,2.4281,2.4841,2.5944,2.6946,2.6567,2.6953,2.756,2.7951,2.9233,3.0571,3.1199,3.2479,3.3611,3.4263,3.522,3.5976,3.5976,3.6222,3.644,3.644,3.644,3.644,3.644,3.6165,3.6028,3.6028,3.5783,3.5622,3.5622,3.5622,3.5622,3.5622,3.5622,3.5622,3.5622,3.5622,3.5622,3.5622,3.5622,3.5622,3.5622,3.5622,3.5622,3.5622,3.5898,3.6028,0.0,0.0,1.2725,1.4121,1.4883,0.0,1.71,1.752,1.7638,1.789,1.9669,2.0882,2.0126,2.0089,1.9871,1.9108,1.8937,1.8702,1.8109,1.7989,1.7419,1.6026,1.6135,1.5548,1.3693,1.3264,1.2686,1.1639,1.0839,1.045,1.045,1.0195,1.0084,1.0084,0.9489,0.9165,0.9165,0.8632,0.8312,0.8371,0.9577,1.0822,1.2098,1.4091,1.5239,1.569,1.569,1.569,1.569,1.569,1.5745,1.5905,1.6465,1.6863,1.7239,1.8101,1.8177,1.8001,1.8848,1.9226,1.9412,2.0524,2.0927,2.1173,2.2404,2.292,2.3136,2.3784,2.4559,2.5204,2.5217,2.5287,2.5563,2.6176,2.8583,3.0694,3.0321,3.1752,3.2981,3.2612,3.3632,3.4576,3.4576,3.5052,3.547,3.5577,3.5515,3.547,3.5577,3.5515,3.547,3.5577,3.5362,3.5316,3.5424,3.5316,3.5253,3.5253,3.5253,3.5316,3.5407,3.5424,3.547,3.5622,3.5622,3.5515,3.5424,3.5424,3.5362,3.527,3.5341,3.5501,0.0,0.0,1.3311,0.0,1.4014,1.4959,0.0,0.0,1.5742,0.0,1.7813,1.9264,1.8201,1.8395,1.834,1.7047,1.6602,1.6267,1.5726,1.544,1.5219,1.5009,1.4097,1.3327,1.2823,1.1778,1.1108,1.0906,0.9717,0.8992,0.8992,0.7847,0.7165,0.7165,0.7058,0.7004,0.7004,0.695,0.6897,0.6897,0.7659,0.8463,0.927,0.9591,1.097,1.3158,1.3158,1.3158,1.3158,1.3158,1.3518,1.4057,1.4157,1.5056,1.6364,1.65,1.7042,1.7684,1.7795,1.7875,1.7899,1.8084,1.8139,1.8253,1.8983,1.9901,2.0787,2.1479,2.291,2.4319,2.4425,2.4894,2.5398,2.5508,2.6694,2.8126,2.9415,3.0376,3.1321,3.2391,3.3671,3.4576,3.4576,3.4688,3.4941,3.5515,3.5098,3.4941,3.5515,3.5098,3.4941,3.5532,3.456,3.4087,3.4688,3.4186,3.3887,3.3887,3.3887,3.4137,3.4688,3.4736,3.5005,3.5577,3.5622,3.5299,3.4736,3.4736,3.4431,3.3903,3.4465,3.5064,1.0576,1.1104,1.1612,0.0,1.2485,1.3274,1.3753,0.0,1.4298,1.4953,1.5621,1.6042,1.5718,1.5916,1.5722,1.4467,1.4176,1.3923,1.3521,1.3367,1.3177,1.2995,1.2458,1.185,1.1112,1.0162,0.9467,0.9117,0.8112,0.7534,0.7534,0.6956,0.6588,0.6588,0.6199,0.5982,0.5982,0.5605,0.5605,0.5982,0.5896,0.6426,0.7505,0.7505,0.8781,1.1005,1.1005,1.1271,1.1653,1.1653,1.1809,1.2064,1.2064,1.2635,1.3565,1.4195,1.4844,1.5491,1.6151,1.681,1.7377,1.7377,1.7838,1.838,1.8661,1.9267,1.9987,2.0251,2.1207,2.2128,2.2237,2.2469,2.3015,2.4242,2.4688,2.548,2.774,2.9415,3.0829,3.2299,3.3093,3.3582,3.3987,3.4037,3.4137,3.4447,3.4252,3.4137,3.4447,3.4235,3.4137,3.4447,3.3937,3.3735,3.4037,3.3786,3.3582,3.3582,3.3582,3.3735,3.4037,3.4037,3.4186,3.4447,3.5224,3.5253,3.4576,3.4576,3.4235,3.3598,3.4302,3.4796,0.0,0.0,1.0346,1.0626,1.1197,1.1891,0.0,0.0,1.3113,0.0,1.3652,1.3222,1.3319,1.3576,1.3431,1.2455,1.2142,1.1841,1.1262,1.116,1.0949,1.0462,1.037,1.0028,0.9099,0.8482,0.796,0.745,0.6745,0.6312,0.6312,0.615,0.6046,0.6046,0.5546,0.5273,0.5273,0.4736,0.4736,0.5222,0.4721,0.505,0.605,0.605,0.6988,0.8632,0.8854,0.9231,0.9725,0.9807,1.0052,1.0387,1.0413,1.0883,1.168,1.2572,1.3155,1.3584,1.4468,1.5478,1.6485,1.6597,1.7332,1.8218,1.8287,1.8714,1.9154,1.9331,1.9819,2.0333,2.0526,2.059,2.0978,2.2585,2.2787,2.3427,2.6326,2.8341,2.9912,3.1234,3.1784,3.2284,3.2892,3.3203,3.3391,3.3582,3.3443,3.3391,3.3582,3.3443,3.3391,3.3582,3.3287,3.313,3.3339,3.3182,3.2998,3.2809,3.2966,3.3051,3.3085,3.3244,3.3443,3.3582,3.4609,3.4752,3.4087,3.4087,3.3735,3.3093,3.3904,3.4423,0.0,0.9924,0.0,0.9955,0.0,0.0,0.0,0.0,1.2159,1.2231,1.2231,1.196,1.1236,1.197,1.2372,1.1516,1.0925,1.0181,0.8976,0.8567,0.8117,0.7424,0.7311,0.716,0.6825,0.6745,0.6696,0.6642,0.5982,0.5542,0.5542,0.4948,0.4625,0.4625,0.457,0.457,0.457,0.4529,0.4532,0.4532,0.4543,0.4543,0.4588,0.4588,0.5014,0.5751,0.647,0.6799,0.6815,0.7022,0.7935,0.9288,0.9402,1.0632,1.2364,1.2381,1.2679,1.3045,1.3122,1.3683,1.4423,1.4866,1.5567,1.6294,1.6727,1.716,1.769,1.8415,1.9007,1.9562,2.0398,2.059,2.0655,2.0741,2.1156,2.2427,2.5702,2.6995,2.7666,2.8326,2.9624,3.0779,3.1324,3.2124,3.2895,3.3479,3.3039,3.2895,3.3547,3.3039,3.2895,3.3531,3.2407,3.1894,3.2586,3.2007,3.1354,3.0694,3.1279,3.1622,3.171,3.2299,3.2933,3.3582,3.3684,3.3391,3.2695,3.2695,3.2327,3.167,3.2961,3.3954,0.0,0.0,0.0,0.897,0.9467,0.9996,0.9972,1.0308,1.0743,1.1262,1.114,1.0934,1.0918,1.1233,1.1191,1.0137,0.9806,0.9302,0.8171,0.7917,0.7586,0.6874,0.6764,0.6733,0.6598,0.6145,0.5987,0.6119,0.534,0.4842,0.4853,0.4629,0.4519,0.4519,0.4519,0.4519,0.4519,0.448,0.4487,0.448,0.2514,0.2287,0.3569,0.4193,0.4636,0.4897,0.5117,0.5773,0.6603,0.6819,0.7238,0.7818,0.8479,0.9275,1.0241,1.1271,1.191,1.2328,1.2818,1.3342,1.3905,1.4281,1.5147,1.616,1.6531,1.7178,1.785,1.8155,1.8342,1.8529,1.8854,1.8921,1.9044,1.9628,2.0567,2.1613,2.2503,2.4289,2.6184,2.7905,2.8683,2.9211,2.9704,3.0571,3.1188,3.1432,3.1736,3.2007,3.2201,3.2048,3.2007,3.2256,3.1781,3.1402,3.1273,3.1035,3.0597,2.9953,3.0507,3.0874,3.0894,3.1531,3.2007,3.2256,3.2256,3.2367,3.2586,3.2586,3.2216,3.1511,3.2886,3.3668,0.8023,0.0,0.0,0.0,0.0,0.874,0.8882,0.0,0.8933,0.9591,0.9582,0.9507,0.9757,0.9848,0.9716,0.9252,0.8932,0.836,0.7478,0.7122,0.6686,0.5987,0.5882,0.5882,0.5887,0.5445,0.5234,0.5419,0.4353,0.0,0.4477,0.4473,0.4522,0.4519,0.4519,0.4519,0.4519,0.448,0.4314,0.3965,0.1783,0.1728,0.3514,0.4193,0.4473,0.4522,0.4573,0.5094,0.5994,0.6134,0.6424,0.6797,0.7547,0.8097,0.8675,1.0091,1.078,1.1101,1.2024,1.2641,1.306,1.3541,1.4429,1.5345,1.5815,1.6387,1.6903,1.7042,1.7295,1.7501,1.7501,1.7794,1.8173,1.8904,1.976,2.0428,2.038,2.2073,2.4186,2.6264,2.697,2.7543,2.8383,2.9317,2.9889,2.9889,3.0584,3.1087,3.1087,3.1351,3.1482,3.1482,3.133,3.1001,3.0537,3.0313,3.0028,2.9609,3.0163,3.0507,3.0507,3.1165,3.1482,3.1482,3.1482,3.1739,3.2216,3.2216,3.1951,3.1511,3.2886,3.3739,0.0,0.0,0.0,0.0,0.0,0.0,0.7876,0.7206,0.6737,0.7189,0.7489,0.767,0.7723,0.767,0.7967,0.8958,0.8323,0.7396,0.6696,0.5928,0.5269,0.457,0.4519,0.4522,0.4477,0.4477,0.4428,0.4497,0.3074,0.2845,0.4425,0.448,0.4473,0.4519,0.4519,0.4519,0.4519,0.4473,0.4024,0.3063,0.2508,0.307,0.448,0.448,0.4477,0.4532,0.4626,0.4697,0.4714,0.4863,0.5497,0.6404,0.6582,0.7242,0.8091,0.8941,0.9274,0.9438,1.0555,1.1297,1.1892,1.263,1.3207,1.3702,1.4488,1.4703,1.4778,1.5134,1.586,1.6567,1.6558,1.7285,1.8047,1.8465,1.8562,1.8844,1.9727,2.0536,2.1632,2.3152,2.445,2.5823,2.7353,2.8363,2.8925,2.8939,2.969,3.0269,3.0329,3.097,3.1467,3.1482,3.0911,3.0492,3.0477,2.9909,2.9549,2.9549,3.0133,3.0492,3.0451,3.1108,3.1467,3.1409,3.1467,3.1467,3.1409,3.1467,3.1482,3.1511,3.2886,3.4203,0.8631,0.0,0.0,0.0,0.0,0.0,0.7514,0.7015,0.6737,0.7189,0.707,0.7074,0.7616,0.7289,0.6987,0.7269,0.7063,0.6637,0.5923,0.5651,0.5269,0.457,0.4525,0.4477,0.448,0.3519,0.3299,0.0,0.3079,0.285,0.4445,0.4487,0.4477,0.4473,0.4522,0.4519,0.4519,0.4473,0.4366,0.4079,0.3922,0.4089,0.448,0.448,0.4535,0.4629,0.4674,0.4813,0.5013,0.5053,0.522,0.5523,0.6387,0.685,0.7177,0.8027,0.8748,0.9344,0.9679,1.0425,1.1314,1.1708,1.2531,1.3469,1.383,1.445,1.5101,1.5138,1.5376,1.572,1.6419,1.6784,1.7241,1.8315,1.8562,1.8791,1.931,1.9897,2.0793,2.2551,2.3236,2.3968,2.5517,2.6451,2.7246,2.7973,2.8812,2.9566,3.0208,3.0524,3.0837,3.1409,3.0911,3.0313,2.9879,2.925,2.8876,2.8876,2.9475,2.9807,2.9667,3.0806,3.0896,2.969,3.0896,3.0896,2.969,3.0896,3.1482,3.1511,3.2886,3.3948,0.0,0.0,0.0,0.0,0.0,0.0,0.7209,0.6396,0.5733,0.6146,0.6106,0.61,0.6514,0.6335,0.6076,0.6076,0.5878,0.566,0.5542,0.5273,0.4948,0.4574,0.4473,0.4252,0.3577,0.3302,0.3026,0.2639,0.179,0.1677,0.2577,0.3188,0.3858,0.4487,0.448,0.4477,0.4477,0.4477,0.448,0.448,0.448,0.4514,0.4568,0.4568,0.4646,0.4789,0.4853,0.4979,0.5078,0.5206,0.523,0.5301,0.5905,0.6184,0.6372,0.7143,0.788,0.8446,0.8853,0.9405,1.0048,1.0735,1.1407,1.199,1.2735,1.3322,1.3843,1.3981,1.4235,1.484,1.5979,1.6528,1.7069,1.8065,1.861,1.9023,1.9453,1.9746,2.0352,2.1854,2.2295,2.2961,2.4732,2.5392,2.6077,2.7082,2.792,2.862,2.9129,2.9504,2.995,3.0389,2.9944,2.9528,2.951,2.8702,2.8517,2.934,2.9148,2.9271,2.9678,3.0187,3.0011,2.9002,2.995,2.995,2.9002,3.0703,3.156,3.1779,3.2203,3.2825,0.0,0.0,0.0,0.0,0.7777,0.0,0.6993,0.5645,0.4451,0.4738,0.4942,0.5052,0.5125,0.5178,0.5201,0.518,0.4796,0.468,0.5328,0.4897,0.4519,0.4519,0.4477,0.3974,0.2569,0.3368,0.2865,0.0224,-0.0,-0.0,-0.0,0.1228,0.2569,0.3984,0.4154,0.4268,0.4268,0.4258,0.4311,0.448,0.4543,0.4618,0.4694,0.4707,0.4799,0.4952,0.5024,0.5028,0.4858,0.5051,0.5236,0.5428,0.5428,0.5443,0.5686,0.6348,0.6763,0.7191,0.8127,0.8423,0.8609,0.9824,1.0124,1.0219,1.1397,1.1846,1.1971,1.2231,1.2907,1.393,1.5251,1.6212,1.7071,1.7739,1.8573,1.9267,1.9883,1.9951,2.0147,2.1135,2.1616,2.2478,2.4337,2.4636,2.5004,2.6013,2.6879,2.7458,2.7524,2.8298,2.8876,2.9002,2.8584,2.8483,2.9085,2.8228,2.8457,3.0276,2.9143,2.8972,3.009,2.938,2.8939,2.8748,2.8748,2.8812,2.9002,3.0536,3.1465,3.1847,3.1174,3.1474,0.0,0.0,0.0,0.0,0.8156,0.0,0.6797,0.5949,0.5255,0.5341,0.4935,0.4763,0.5199,0.4908,0.4609,0.4435,0.449,0.4529,0.468,0.4577,0.4477,0.4477,0.4494,0.4392,0.4051,0.213,0.0617,0.0056,-0.0,-0.0,-0.0,0.028,0.0558,0.0893,0.2009,0.2625,0.2625,0.2623,0.3297,0.4494,0.4663,0.4735,0.4769,0.4823,0.4958,0.5041,0.5071,0.4361,0.3189,0.3207,0.409,0.5376,0.5432,0.5446,0.5483,0.5712,0.6325,0.7013,0.7306,0.795,0.8737,0.9,0.9772,1.0642,1.0923,1.1611,1.2231,1.2285,1.2621,1.3195,1.4216,1.468,1.5359,1.7693,1.8236,1.8583,2.011,2.0166,2.0095,2.0668,2.0807,2.1231,2.2403,2.2627,2.2925,2.3952,2.4909,2.5812,2.6506,2.7352,2.8247,2.8939,2.8415,2.8088,2.8213,2.8225,2.8566,2.9508,2.9261,2.918,2.9226,2.9066,2.8363,2.704,2.6973,2.767,2.9002,2.9742,3.0169,3.0304,3.1074,3.1585,0.0,0.0,0.0,0.8804,0.0,0.0,0.0,0.6202,0.5381,0.534,0.4755,0.4323,0.4601,0.4467,0.4341,0.4224,0.4385,0.448,0.448,0.4412,0.4392,0.447,0.3811,0.3643,0.4448,0.1794,-0.0,-0.0,-0.0,-0.0,-0.0,-0.0,-0.0,-0.0,0.0727,0.1118,0.1118,0.1116,0.1506,0.2291,0.3126,0.4024,0.4949,0.4901,0.5057,0.5264,0.5274,0.4788,0.3966,0.3086,0.3761,0.5403,0.5531,0.5572,0.5557,0.5694,0.6072,0.6569,0.6569,0.6966,0.7635,0.8151,0.8745,0.9362,0.989,1.0714,1.1571,1.1721,1.2246,1.2932,1.3544,1.4234,1.5118,1.6472,1.7037,1.7705,1.9121,1.9286,1.9354,2.0119,2.042,2.0934,2.1811,2.1838,2.2061,2.3011,2.361,2.4084,2.4529,2.5438,2.6228,2.6912,2.7233,2.7467,2.784,2.7704,2.8057,2.9106,2.8441,2.8105,2.8349,2.7986,2.7351,2.6521,2.6533,2.6905,2.7736,2.8539,2.9154,2.9646,3.0055,3.0408,0.0,0.0,0.0,0.0,0.0,0.7611,0.0,0.0,0.0,0.5031,0.0,0.0,0.0,0.0,0.0,0.0,0.0,0.0,0.0,0.412,0.0,0.4467,0.2893,0.2284,0.3532,0.0896,-0.0841,-0.0841,-0.0336,-0.0,-0.0,-0.0,-0.0,-0.0,-0.0,-0.0,-0.0,-0.0,-0.0,-0.0,0.1179,0.2607,0.4154,0.4713,0.5121,0.5415,0.5393,0.5413,0.5276,0.3837,0.3849,0.4907,0.5211,0.5532,0.5802,0.5801,0.6003,0.6203,0.6108,0.6156,0.6412,0.7253,0.7629,0.8012,0.8993,0.9895,1.053,1.0747,1.1658,1.2654,1.2818,1.3961,1.5079,1.5292,1.5888,1.6719,1.7822,1.8175,1.861,1.9554,2.0033,2.0658,2.1562,2.1362,2.1356,2.2226,2.2435,2.2522,2.2522,2.3341,2.4093,2.4578,2.5585,2.6478,2.7139,2.7143,2.7633,2.868,2.7584,2.7157,2.7644,2.6905,2.6533,2.6533,2.6533,2.6533,2.6533,2.757,2.8448,2.9138,2.9134,2.934,0.0,0.0,0.0,0.0,0.7777,0.0,0.0,0.0,0.5291,0.4685,0.0,0.0,0.0,0.0,0.0,0.0,0.0,0.0,0.4492,0.3313,0.2967,0.432,0.2012,0.0335,0.0504,-0.2244,-0.3999,-0.3999,-0.1511,-0.0,-0.0,-0.0,-0.0,-0.0,-0.0,-0.0,-0.0,-0.0,-0.0,-0.0,0.0173,0.0351,0.0709,0.388,0.5371,0.5427,0.5425,0.5413,0.5413,0.5205,0.4235,0.3059,0.3832,0.4842,0.5976,0.5995,0.6027,0.6071,0.6193,0.6247,0.6338,0.6412,0.7099,0.8012,0.8993,0.9372,0.9453,0.9478,1.0634,1.1866,1.1896,1.2843,1.4104,1.5337,1.5582,1.5854,1.7121,1.79,1.847,1.8979,1.9298,1.9742,2.0584,2.0348,2.0127,2.0202,2.0669,2.1041,2.1041,2.1871,2.2604,2.3115,2.4001,2.48,2.5228,2.6726,2.7722,2.7855,2.767,2.7604,2.767,2.6905,2.6533,2.6533,2.6533,2.6533,2.6533,2.757,2.817,2.8268,2.9265,2.9729,0.0,0.0,0.0,0.0,0.0,0.0,0.6401,0.0,0.5433,0.0,0.0,0.0,0.0,0.0,0.0,0.0,0.3684,0.0,0.0,0.0,0.2764,0.0,0.0,0.0,0.0112,-0.2751,-0.4514,-0.4514,-0.3309,-0.1843,-0.0112,-0.0,-0.0,-0.0,-0.0,-0.0,-0.0,-0.0,-0.0,-0.0,-0.0,-0.0,0.006,0.155,0.3398,0.5397,0.5386,0.5413,0.5413,0.5406,0.4953,0.4322,0.4877,0.549,0.6037,0.6167,0.6162,0.6173,0.6237,0.6338,0.6338,0.6338,0.6567,0.7022,0.7403,0.8005,0.8576,0.8769,0.9737,1.1002,1.181,1.2433,1.3098,1.4221,1.4363,1.4574,1.5541,1.6197,1.6988,1.8344,1.8843,1.9439,2.042,2.0205,1.9912,1.9912,1.9909,1.9919,1.9919,2.0582,2.1138,2.1626,2.2759,2.3583,2.3743,2.5223,2.6102,2.6102,2.6676,2.6973,2.6973,2.6658,2.6533,2.6533,2.6533,2.6533,2.6533,2.757,2.8109,2.8134,2.9264,2.9792,0.6838,0.0,0.0,0.0,0.0,0.0,0.0,0.0,0.0,0.0,0.0,0.0,0.0,0.0,0.0,0.4477,0.0,0.2169,0.0,0.0947,0.0,0.0,0.0,0.0,0.0,-0.2805,-0.4048,-0.4448,-0.4497,-0.3527,-0.1338,-0.0447,-0.0,-0.0,-0.0,-0.0,-0.0,-0.0,-0.0,-0.0,-0.0,-0.0,-0.0,-0.0,0.1407,0.4002,0.4986,0.541,0.5406,0.5396,0.5389,0.541,0.5731,0.5923,0.6,0.6193,0.6338,0.6338,0.6338,0.6285,0.6325,0.6369,0.6352,0.6325,0.6369,0.6972,0.7609,0.7865,0.8787,0.9981,1.107,1.1759,1.2451,1.3124,1.3507,1.3865,1.4344,1.4947,1.5828,1.7324,1.8118,1.8877,2.0001,2.0042,1.9912,1.9912,1.9561,1.9287,1.9287,1.9636,2.0038,2.0369,2.1549,2.2369,2.2501,2.3908,2.4991,2.537,2.6094,2.6533,2.6533,2.6533,2.6533,2.6533,2.6533,2.6533,2.6533,2.757,2.8109,2.8134,2.9264,2.9792,0.0,0.0,0.0,0.6173,0.0,0.0,0.0,0.0,0.4863,0.0,0.0,0.0,0.0,0.0,0.4474,0.4499,0.445,0.0,0.0,0.0,0.0,0.0,0.0,0.0,0.0,-0.3079,-0.2903,-0.4366,-0.448,-0.4477,-0.4366,-0.1562,-0.0,-0.0,-0.0,-0.0,-0.0,-0.0,-0.0,-0.0,-0.0,-0.0,-0.0,-0.0,0.0065,0.0389,0.3867,0.5406,0.5396,0.5382,0.5372,0.5446,0.5535,0.5684,0.5844,0.6149,0.6338,0.6338,0.6338,0.6349,0.6488,0.6637,0.6586,0.6491,0.6641,0.6586,0.6585,0.674,0.772,0.8776,0.8785,1.0529,1.2322,1.2316,1.319,1.4068,1.4146,1.4956,1.5681,1.5764,1.6593,1.7738,1.8877,1.9495,1.9912,1.9912,1.9561,1.9287,1.9287,1.935,1.934,1.936,2.0278,2.1026,2.1397,2.3199,2.4929,2.6346,2.6452,2.6533,2.6533,2.6533,2.6533,2.6533,2.6533,2.6533,2.6533,2.757,2.8109,2.8134,2.9264,2.9792,0.0,0.0,0.5528,0.545,0.0,0.0,0.0,0.0,0.0,0.0,0.0,0.0,0.0,0.0,0.4622,0.4525,0.4505,0.3796,0.0,0.0,0.0,0.0,0.0,0.0,0.0,0.0,0.0,-0.4435,-0.4477,-0.4525,-0.448,-0.3519,-0.2063,-0.0056,-0.0,-0.0,-0.0,-0.0,-0.0,-0.0,-0.0,-0.0,-0.0,-0.0,-0.0,0.0066,0.1271,0.3155,0.5393,0.5382,0.543,0.5528,0.5674,0.582,0.5966,0.6067,0.6173,0.6274,0.6369,0.643,0.6498,0.6651,0.6664,0.6634,0.6685,0.6736,0.6783,0.6837,0.7207,0.7842,0.8624,0.9443,1.023,1.0768,1.183,1.2677,1.2677,1.3513,1.4564,1.5493,1.6026,1.6601,1.7658,1.8682,1.955,2.0265,1.998,1.9707,1.9707,1.9453,1.9287,1.9287,1.9816,2.0266,2.0406,2.1839,2.3251,2.4457,2.4541,2.4541,2.4541,2.4541,2.4541,2.4541,2.4541,2.4838,2.5523,2.6566,2.7471,2.8134,2.9264,2.9792,0.5116,0.4996,0.0,0.5176,0.5145,0.0,0.5192,0.0,0.506,0.0,0.0,0.0,0.0,0.0,0.0,0.4558,0.4518,0.3758,0.0,0.0616,0.0,0.0,0.0,0.0,0.0,-0.2237,-0.3922,-0.4435,-0.4473,-0.4522,0.0,0.0,-0.3583,-0.1675,-0.0559,-0.0,-0.0,-0.0,-0.0,-0.0,-0.0,-0.0,-0.0,-0.0,-0.0,-0.0,-0.0,0.1339,0.356,0.4959,0.5583,0.5679,0.5749,0.5895,0.6037,0.6091,0.6207,0.6359,0.6502,0.659,0.6658,0.6807,0.6824,0.6793,0.6841,0.6892,0.6939,0.699,0.7068,0.7316,0.8017,0.854,0.903,0.9586,1.0652,1.1578,1.1914,1.2594,1.3496,1.4844,1.5137,1.5462,1.6519,1.7334,1.8301,1.9835,2.0091,2.0146,2.0146,1.9912,1.9678,1.9531,1.9756,2.0053,2.0416,2.1401,2.2403,2.3441,2.3514,2.3514,2.3514,2.3514,2.3604,2.3783,2.3604,2.3909,2.4687,2.5401,2.6198,2.7037,2.7932,2.8687]},{"header":{"parameterUnit":"m.s-1","parameterCategory":1,"la1":30.6,"la2":29.2853,"lo1":-89.7004,"lo2":-87.6739,"dy":0.0162,"dx":0.0183,"nx":112,"ny":82,"refTime":"2024-04-05T12:00:00:Z","depth":0,"parameterNumber":3,"parameterNumberName":"V-component_of_WINDS"},"data":[0.0,0.0,0.0,0.0,0.0,0.0,0.0,0.0,0.0,0.0,0.0,0.0,0.0,0.0,0.0,0.0,0.0,0.0,0.0,0.0,0.0,0.0,0.0,0.0,0.0,0.0,0.0,0.0,0.0,0.0,0.0,0.0,0.0,0.0,0.0,0.0,0.0,0.0,0.0,0.0,0.0,0.0,0.0,0.0,0.0,0.0,0.0,0.0,0.0,0.0,0.0,0.0,0.0,0.0,0.0,0.0,0.0,0.0,0.0,0.0,0.0,0.0,0.0,0.0,0.0,0.0,0.0,0.0,0.0,0.0,0.0,0.0,0.0,0.0,0.0,0.0,0.0,0.0,0.0,0.0,0.0,0.0,0.0,0.0,0.0,0.0,0.0,0.0,0.0,0.0,0.7999,0.9798,1.1546,1.2271,1.143,1.1928,1.2009,1.1358,0.0,0.0,0.0,0.0,0.0,0.0,0.0,0.0,0.0,0.0,0.0,0.0,0.0,0.0,0.0,0.0,0.0,0.0,0.0,0.0,0.0,0.0,0.0,0.0,0.0,0.0,0.0,0.0,0.0,0.0,0.0,0.0,0.0,0.0,0.0,0.0,0.0,0.0,0.0,0.0,0.0,0.0,0.0,0.0,0.0,0.0,0.0,0.0,0.0,0.0,0.0,0.0,0.0,0.0,0.0,0.0,0.0,0.0,0.0,0.0,0.0,0.0,0.0,0.0,0.0,0.0,0.0,0.0,0.0,0.0,0.0,0.0,0.0,0.0,0.0,0.0,0.0,0.0,0.0,0.0,0.0,0.0,0.0,0.0,0.0,0.0,0.0,0.0,0.0,0.0,0.0,0.0,0.0,0.0,0.0,0.0,0.0,0.0,0.0,0.0,0.0,0.0,0.0,0.0,0.9059,1.0968,1.1647,1.1744,1.1116,1.1206,1.1328,1.1317,0.0,0.0,0.0,0.0,0.0,0.0,0.0,0.0,0.0,0.0,0.0,0.0,0.0,0.0,0.0,0.0,0.0,0.0,0.0,0.0,0.0,0.0,0.0,0.0,0.0,0.0,0.0,0.0,0.0,0.0,0.0,0.0,0.0,0.0,0.0,0.0,0.0,0.0,0.0,0.0,0.0,0.0,0.0,0.0,0.0,0.0,0.0,0.0,0.0,0.0,0.0,0.0,0.0,0.0,0.0,0.0,0.0,0.0,0.0,0.0,0.0,0.0,0.0,0.0,0.0,0.0,0.0,0.0,0.0,0.0,0.0,0.0,0.0,0.0,0.0,0.0,0.0,0.0,0.0,0.0,0.0,0.0,0.0,0.0,0.0,0.0,0.0,0.0,0.0,0.0,0.0,0.0,0.0,0.0,0.0,0.0,0.0,0.0,0.0,0.0,0.0,0.0,0.0,0.8746,1.0097,1.1268,1.169,1.157,1.0822,1.1311,1.1563,1.1301,1.128,0.0,0.0,0.0,0.0,0.0,0.0,0.0,0.0,0.0,0.0,0.0,0.0,0.0,0.0,0.0,0.0,0.0,0.0,0.0,0.0,0.0,0.0,0.0,0.0,0.0,0.0,0.0,0.0,0.0,0.0,0.0,0.0,0.0,0.0,0.0,0.0,0.0,0.0,0.0,0.0,0.0,0.0,0.0,0.0,0.0,0.0,0.0,0.0,0.0,0.0,0.0,0.0,0.0,0.0,0.0,0.0,0.0,0.0,0.0,0.0,0.0,0.0,0.0,0.0,0.0,0.0,0.0,0.0,0.0,0.0,0.0,0.0,0.0,0.0,0.0,0.0,0.0,0.0,0.0,0.0,0.0,0.0,0.0,0.0,0.0,0.0,0.0,0.0,0.0,0.0,0.0,0.0,0.0,0.0,0.0,0.0,0.0,0.0,0.0,0.0,0.0,0.0,0.9548,1.0483,1.1263,1.147,1.1303,1.0483,1.1218,1.159,1.1223,1.1495,0.0,0.0,0.0,0.0,0.0,0.0,0.0,0.0,0.0,0.0,0.0,0.0,0.0,0.0,0.0,0.0,0.0,0.0,0.0,0.0,0.0,0.0,0.0,0.0,0.0,0.0,0.0,0.0,0.0,0.0,0.0,0.0,0.0,0.0,0.0,0.0,0.0,0.0,0.0,0.0,0.0,0.0,0.0,0.0,0.0,0.0,0.0,0.0,0.0,0.0,0.0,0.0,0.0,0.0,0.0,0.0,0.0,0.0,0.0,0.0,0.0,0.0,0.0,0.0,0.0,0.0,0.0,0.0,0.0,0.0,0.0,0.0,0.0,0.0,0.0,0.0,0.0,0.0,0.0,0.0,0.0,0.0,0.0,0.0,0.0,0.0,0.0,0.0,0.0,0.0,0.0,0.0,0.0,0.0,0.0,0.0,0.0,0.0,0.0,0.0,0.0,0.0,0.9463,0.9606,1.089,1.0802,1.047,0.98,1.0331,1.0759,1.0812,1.1103,0.0,0.0,0.0,0.0,0.0,0.0,0.0,0.0,0.0,0.0,0.0,0.0,0.0,0.0,0.0,0.0,0.0,0.0,0.0,0.0,0.0,0.0,0.0,0.0,0.0,0.0,0.0,0.0,0.0,0.0,0.0,0.0,0.0,0.0,0.0,0.0,0.0,0.0,0.0,0.0,0.0,0.0,0.0,0.0,0.0,0.0,0.0,0.0,0.0,0.0,0.0,0.0,0.0,0.0,0.0,0.0,0.0,0.0,0.0,0.0,0.0,0.0,0.0,0.0,0.0,0.0,0.0,0.0,0.0,0.0,0.0,0.0,0.0,0.0,0.0,0.0,0.0,0.0,0.0,0.0,0.0,0.0,0.0,0.0,0.0,0.0,0.0,0.0,0.0,0.0,0.0,0.0,0.0,0.0,0.0,0.0,0.0,0.0,0.0,0.0,0.0,0.0,0.8936,0.9451,0.0,1.0692,1.0247,0.9472,0.9817,1.0312,1.0762,0.0,0.0,0.0,0.0,0.0,0.0,0.0,0.0,0.0,0.0,0.0,0.0,0.0,0.0,0.0,0.0,0.0,0.0,0.0,0.0,0.0,0.0,0.0,0.0,0.0,0.0,0.0,0.0,0.0,0.0,0.0,0.0,0.0,0.0,0.0,0.0,0.0,0.0,0.0,0.0,0.0,0.0,0.0,0.0,0.0,0.0,0.0,0.0,0.0,0.0,0.0,0.0,0.0,0.0,0.0,0.0,0.0,0.0,0.0,0.0,0.0,0.0,0.0,0.0,0.0,0.0,0.0,0.0,0.0,0.0,0.0,0.0,0.0,0.0,0.0,0.0,0.0,0.0,0.0,0.0,0.0,0.0,0.0,0.0,0.0,0.0,0.0,0.0,0.0,0.0,0.0,0.0,0.0,0.0,0.0,0.0,0.0,0.0,0.0,0.0,0.0,0.0,0.7833,0.8269,0.8914,0.0,1.02,0.986,0.9158,0.9297,0.9795,1.064,0.0,0.0,0.0,0.0,0.0,0.0,0.0,0.0,0.0,0.0,0.0,0.0,0.0,0.0,0.0,0.0,0.0,0.0,0.0,0.0,0.0,0.0,0.0,0.0,0.0,0.0,0.0,0.0,0.0,0.0,0.0,0.0,0.0,0.0,0.0,0.0,0.0,0.0,0.0,0.0,0.0,0.0,0.0,0.0,0.0,0.0,0.0,0.0,0.0,0.0,0.0,0.0,0.0,0.0,0.0,0.0,0.0,0.0,0.0,0.0,0.0,0.0,0.0,0.0,0.0,0.0,0.0,0.0,0.0,0.0,0.0,0.0,0.0,0.0,0.0,0.0,0.0,0.0,0.0,0.0,0.0,0.0,0.0,0.0,0.0,0.0,0.0,0.0,0.0,0.0,0.0,0.0,0.0,0.0,0.0,0.0,0.0,0.0,0.0,0.0,0.0,0.0,0.7852,0.7542,0.7749,0.9524,0.9412,0.9064,0.8831,0.8742,0.9165,0.0,0.0,0.0,0.0,0.0,0.0,0.0,0.0,0.0,0.0,0.0,0.0,0.0,0.0,0.0,0.0,0.0,0.0,0.0,0.0,0.0,0.0,0.0,0.0,0.0,0.0,0.0,0.0,0.0,0.0,0.0,0.0,0.0,0.0,0.0,0.0,0.0,0.0,0.0,0.0,0.0,0.0,0.0,0.0,0.0,0.0,0.0,0.0,0.0,0.0,0.0,0.0,0.0,0.0,0.0,0.0,0.0,0.0,0.0,0.0,0.0,0.0,0.0,0.0,0.0,0.0,0.0,0.0,0.0,0.0,0.0,0.0,0.0,0.0,0.0,0.0,0.0,0.0,0.0,0.0,0.0,0.0,0.0,0.0,0.0,0.0,0.0,0.0,0.0,0.0,0.0,0.0,0.0,0.0,0.0,0.0,0.0,0.0,0.0,0.0,0.0,0.0,0.0,0.7172,0.726,0.7683,0.919,0.9236,0.9038,0.8544,0.8289,0.8564,0.9647,0.0,0.0,0.0,0.0,0.0,0.0,0.0,0.0,0.0,0.0,0.0,0.0,0.0,0.0,0.0,0.0,0.0,0.0,0.0,0.0,0.0,0.0,0.0,0.0,0.0,0.0,0.0,0.0,0.0,0.0,0.0,0.0,0.0,0.0,0.0,0.0,0.0,0.0,0.0,0.0,0.0,0.0,0.0,0.0,0.0,0.0,0.0,0.0,0.0,0.0,0.0,0.0,0.0,0.0,0.0,0.0,0.0,0.0,0.0,0.0,0.0,0.0,0.0,0.0,0.0,0.0,0.0,0.0,0.0,0.0,0.0,0.0,0.0,0.0,0.0,0.0,0.0,0.0,0.0,0.0,0.0,0.0,0.0,0.0,0.0,0.0,0.0,0.0,0.0,0.0,0.0,0.0,0.0,0.0,0.0,0.0,0.0,0.0,0.0,0.0,0.0,0.0,0.6703,0.6874,0.74,0.8889,0.9065,0.8878,0.8417,0.8103,0.8283,0.9167,0.0,0.0,0.0,0.0,0.0,0.0,0.0,0.0,0.0,0.0,0.0,0.0,0.0,0.0,0.0,0.0,0.0,0.0,0.0,0.0,0.0,0.0,0.0,0.0,0.0,0.0,0.0,0.0,0.0,0.0,0.0,0.0,0.0,0.0,0.0,0.0,0.0,0.0,0.0,0.0,0.0,0.0,0.0,0.0,0.0,0.0,0.0,0.0,0.0,0.0,0.0,0.0,0.0,0.0,0.0,0.0,0.0,0.0,0.0,0.0,0.0,0.0,0.0,0.0,0.0,0.0,0.0,0.0,0.0,0.0,0.0,0.0,0.0,0.0,0.0,0.0,0.0,0.0,0.0,0.0,0.0,0.0,0.0,0.0,0.0,0.0,0.0,0.0,0.0,0.0,0.0,0.0,0.0,0.0,0.0,0.0,0.0,0.0,0.0,0.0,0.0,0.0,0.6504,0.655,0.7058,0.858,0.8764,0.8651,0.8357,0.8083,0.8166,0.8833,0.0,0.0,0.0,0.0,0.0,0.0,0.0,0.0,0.0,0.0,0.0,0.0,0.0,0.0,0.0,0.0,0.0,0.0,0.0,0.0,0.0,0.0,0.0,0.0,0.0,0.0,0.0,0.0,0.0,0.0,0.0,0.0,0.0,0.0,0.0,0.0,0.0,0.0,0.0,0.0,0.0,0.0,0.0,0.0,0.0,0.0,0.0,0.0,0.0,0.0,0.0,0.0,0.0,0.0,0.0,0.0,0.0,0.0,0.0,0.0,1.2634,0.0,0.0,0.0,0.0,0.0,0.0,0.0,0.0,0.0,0.0,0.0,0.0,0.0,0.0,0.0,0.0,0.0,0.0,0.0,0.0,0.0,0.0,0.0,0.0,0.0,0.0,0.0,0.0,0.0,0.0,0.0,0.0,0.0,0.0,0.0,0.0,0.0,0.0,0.0,0.0,0.0,0.7256,0.7234,0.7467,0.8406,0.847,0.835,0.8049,0.7922,0.8078,0.8504,0.8517,0.0,0.0,0.0,0.0,0.0,0.0,0.0,0.0,0.0,0.0,0.0,0.0,0.0,0.0,0.0,0.0,0.0,0.0,0.0,0.0,0.0,0.0,0.0,0.0,0.0,0.0,0.0,0.0,0.0,0.0,0.0,0.0,0.0,0.0,0.0,0.0,0.0,0.0,0.0,0.0,0.0,0.0,0.0,0.0,0.0,0.0,0.0,0.0,0.0,0.0,0.0,0.0,0.0,0.0,0.0,0.0,0.0,0.0,0.0,0.0,1.2894,0.0,0.0,0.0,0.0,0.0,0.0,0.0,0.0,0.0,0.0,0.0,0.0,0.0,0.0,0.0,0.0,0.0,0.0,0.0,0.0,0.0,0.0,0.0,0.0,0.0,0.0,0.0,0.0,0.0,0.0,0.0,0.0,0.0,0.0,0.0,0.0,0.0,0.0,0.0,0.0,0.7511,0.7388,0.7505,0.8307,0.8504,0.8464,0.817,0.8143,0.821,0.8414,0.8427,0.0,0.0,0.0,0.0,0.0,0.0,0.0,0.0,0.0,0.0,0.0,0.0,0.0,0.0,0.0,0.0,0.0,0.0,0.0,0.0,0.0,0.0,0.0,0.0,0.0,0.0,0.0,0.0,0.0,0.0,0.0,0.0,0.0,0.0,0.0,0.0,0.0,0.0,0.0,0.0,0.0,0.0,0.0,0.0,0.0,0.0,0.0,0.0,0.0,0.0,0.0,0.0,0.0,1.3332,1.3135,1.3213,1.3135,1.2939,1.2686,1.2978,1.2764,1.2302,1.3274,0.0,0.0,0.0,0.0,0.0,0.0,0.0,0.0,0.0,0.0,0.0,0.0,0.0,0.0,0.0,0.0,0.0,0.0,0.0,0.0,0.0,0.0,0.0,0.0,0.8731,0.8584,0.0,0.0,0.0,0.0,0.0,0.0,0.0,0.0,0.0,0.0,0.0,0.0,0.777,0.7565,0.7603,0.8343,0.8591,0.8637,0.8397,0.8427,0.8397,0.8444,0.845,0.845,0.0,0.0,0.0,0.0,0.0,0.0,0.0,0.0,0.0,0.0,0.0,0.0,0.0,0.0,0.0,0.0,0.0,0.0,0.0,0.0,0.0,0.0,0.0,0.0,0.0,0.0,0.0,0.0,0.0,0.0,0.0,0.0,1.5016,1.5016,0.0,0.0,0.0,0.0,0.0,0.0,0.0,0.0,0.0,0.0,0.0,0.0,0.0,1.5295,1.5148,1.5056,1.4707,1.406,1.3965,1.417,1.4521,1.4141,1.415,1.4434,1.4111,0.0,1.2227,1.2934,0.0,0.0,0.0,0.0,0.0,0.0,0.0,0.0,0.0,0.0,0.0,0.0,0.0,0.0,0.0,0.0,0.0,0.0,0.0,0.0,0.0,0.0,0.8744,0.849,0.843,0.8337,0.0,0.8363,0.8677,0.8424,0.841,0.0,0.0,0.0,0.0,0.0,0.0,0.0,0.8547,0.8415,0.828,0.837,0.841,0.8417,0.8377,0.8427,0.8484,0.8738,0.8751,0.8751,0.8751,0.8784,0.0,0.0,0.0,0.0,0.0,0.0,0.0,0.0,0.0,0.0,0.0,0.0,0.0,0.0,0.0,0.0,0.0,0.0,0.0,0.0,0.0,0.0,0.0,0.0,0.0,0.0,0.0,0.0,0.0,1.5756,1.568,1.5379,1.5819,1.6073,0.0,0.0,0.0,0.0,0.0,0.0,0.0,0.0,0.0,1.6956,1.6933,1.6863,1.676,1.6278,1.5855,1.5546,1.5058,1.4951,1.5127,1.4932,1.4824,1.4775,1.458,1.4043,1.3281,1.3322,1.3143,1.2978,0.0,0.0,0.0,0.0,1.3152,1.2881,1.2881,1.2725,0.0,1.2803,0.0,0.0,0.0,0.0,0.0,0.0,0.0,0.0,0.0,0.0,0.8778,0.8651,0.8617,0.8584,0.845,0.8624,0.8717,0.0,0.851,0.8617,0.8617,0.0,0.0,0.0,0.0,0.8114,0.8718,0.8557,0.8427,0.8427,0.8517,0.855,0.839,0.8524,0.8671,0.8798,0.8804,0.8804,0.8804,0.8804,0.8804,0.0,0.0,0.0,0.0,0.0,0.0,0.0,0.0,0.0,0.0,0.0,0.0,0.0,0.0,0.0,0.0,0.0,0.0,0.0,0.0,0.0,0.0,0.0,0.0,0.0,0.0,0.0,0.0,1.6045,1.6107,1.5542,1.6095,1.6373,0.0,0.0,0.0,0.0,0.0,0.0,1.6761,1.7478,1.8143,1.8718,1.8993,1.8978,1.8811,1.7966,1.7338,1.699,1.6147,1.5811,1.5908,1.5801,1.5576,1.5273,1.5166,1.4805,1.4268,1.3848,1.3486,1.3193,1.3086,1.3105,1.3184,1.3076,1.3037,1.3037,1.3037,1.2764,1.2451,1.2773,1.256,1.2149,1.2318,0.0,0.0,0.0,0.0,0.9008,0.8857,0.8804,0.8804,0.8804,0.8804,0.8804,0.8804,0.8804,0.8717,0.0,0.855,0.8697,0.8697,0.0,0.0,0.0,0.0,0.8564,0.8778,0.8617,0.8484,0.8484,0.8677,0.8717,0.8504,0.8684,0.8804,0.8804,0.8804,0.8804,0.8804,0.8804,0.8804,0.8804,0.0,0.0,0.0,0.0,0.0,0.0,0.0,0.0,0.0,0.0,0.0,0.0,0.0,0.0,0.0,0.0,0.0,0.0,0.0,0.0,0.0,0.0,0.0,0.0,0.0,0.0,0.0,0.0,0.0,1.5016,1.5856,0.0,0.0,0.0,0.0,1.6337,1.6814,1.7333,1.7867,1.9034,1.9925,2.043,2.1539,2.1765,2.1033,2.0156,1.9138,1.7922,1.7026,1.6885,1.7275,1.6855,1.6587,1.6548,1.6182,1.5527,1.4717,1.4277,1.4038,1.398,1.3633,1.3721,1.397,1.3623,1.3477,1.3477,1.3477,1.3203,1.2852,1.2871,1.2384,1.1688,1.1116,1.0872,0.0,0.0,0.9762,0.9614,0.8956,0.8804,0.8804,0.8804,0.8804,0.8804,0.8804,0.8804,0.8717,0.0,0.8434,0.8397,0.8397,0.0,0.849,0.8764,0.8798,0.8791,0.8804,0.8791,0.8784,0.8784,0.8798,0.8798,0.8784,0.8798,0.8804,0.8804,0.8804,0.8804,0.8804,0.8804,0.8804,0.8804,0.8804,0.0,0.0,0.0,0.0,0.0,0.0,0.0,0.0,0.0,0.0,0.0,0.0,0.0,0.0,0.0,0.0,0.0,0.0,0.0,0.0,0.0,0.0,0.0,0.0,0.0,0.0,0.0,0.0,1.7036,1.7978,0.0,1.8067,1.803,1.8326,1.9089,1.9287,1.9813,2.0738,2.1876,2.2588,2.2786,2.3517,2.3792,2.3529,2.2333,2.1163,2.0149,1.8952,1.8147,1.7783,1.7627,1.7412,1.7129,1.668,1.6152,1.5576,1.5137,1.4629,1.4068,1.3912,1.3951,1.4058,1.3965,1.3916,1.3877,1.3603,1.3408,1.3242,1.2969,1.2715,1.2452,1.2206,1.1832,1.1416,1.1166,1.0762,1.0364,1.0167,0.9762,0.9465,0.9465,0.9106,0.8804,0.8804,0.8804,0.8778,0.8671,0.8651,0.8651,0.8651,0.8651,0.8691,0.8791,0.8804,0.8804,0.8804,0.8804,0.8804,0.8804,0.8804,0.8804,0.8804,0.8804,0.8804,0.8804,0.8804,0.8804,0.8804,0.8804,0.8804,0.8804,0.8804,0.8804,0.0,0.0,0.0,0.0,0.0,0.0,0.0,0.0,0.0,0.0,0.0,0.0,0.0,0.0,0.0,0.0,0.0,0.0,0.0,0.0,0.0,0.0,0.0,0.0,0.0,0.0,1.8618,1.8995,1.9823,2.0363,2.0363,2.0151,2.0441,2.1455,2.1663,2.2159,2.3065,2.4042,2.4531,2.4531,2.5084,2.5285,2.5084,2.3656,2.2556,2.1847,2.0435,1.9299,1.8462,1.8462,1.8041,1.7363,1.6924,1.6475,1.6086,1.5586,1.5078,1.4551,1.4666,1.4804,1.4869,1.4764,1.4713,1.458,1.3805,1.3506,1.3437,1.3018,1.2881,1.2881,1.2881,1.2559,1.2129,1.1864,1.1466,1.1065,1.0864,1.0312,0.9814,0.9814,0.9316,0.8804,0.8804,0.8804,0.8804,0.8804,0.8804,0.8804,0.8804,0.8804,0.8804,0.8804,0.8804,0.8804,0.8804,0.8804,0.8804,0.8804,0.8804,0.8804,0.8804,0.8804,0.8804,0.8804,0.8804,0.8804,0.8804,0.8804,0.8804,0.8804,0.848,0.8378,0.8438,0.0,0.0,0.0,0.0,0.0,0.0,0.0,0.0,0.0,0.0,0.0,0.0,0.0,0.0,0.0,0.0,0.0,0.0,0.0,0.0,0.0,0.0,0.0,1.8204,1.8744,1.9522,2.0589,2.123,2.1594,2.1594,2.2096,2.2648,2.3201,2.3753,2.4318,2.487,2.536,2.5624,2.5624,2.6163,2.6189,2.5624,2.4244,2.3251,2.2674,2.1289,2.0139,1.9299,1.9299,1.8609,1.7363,1.6924,1.6475,1.6086,1.5586,1.541,1.5429,1.5759,1.6129,1.6419,1.6014,1.589,1.5635,1.4059,1.3506,1.3418,1.3018,1.2881,1.2881,1.2881,1.2881,1.2764,1.203,1.1814,1.1665,1.1015,1.0364,0.9814,0.9814,0.9309,0.8804,0.8804,0.8804,0.8804,0.8804,0.8804,0.8804,0.8804,0.8804,0.8804,0.8804,0.8804,0.0,0.8804,0.8804,0.8804,0.8804,0.8804,0.8804,0.8804,0.8804,0.8804,0.8804,0.8804,0.8804,0.8804,0.8804,0.8804,0.8804,0.7889,0.7554,0.7692,0.0,0.0,0.0,0.0,0.0,0.0,0.0,0.0,0.0,0.0,0.0,0.0,0.0,0.0,0.0,0.0,0.0,0.0,0.0,0.0,0.0,1.7589,1.8204,1.8204,2.0049,2.1518,2.182,2.3075,2.3904,2.3904,2.4381,2.4933,2.5498,2.5699,2.6025,2.6578,2.6364,2.6226,2.6226,2.6445,2.6445,2.6226,2.5074,2.4047,2.3275,2.2115,2.0782,1.9299,1.9299,1.8609,1.7363,1.6924,1.6475,1.6086,1.5586,1.541,1.54,1.5494,1.5459,1.5309,1.5499,1.5159,1.4536,1.4096,1.3564,1.3037,1.292,1.2881,1.2881,1.2881,1.2881,1.2881,1.2666,1.2608,1.2559,1.2363,1.1434,1.0517,1.0517,0.9666,0.8804,0.8804,0.8804,0.8804,0.8804,0.8804,0.8804,0.8804,0.8804,0.8804,0.8804,0.8804,0.0,0.8804,0.8804,0.8804,0.8804,0.8804,0.8804,0.8804,0.8804,0.8804,0.8804,0.8804,0.8804,0.8804,0.8804,0.8804,0.8804,0.8533,0.8238,0.0,0.0,0.0,0.0,0.0,0.0,0.0,0.0,0.0,0.0,0.0,0.0,0.0,0.0,0.0,0.0,0.0,0.0,0.0,0.0,0.0,0.0,1.8573,1.9321,1.9547,2.1154,2.2573,2.3276,2.4418,2.5247,2.5485,2.5774,2.6101,2.6496,2.6533,2.6672,2.6917,2.6697,2.6533,2.6533,2.6533,2.6352,2.6101,2.5247,2.4437,2.3713,2.2797,2.1424,1.9576,1.9576,1.8635,1.709,1.6641,1.6309,1.6086,1.5586,1.541,0.0,0.0,0.0,0.0,0.0,1.4815,1.4058,1.3936,1.3555,1.3115,1.2939,1.2881,1.2881,1.2881,1.2881,1.2881,1.2881,1.2881,1.2881,1.2881,1.185,1.0813,1.0813,0.9762,0.8804,0.8804,0.8804,0.8804,0.8804,0.8804,0.0,0.8804,0.8804,0.8804,0.8804,0.8804,0.8804,0.8804,0.8804,0.8804,0.8804,0.8804,0.8804,0.8804,0.8804,0.0,0.0,0.0,0.8804,0.8804,0.848,0.0,0.0,0.0,0.7555,0.7673,0.0,0.0,0.0,0.6665,0.6161,0.0,0.0,0.0,0.0,0.0,0.0,0.0,0.0,0.0,0.0,0.0,0.0,0.0,0.0,0.0,0.0,1.9673,2.0903,2.1581,2.2146,2.3088,2.4644,2.5335,2.59,2.6483,2.6584,2.6622,2.6622,2.6622,2.6622,2.6622,0.0,0.0,0.0,0.0,2.6189,2.5598,2.5084,2.4544,2.3991,2.3414,2.2056,2.0115,1.9997,1.8781,1.6825,1.6321,1.6096,1.5957,1.5566,1.541,1.5459,1.6089,1.6071,1.5656,1.5238,1.4653,1.3951,1.3633,0.0,0.0,1.2998,1.2881,1.2881,1.2881,1.2881,1.2881,1.2881,1.2881,1.2891,1.2939,1.1913,1.0887,1.0929,0.9874,0.8905,0.8905,0.8905,0.8905,0.8905,0.8878,0.8858,0.8858,0.8831,0.8804,0.8804,0.8804,0.8804,0.8804,0.8804,0.8804,0.8804,0.0,0.0,0.8804,0.8804,0.8824,0.8851,0.8884,0.8905,0.8905,0.8249,0.7919,0.7919,0.6793,0.6643,0.7444,0.6917,0.7049,0.7827,0.674,0.5993,0.0,0.0,0.0,0.0,0.0,0.0,0.0,0.0,0.0,0.0,0.0,0.0,0.0,0.0,0.0,1.9146,2.015,2.1167,2.2611,2.3314,2.3954,2.4732,2.5686,2.6339,2.6521,2.6866,2.713,2.713,2.713,2.713,2.713,2.6773,2.6533,2.6533,2.6533,2.6189,2.5598,2.5084,2.4544,2.3991,0.0,0.0,2.1463,2.0403,1.9091,1.7667,1.6546,1.5859,1.5527,1.5449,1.541,1.5381,1.5209,1.4849,1.4453,1.4364,1.4011,1.3613,1.3535,1.3281,1.2988,1.291,1.2881,1.2881,1.2881,1.2881,0.0,1.2881,1.2881,1.2959,1.3301,1.2319,1.128,1.1614,1.0606,0.9512,0.9512,0.9512,0.9512,0.9512,0.9319,0.9103,0.9103,0.8965,0.8804,0.8804,0.8804,0.8804,0.8804,0.8804,0.8804,0.8804,0.8804,0.8804,0.8804,0.8804,0.8911,0.909,0.9385,0.9512,0.9512,0.9398,0.9335,0.9335,0.9093,0.8776,0.8537,0.8399,0.7855,0.6915,0.6681,0.6555,0.0,0.0,0.0,0.0,0.0,0.0,0.0,0.0,0.0,0.0,0.0,1.5742,1.6337,0.0,1.8561,1.9997,2.0941,2.1882,2.2975,2.364,2.4205,2.4757,2.5536,2.6138,2.6496,2.6703,2.6866,2.6866,2.6866,2.6866,2.6866,2.6684,2.6533,2.6533,2.6533,2.6189,2.5598,2.5084,2.4544,2.3991,2.3414,2.2554,2.1522,2.0205,1.8912,1.7606,1.6327,1.5615,1.541,1.541,1.5283,1.5098,1.5098,1.4697,1.4029,1.3662,1.3506,1.3506,1.3506,1.3369,1.3193,1.3193,1.3047,1.2881,1.2881,1.3027,1.3193,1.3193,1.335,1.3555,1.3769,1.2725,1.1672,1.1853,1.0793,0.9686,0.9686,0.9686,0.9686,0.9686,0.9446,0.9183,0.9183,0.8998,0.8804,0.8804,0.8804,0.8804,0.8804,0.8804,0.8864,0.9011,0.9025,0.9085,0.9232,0.9245,0.9305,0.9452,0.9599,0.9686,0.9686,0.9324,0.9149,0.9149,0.8848,0.8739,0.8924,0.8998,0.8684,0.7962,0.7567,0.6854,0.0,0.0,0.0,0.0,0.0,0.0,0.0,0.0,1.5942,1.6008,1.6397,1.693,1.7533,1.8833,2.0024,2.0769,2.1656,2.2498,2.3002,2.354,2.4042,2.4594,2.5121,2.5674,2.6239,2.6302,2.6339,2.6521,2.6533,2.6533,2.6533,2.6533,2.6483,2.6302,2.6302,2.5963,2.5297,2.487,2.4381,2.3828,2.3364,2.2588,2.1524,2.0095,1.8811,1.767,1.6095,1.5459,1.5527,1.5352,1.5137,1.4922,1.5098,1.4795,1.418,1.3506,1.3418,1.3633,1.3633,1.3633,1.3613,1.3535,1.3281,1.2998,1.2998,1.3242,1.3474,1.3397,1.371,1.4097,1.4013,1.3131,1.2187,1.2149,1.1095,1.0082,0.9912,0.9853,0.9873,0.9927,0.9653,0.9376,0.9486,0.9205,0.8938,0.8824,0.8851,0.8891,0.8891,0.8945,0.9065,0.9299,0.9325,0.9426,0.9659,0.9733,0.9766,0.9766,0.982,0.9853,0.9853,0.9307,0.9003,0.9003,0.8521,0.8623,0.9321,0.9539,0.9473,0.9085,0.8401,0.7254,1.1552,1.2537,1.3382,1.4535,1.5289,1.6057,0.0,0.0,1.7347,1.779,1.7949,1.8172,1.8721,1.9359,2.015,2.1217,2.1907,2.2498,2.3002,2.3188,2.3439,2.4017,2.4569,2.5109,2.5636,2.5686,2.59,2.6496,2.6533,2.6533,2.6533,2.6533,2.6226,2.5711,2.5686,2.5209,2.418,2.4117,2.3803,2.3226,2.3103,2.304,2.2832,2.0799,1.9565,1.8929,1.6451,1.5635,1.5928,1.5166,1.5049,1.5264,1.4561,1.4453,1.4697,1.4609,1.4355,1.4009,1.4009,1.4009,1.3951,1.3633,1.3477,1.3437,1.3437,1.3467,1.343,1.3085,1.3493,1.4057,1.3755,1.3507,1.3301,1.2982,1.221,1.1367,1.0642,1.0524,1.0598,1.0795,1.0401,1.01,1.0367,0.9953,0.9412,0.8884,0.9025,0.9137,0.9137,0.9419,0.9599,0.9633,0.9633,0.9646,0.9679,0.992,1.0067,1.0067,1.0314,1.0524,1.0524,1.0398,1.0398,1.0398,1.0299,1.0312,1.0445,1.0665,0.994,0.8337,0.8462,0.7792,1.0972,1.2706,0.0,0.0,1.584,1.6886,1.7689,1.7865,1.8016,1.8568,1.8681,1.8844,1.9384,1.9936,2.0564,0.0,2.1681,2.202,2.2573,2.2385,2.2146,2.2071,2.2548,2.3477,2.4996,2.5146,2.5247,2.5485,2.5498,2.5498,2.5498,2.5498,2.5398,2.5159,2.5146,2.4933,2.4481,2.4155,2.3879,2.364,2.3301,2.3078,2.3053,2.1379,1.9886,1.8451,1.687,1.6143,1.6096,1.5733,1.5478,1.5371,1.5019,1.499,1.5088,1.459,1.4453,1.4512,1.4512,1.4512,1.4482,1.4307,1.4082,1.3877,1.3877,1.4053,1.4282,1.4354,1.4764,1.5177,1.4739,1.4215,1.3697,1.2971,1.2159,1.1511,1.1128,1.1062,1.1102,1.1223,1.0909,1.0668,1.0788,1.0321,0.9853,0.9606,0.9526,0.9499,0.9499,0.9452,0.9492,0.9666,0.9987,1.0194,1.0194,1.0307,1.0181,0.9681,0.9787,0.9588,0.9128,0.9064,0.9064,0.9064,0.9064,0.9064,0.9064,0.9167,0.8624,0.7309,0.7453,0.7,1.1151,0.0,0.0,1.5306,1.6417,1.7564,1.8267,1.843,1.8543,1.8895,1.8983,1.9145,1.9522,1.9936,2.0439,2.1154,2.1255,2.1455,2.2008,2.1606,2.1117,2.0769,2.0878,2.1719,2.3502,2.3954,2.4255,2.4569,2.4594,2.4657,2.4808,2.482,2.4757,2.4594,2.4594,2.4519,2.4356,2.3966,2.3753,2.3753,2.3339,2.3078,2.3053,2.15,1.9789,1.7924,1.708,1.6611,1.6478,1.6299,1.6064,1.5771,1.5771,1.5771,1.5693,1.5021,1.4893,1.4961,1.4961,1.4961,1.4941,1.4824,1.4648,1.4437,1.4437,1.4617,1.4811,1.4971,1.5237,1.5348,1.4733,1.4354,1.388,1.2938,1.2237,1.1799,1.1443,1.1423,1.145,1.153,1.1309,1.1136,1.1216,1.0815,1.0448,1.0374,1.018,0.9987,0.9826,0.9686,0.9653,0.9786,1.0254,1.0624,1.0624,1.0364,0.9977,0.9338,0.9075,0.8683,0.8027,0.8027,0.8027,0.8027,0.8027,0.8027,0.8027,0.8088,0.7687,0.681,0.6861,0.6513,0.0,0.0,1.5128,1.6178,1.6936,1.7664,1.8756,1.8958,1.8958,1.8983,1.8983,1.8983,1.8995,1.907,1.9434,2.0514,2.0743,2.0932,2.1443,2.1041,2.0743,2.0718,2.0188,2.01,0.0,2.1757,2.2836,2.3941,2.4017,2.4255,2.4795,2.482,2.4569,2.4042,2.4017,2.3753,2.3128,2.3115,2.3103,2.3103,2.3078,2.3078,2.3053,2.088,1.9222,1.792,1.709,1.6963,1.7314,1.6885,1.6636,1.6626,1.6626,1.6626,1.6689,1.6597,1.6123,1.5391,1.5391,1.5391,1.5322,1.4922,1.5049,1.5371,1.5371,1.5068,1.4604,1.4275,1.4065,1.381,1.2975,1.3543,1.4042,1.2923,1.2883,1.2745,1.1621,1.1423,1.151,1.1797,1.1617,1.1503,1.179,1.159,1.1289,1.1009,1.0962,1.0748,1.0174,1.0347,1.0414,1.0134,1.0381,1.0624,1.0624,0.9849,0.9338,0.9274,0.8484,0.8027,0.8027,0.8027,0.8027,0.8027,0.8027,0.8027,0.8027,0.8241,0.7912,0.7066,0.7385,0.7057,1.3353,0.0,1.6872,1.7965,1.8695,1.9287,2.0005,1.957,1.8983,1.8983,1.8744,1.848,1.848,1.848,1.8832,1.9911,1.9798,1.9761,2.0288,2.0213,1.9698,1.8618,1.9258,0.0,0.0,0.0,0.0,2.2284,2.2673,2.2962,2.315,2.3502,2.3615,2.3427,2.3427,2.315,2.2585,2.2585,2.2585,2.2585,2.2902,2.2823,2.2249,2.0991,1.9792,1.8834,1.7962,1.75,1.7373,1.7227,1.6992,1.6665,1.6665,1.6665,1.6665,1.6665,1.648,1.624,1.5947,1.584,1.582,1.5743,1.5928,1.6289,1.6289,1.5735,1.514,1.527,1.4832,1.4155,1.3497,1.3641,1.3675,1.2931,1.2822,1.2852,1.2661,1.2612,1.2639,1.2739,1.2512,1.2331,1.2513,1.2044,1.1557,1.1062,1.0828,1.0561,1.0167,1.0374,1.0448,1.0147,1.0381,1.0364,0.9786,0.9466,0.8812,0.7632,0.7307,0.6854,0.6276,0.6272,0.6272,0.6272,0.6272,0.6332,0.6384,0.6511,0.6418,0.623,0.6353,0.6193,1.444,1.6328,1.8195,1.891,1.9642,2.0213,2.0174,1.9557,1.8808,1.8207,1.7803,1.7427,1.7057,1.6983,1.7328,1.8425,1.8323,1.8455,1.9397,1.9359,1.892,1.8066,1.8719,1.9032,0.0,0.0,0.0,2.1142,2.1707,2.202,2.202,2.2535,2.2836,2.2836,2.2977,2.2902,2.2611,2.2611,2.2421,2.2172,2.2529,2.2063,2.0974,2.0398,1.9694,1.8787,1.8269,1.7852,1.7607,1.7607,1.7441,1.7187,1.7187,1.7187,1.7122,1.6777,1.6542,1.6389,1.6198,1.5969,1.5818,1.5676,1.5757,1.5881,1.5881,1.5371,1.4782,1.5009,1.4453,1.361,1.3252,1.3343,1.3386,1.2878,1.2913,1.3093,1.3186,1.3213,1.3213,1.3213,1.2959,1.2822,1.2822,1.2331,1.1744,1.1363,1.0969,1.0568,1.0167,1.0374,1.0448,1.0147,1.0381,1.0238,0.9402,0.9011,0.8221,0.6785,0.6396,0.6009,0.5428,0.5428,0.5428,0.5428,0.5428,0.5437,0.5589,0.5589,0.5691,0.5881,0.5881,0.5911,1.5591,1.7427,1.9082,1.9107,1.9875,2.0366,1.9309,1.8932,1.8369,1.6829,1.6386,1.5968,0.0,0.0,1.5132,1.6252,1.65,1.7117,1.8707,1.8532,1.8407,0.0,0.0,0.0,0.0,0.0,0.0,2.0643,0.0,2.1443,2.1443,2.197,2.2272,2.2272,2.2739,2.2955,2.2917,2.2955,2.2531,2.1779,2.1803,2.091,1.9299,1.9299,1.8854,1.8008,1.8008,1.8008,1.8008,1.8008,1.8008,1.8008,1.8008,1.794,1.7794,1.6922,1.6323,1.5882,1.5961,1.5682,1.523,1.48,1.4598,1.4506,1.4506,1.412,1.3673,1.3673,1.3025,1.2305,1.2318,1.2752,1.312,1.2852,1.3227,1.3492,1.3313,1.3174,1.3167,1.3167,1.2915,1.2759,1.2726,1.2258,1.1891,1.187,1.1383,1.0808,1.0234,1.0394,1.0454,1.0167,1.0388,1.0238,0.9332,0.8484,0.7632,0.6719,0.5888,0.5439,0.5439,0.5439,0.5442,0.5452,0.5446,0.5454,0.5613,0.5613,0.5759,0.604,0.604,0.6115,1.6683,1.8321,1.9852,2.0247,2.0247,2.0113,1.9826,1.7898,1.621,1.6384,1.523,1.4293,0.0,0.0,0.0,1.6219,1.6786,0.0,1.8294,1.851,0.0,1.764,0.0,1.91,1.8823,2.0032,0.0,0.0,2.0857,2.092,2.092,2.1393,2.1694,2.1694,2.1614,2.1332,2.0935,2.0696,2.0453,2.0279,2.0728,2.0333,1.9299,1.9299,1.8854,1.8008,1.8008,1.8008,1.8008,1.8008,1.8008,1.8008,1.8008,1.7569,1.6922,1.6706,1.6079,1.5306,1.5035,1.4798,1.4664,1.4572,1.4788,1.5023,1.5023,1.4379,1.3673,1.3673,1.3025,1.2351,1.2579,1.2822,1.2959,1.3327,1.3534,1.3687,1.3828,1.3169,1.2565,1.2565,1.2188,1.1739,1.1338,1.1835,1.2118,1.1904,1.1557,1.1182,1.0815,1.0648,1.0598,1.0454,1.0577,0.9977,0.8484,0.8156,0.7377,0.5815,0.5602,0.5532,0.5532,0.5532,0.5583,0.5688,0.5586,0.5657,0.5918,0.5918,0.6017,0.6203,0.6203,0.6162,1.7376,1.8805,1.9995,2.0268,2.0114,1.9675,1.8725,1.6831,1.5168,1.4653,1.355,0.0,1.2971,1.3118,1.3566,0.0,0.0,0.0,1.7159,1.7478,1.7526,0.0,1.8139,0.0,1.8255,1.9152,1.9653,0.0,1.9897,2.0096,1.9851,2.0367,2.055,2.0201,2.0676,2.0793,2.0372,2.0206,1.9902,1.9532,1.9878,1.9562,1.8721,1.8721,1.8462,1.8008,0.0,1.8008,1.794,1.7579,1.7354,1.7354,1.6941,1.6437,1.593,1.5508,1.5013,1.4426,1.3734,1.3525,1.3573,1.3778,1.3893,1.3947,1.3947,1.3623,1.3305,1.3305,1.3037,1.2705,1.2815,1.2946,1.3193,1.34,1.3647,1.3708,1.3347,1.2766,1.2088,1.1361,1.0935,1.0718,1.0778,1.1242,1.1717,1.2005,1.181,1.1563,1.1396,1.0895,1.0624,1.0624,1.0624,0.9907,0.8156,0.8027,0.7246,0.5491,0.5443,0.5518,0.5586,0.5589,0.5657,0.5796,0.5725,0.5796,0.603,0.603,0.6108,0.6338,0.6338,0.6213,1.7609,1.8883,1.9698,1.9698,1.9534,1.8871,1.6951,1.5522,1.4122,1.238,0.0,1.0985,1.0613,1.0849,1.1414,1.2311,0.0,1.3784,1.5731,1.5857,1.6192,1.7257,1.7357,1.7424,1.7557,1.7678,1.7734,1.7734,1.864,1.8983,1.8578,1.9057,1.903,1.8427,1.9909,2.0511,2.0268,2.0268,1.9879,1.911,1.911,1.8721,1.8008,1.8008,1.8008,1.8008,1.8008,1.8008,1.794,1.6991,1.6636,1.6498,1.5587,1.5092,1.4879,1.4027,1.36,1.3382,1.2592,1.2305,1.2405,1.2856,1.2669,1.2305,1.2305,1.2512,1.2746,1.2586,1.2888,1.3074,1.2602,1.2922,1.3254,1.2965,1.3289,1.3385,1.2334,1.1958,1.137,0.9774,0.9448,0.9704,1.0304,1.0634,1.1087,1.1996,1.1979,1.1864,1.1721,1.1102,1.0739,1.0739,1.0739,1.0001,0.8398,0.8132,0.7339,0.569,0.5463,0.5481,0.5613,0.5637,0.5715,0.5861,0.584,0.5908,0.6061,0.6061,0.6129,0.6338,0.6338,0.6338,1.7099,1.8302,1.9171,1.9171,1.8153,1.6939,1.6134,1.3137,0.0,0.0,0.9423,0.8105,0.859,0.9369,1.0138,1.0707,1.1865,1.3184,1.4577,1.4184,1.4316,0.0,1.6078,1.6394,1.7333,1.7964,0.0,0.0,1.7508,1.7233,1.7743,1.7877,1.7967,1.7888,1.8573,1.8772,1.8462,1.8462,1.8405,1.8202,1.8202,1.8144,1.8008,1.8008,1.8008,1.8008,1.8008,0.0,1.794,1.6991,1.6636,1.6498,1.5587,1.4665,1.3954,1.3745,1.3237,1.2519,1.2378,1.2305,1.2291,1.2384,1.2405,1.2305,1.2305,1.2512,1.2586,1.1569,1.2251,1.2842,1.1122,1.1387,1.1993,1.1229,1.1155,1.1128,1.0956,1.0037,0.8923,0.7552,0.7858,0.8304,0.834,0.9734,1.0858,1.1013,1.1537,1.1572,1.0767,1.1025,1.1276,1.1276,1.1276,1.0766,0.953,0.877,0.7817,0.6535,0.5996,0.5735,0.5766,0.5884,0.6023,0.6179,0.6054,0.6064,0.622,0.622,0.6234,0.6338,0.6338,0.6338,1.5343,1.6569,1.7633,1.7906,1.6973,1.559,1.4002,0.0,0.0,0.0,0.7556,0.639,0.689,0.7666,0.0,0.8756,0.9475,1.0536,1.2063,1.1811,1.214,1.397,1.4155,1.4366,1.5021,1.5407,1.5635,1.5635,1.5058,1.5352,1.6922,1.6931,1.7141,1.778,1.7889,1.7955,1.8008,1.8008,1.8008,1.8008,1.8008,1.8008,1.8008,1.7501,1.7285,1.7217,1.6724,1.6515,1.6446,1.5508,1.5084,1.5013,1.4091,1.3375,1.2952,1.2952,1.2659,1.2224,1.1694,1.1539,1.1391,1.0944,1.1093,1.1539,1.1539,1.1356,1.1051,1.0543,1.1078,1.1466,1.0507,1.07,1.1043,1.0529,1.0014,0.9753,0.9753,0.8656,0.755,0.6812,0.6975,0.7367,0.7735,0.8609,0.9437,0.9965,1.0319,1.0392,0.9876,1.0143,1.0396,1.061,1.0648,1.0461,0.9929,0.9017,0.803,0.6949,0.6157,0.5725,0.5796,0.5871,0.602,0.6331,0.6186,0.6186,0.6338,0.6338,0.6338,0.6338,0.6338,0.6338,1.3238,1.4687,1.5855,1.6417,1.5709,1.4399,1.2397,1.1325,0.0,0.0,0.5732,0.4743,0.5318,0.0,0.6369,0.0,0.6943,0.7715,0.9386,0.9385,0.9858,0.0,1.1802,0.0,1.2379,1.2482,0.0,1.2792,1.3059,1.4048,1.6052,1.6287,1.6805,1.7698,1.7386,1.7389,1.7716,1.751,1.7373,1.7373,1.7373,1.7373,1.7373,1.6645,1.628,1.628,1.5517,1.5234,0.0,1.4099,1.3673,1.36,1.2659,1.2345,1.2398,1.2398,1.2282,1.2022,1.1196,1.0721,1.0408,0.9533,0.982,1.049,1.049,1.0133,0.967,0.956,0.9935,1.0282,0.9663,0.9885,1.0139,0.963,0.9035,0.854,0.854,0.7631,0.6881,0.6729,0.6603,0.6711,0.741,0.7687,0.8146,0.8909,0.9175,0.9221,0.8993,0.8998,0.9085,0.9444,0.9619,0.9808,0.9833,0.8907,0.7972,0.7155,0.6216,0.5735,0.5844,0.5881,0.6013,0.6331,0.6338,0.6338,0.6338,0.6338,0.6338,0.6338,0.6264,0.6264,1.1263,1.328,1.4438,1.4977,1.4039,1.2948,1.3038,0.0,0.6603,0.5551,0.3634,0.2454,0.3624,0.0,0.0,0.0,0.0,0.6223,0.749,0.7199,0.7635,0.9569,0.0,0.0,1.0554,1.0769,1.1189,1.2123,1.3178,1.4165,1.5019,1.6478,1.7341,1.7445,1.6945,1.6669,1.6706,1.5869,1.5446,1.5446,1.5446,1.5446,1.5446,1.5376,1.5305,1.5305,1.5234,1.5234,0.0,1.4099,1.3673,1.36,1.2659,1.2472,1.2782,1.2782,1.2241,1.1544,1.1235,1.0523,0.9549,0.9362,0.9372,0.9448,0.9448,0.953,0.9513,0.8598,0.9363,0.9897,0.7948,0.8177,0.8798,0.7647,0.7305,0.7228,0.7228,0.7114,0.6881,0.6729,0.6688,0.663,0.6638,0.7395,0.8019,0.8098,0.8807,0.8998,0.8084,0.7936,0.7918,0.796,0.8784,0.9219,0.8927,0.8121,0.7462,0.7137,0.6419,0.5993,0.601,0.6142,0.6234,0.6261,0.6338,0.6338,0.6338,0.6338,0.6338,0.6338,0.6271,0.6278,0.6844,0.9671,1.192,1.2158,1.1425,1.0604,1.0346,0.0,0.3518,0.2271,0.0941,0.0319,0.1478,0.2223,0.0,0.0,0.0,0.0,0.5404,0.5552,0.6231,0.7965,0.7913,0.0,0.0,0.0,0.9376,0.9864,1.1011,1.2095,1.3005,1.4715,1.5654,1.5654,1.5739,1.5687,1.5455,1.511,1.4902,1.4902,1.4902,1.5018,1.5163,1.4593,1.4314,1.4243,1.3665,1.3448,0.0,1.2338,1.197,1.1896,1.087,1.0564,1.0726,1.0726,1.0483,1.0087,0.9381,0.8889,0.8335,0.7727,0.748,0.7629,0.8237,0.8138,0.7697,0.7319,0.7666,0.7946,0.7281,0.7432,0.7698,0.717,0.7109,0.7071,0.7064,0.7061,0.7032,0.697,0.6783,0.6648,0.6664,0.6962,0.7204,0.7033,0.7293,0.7336,0.695,0.6858,0.6872,0.6872,0.7783,0.858,0.909,0.8262,0.7588,0.7325,0.6508,0.603,0.603,0.6088,0.6166,0.6335,0.6338,0.6338,0.6338,0.6338,0.6264,0.6271,0.6278,0.564,0.398,0.6556,0.8891,0.9921,1.0162,0.9628,0.0,0.0,0.1264,-0.0658,-0.1513,-0.1661,-0.0925,-0.0048,0.0,0.0,0.0,0.3159,0.3927,0.4465,0.5204,0.6324,0.0,0.675,0.7219,0.7423,0.7599,0.778,0.8944,0.9905,1.0635,1.2354,1.3754,1.4706,1.4749,1.4568,1.4275,1.3777,1.3492,1.3415,1.32,1.316,1.3404,1.2691,1.2558,1.2785,1.1835,1.1545,0.0,1.0789,1.034,1.0265,0.9599,0.9337,0.9392,0.9392,0.9279,0.8937,0.819,0.7712,0.7328,0.6588,0.6298,0.6404,0.7126,0.6954,0.6451,0.6538,0.6139,0.5735,0.6039,0.6097,0.6088,0.6054,0.6069,0.5927,0.5257,0.5119,0.5057,0.5022,0.5331,0.5518,0.5401,0.5667,0.5695,0.5524,0.541,0.5577,0.6244,0.6314,0.6307,0.6264,0.6954,0.7622,0.8318,0.7783,0.7275,0.7143,0.6468,0.6098,0.6098,0.6098,0.6149,0.6257,0.6338,0.6338,0.6338,0.6264,0.6271,0.6278,0.6288,0.4781,0.3685,0.4506,0.5391,0.8838,1.091,1.0759,0.0,0.0,0.008,-0.295,-0.3551,-0.3551,-0.3554,-0.2598,-0.1383,-0.0178,0.0,0.0,0.3292,0.4131,0.4485,0.0,0.4751,0.5029,0.5418,0.57,0.5978,0.6276,0.7398,0.0,0.8029,0.9668,1.2029,1.5076,1.4243,1.3588,1.3337,1.1559,1.0557,1.0401,0.954,0.9221,0.9372,0.9372,0.9895,1.0783,0.9744,0.9895,0.0,0.9744,0.9296,0.9301,0.9296,0.9433,0.9698,0.9698,0.9119,0.8367,0.8272,0.7517,0.6561,0.6407,0.6307,0.6327,0.6339,0.6288,0.6315,0.6314,0.5035,0.3655,0.3641,0.3659,0.3641,0.3656,0.364,0.301,0.0836,0.0333,0.033,0.0322,0.1584,0.2652,0.2513,0.3068,0.3639,0.3639,0.3313,0.394,0.6065,0.6319,0.6264,0.629,0.6273,0.6288,0.6352,0.6338,0.6338,0.6335,0.6335,0.6257,0.6257,0.6257,0.6335,0.6338,0.6338,0.6338,0.6338,0.6274,0.6278,0.6278,0.6312,0.4014,0.1169,0.1504,0.1941,0.3172,0.4091,0.4375,0.3122,0.0565,-0.1923,-0.3133,-0.381,-0.4056,-0.3674,-0.3423,-0.3055,-0.2528,-0.1181,0.0,0.0,0.0,0.0,0.2895,0.1965,0.1746,0.0,0.0,0.2464,0.4001,0.4147,0.4828,0.632,0.6968,0.8634,1.1587,1.2239,1.1968,1.0844,1.03,0.9685,0.905,0.8774,0.8754,0.898,0.9066,0.9359,0.9658,0.9381,0.9448,0.0,0.8689,0.8403,0.8498,0.7573,0.7305,0.7356,0.7356,0.7238,0.6961,0.6913,0.6667,0.611,0.4628,0.4088,0.4351,0.5846,0.5407,0.4676,0.597,0.3783,0.0355,-0.286,-0.3673,-0.3293,-0.1391,-0.1123,-0.146,-0.193,-0.3178,-0.4281,-0.4486,-0.4114,-0.3293,-0.1918,-0.1493,-0.1323,-0.1323,-0.1038,-0.0597,0.0085,0.1092,0.2076,0.3144,0.3225,0.4074,0.6136,0.6274,0.6274,0.6274,0.6274,0.6278,0.6285,0.6285,0.6285,0.6285,0.6285,0.6285,0.6285,0.6288,0.6298,0.6234,0.3301,0.1268,0.0,-0.04,-0.082,-0.0665,-0.085,-0.0899,0.0,0.0,-0.3889,-0.3906,-0.4354,-0.4679,-0.4447,-0.4735,-0.4741,-0.3951,-0.2562,-0.1194,0.0,0.0,0.0,-0.1047,0.0,0.0,0.0,-0.1065,-0.0785,-0.0145,0.0922,0.2109,0.347,0.4815,0.641,0.8293,0.9955,1.0355,0.9315,0.8992,0.8572,0.7936,0.7592,0.7516,0.7708,0.7762,0.8161,0.869,0.8222,0.0,0.0,0.7785,0.7354,0.7351,0.572,0.5054,0.5096,0.5096,0.5096,0.5096,0.5096,0.5659,0.6067,0.4711,0.4316,0.3929,0.1899,0.1683,0.2122,0.1431,-0.0517,-0.2904,-0.5188,-0.6447,-0.6659,-0.4969,-0.4688,-0.4732,-0.4502,-0.551,-0.6492,-0.6612,-0.6711,-0.6285,-0.5024,-0.4891,-0.4919,-0.4919,-0.4592,-0.4374,-0.4374,-0.3535,-0.2555,-0.1692,-0.076,0.0663,0.2852,0.5075,0.6267,0.6288,0.5565,0.509,0.5096,0.5096,0.5096,0.5096,0.5096,0.5096,0.5096,0.5902,0.546,0.383,0.1194,0.0,0.0,-0.1478,-0.2773,-0.2765,-0.3766,-0.4613,-0.3944,0.0,0.0,-0.5025,-0.5151,-0.5417,-0.5636,-0.6305,-0.6275,-0.4552,-0.3902,-0.2862,0.0,-0.3585,0.0,0.0,-0.6067,0.0,-0.5891,-0.4119,-0.3666,-0.529,-0.2273,-0.027,-0.0,0.3451,0.54,0.5401,0.7658,0.8734,0.8439,0.7794,0.7296,0.6991,0.614,0.5786,0.5786,0.5789,0.6523,0.0,0.6382,0.0,0.0,0.6872,0.6016,0.5682,0.3693,0.2821,0.2718,0.2644,0.2725,0.2882,0.2887,0.3999,0.5367,0.5367,0.5532,0.4038,-0.429,-0.3918,-0.1398,-0.5595,-0.6629,-0.5987,-0.4238,-0.547,-0.7083,-0.707,-0.6897,-0.6731,-0.659,-0.6716,-0.6774,-0.6536,-0.6659,-0.6774,-0.6784,-0.6997,-0.7098,-0.7098,-0.7187,-0.7187,-0.7187,-0.7276,-0.7312,-0.7267,-0.5302,-0.3663,-0.2846,0.2427,0.5799,0.6061,0.4224,0.3046,0.289,0.289,0.289,0.289,0.289,0.289,0.289,0.4878,0.3824,0.0,0.0,-0.0165,-0.2734,0.0,-0.3353,-0.3195,-0.3426,-0.3723,0.0,0.0,0.0,0.0,0.0,-0.5946,-0.5727,-0.64,-0.6488,-0.5122,-0.4546,-0.3745,-0.2297,-0.2908,0.0,-0.5459,-0.6435,-0.7005,-0.7007,-0.6331,-0.5802,-0.5396,-0.4596,-0.2954,-0.0135,0.345,0.542,0.5379,0.5938,0.6521,0.7118,0.7108,0.6708,0.5985,0.579,0.5724,0.5724,0.559,0.5681,0.593,0.0,0.0,0.4543,0.4082,0.3061,0.1756,0.1243,0.0073,-0.1331,-0.1583,-0.0608,0.0763,0.0699,-0.1019,-0.3306,-0.3301,-0.2193,-0.1338,-0.3699,-0.4929,-0.5202,-0.4307,-0.5448,-0.6809,-0.6216,-0.6527,-0.7099,-0.6973,-0.6937,-0.6934,-0.6719,-0.6773,-0.6868,-0.6827,-0.6881,-0.688,-0.6987,-0.7037,-0.7064,-0.7064,-0.7856,-0.8468,-0.8468,-0.9244,-0.9566,-0.8996,-0.845,-0.7576,-0.6123,-0.2543,0.0878,0.3679,0.3359,0.2422,0.0784,0.0706,0.0706,0.0706,0.0706,0.0706,0.0706,0.1256,0.0954,0.0,0.0,-0.1912,-0.3459,-0.3471,-0.3434,-0.3347,-0.35,-0.3793,-0.4193,0.0,0.0,0.0,0.0,0.0,-0.6937,-0.7586,-0.7811,-0.689,-0.657,-0.5996,0.0,0.0,-0.5547,-0.6715,-0.725,-0.7569,0.0,-0.755,-0.703,-0.6071,-0.562,-0.4215,-0.1403,0.1404,0.3696,0.5336,0.4574,0.4795,0.6071,0.6314,0.6227,0.5894,0.5971,0.5365,0.4322,0.4188,0.4643,0.0,0.0,0.0,-0.0783,-0.0773,-0.0916,-0.1138,-0.1922,-0.2947,-0.3944,-0.4271,-0.3705,-0.2729,-0.1784,-0.2899,-0.4961,-0.5993,-0.5506,-0.4651,-0.4905,-0.5924,-0.6689,-0.5333,-0.5944,-0.6984,-0.6954,-0.696,-0.6967,-0.7031,-0.7085,-0.7078,-0.6854,-0.6922,-0.7177,-0.7614,-0.7318,-0.7222,-0.7826,-0.7929,-0.7929,-0.7929,-0.8969,-0.9666,-0.9666,-1.0178,-1.0433,-1.0082,-0.9995,-0.9651,-0.8687,-0.6894,-0.4518,-0.1427,-0.0313,-0.0234,-0.1409,-0.1409,-0.1409,-0.1409,-0.1409,-0.1409,-0.1409,-0.1409,-0.1514,-0.1649,-0.1649,-0.304,-0.367,-0.357,-0.3634,-0.3482,-0.3844,-0.4336,-0.4783,0.0,0.0,0.0,0.0,0.0,0.0,-0.9047,0.0,0.0,0.0,0.0,-0.6977,-0.7617,-0.822,-0.8441,-0.8343,0.0,-0.8317,-0.8249,-0.7832,-0.6981,-0.599,-0.4734,-0.3213,-0.1136,0.1404,0.4451,0.3357,0.3463,0.4957,0.5232,0.5461,0.5769,0.6132,0.5205,0.3238,0.2551,0.3123,0.4579,0.0,0.0,-0.5421,-0.5433,-0.449,-0.3261,-0.4807,-0.5377,-0.5428,-0.5648,-0.5949,-0.5992,-0.4187,-0.3595,-0.3908,-0.573,-0.6291,-0.6315,-0.6541,-0.6685,-0.686,-0.7229,-0.7142,-0.6907,-0.6997,-0.7034,-0.6993,-0.7112,-0.7139,-0.7105,-0.6987,-0.7142,-0.7625,-0.8597,-0.8174,-0.7925,-0.8973,-0.9148,-0.9148,-0.9148,-1.0096,-1.0864,-1.0864,-1.1042,-1.1128,-1.1128,-1.1128,-1.1048,-1.0758,-1.0336,-0.9247,-0.706,-0.4846,-0.3591,-0.3595,-0.3595,-0.3595,-0.3595,-0.3595,-0.3595,-0.3595,-0.3608,-0.378,-0.411,-0.4124,-0.4132,-0.4513,-0.4772,-0.5176,-0.4434,-0.4306,-0.4726,0.0,0.0,0.0,0.0,0.0,0.0,0.0,-0.9426,-0.9707,0.0,0.0,-0.7475,0.0,0.0,-0.907,-0.8339,0.0,-1.0097,-0.8959,-0.9029,-0.8748,-0.7897,-0.6314,-0.5272,-0.4967,-0.1805,0.0268,0.0804,0.2018,0.2842,0.3127,0.3128,0.3225,0.3283,0.5348,0.6128,0.5599,0.2041,0.0533,0.0719,0.0,-0.3918,-0.5401,-0.537,-0.5229,-0.5001,-0.5279,-0.5423,-0.5386,-0.5606,-0.5827,-0.5991,-0.5883,-0.5808,-0.5879,-0.62,-0.6274,-0.6291,-0.6434,-0.6583,-0.6989,-0.809,-0.7805,-0.7001,-0.6987,-0.7034,-0.7112,-0.7136,-0.7139,-0.7136,-0.7112,-0.791,-0.8707,-0.8852,-0.9557,-1.0091,-1.0351,-1.0351,-1.0351,-1.0351,-1.1295,-1.2072,-1.2072,-1.2948,-1.3561,-1.3561,-1.3561,-1.3105,-1.2099,-1.1676,-1.0913,-0.9839,-0.7307,-0.5844,-0.5811,-0.5814,-0.5814,-0.5814,-0.5814,-0.5814,-0.5814,-0.6016,-0.6163,-0.6241,-0.6449,-0.6583,-0.5689,-0.5614,-0.581,-0.5458,-0.5395,-0.5692,0.0,0.0,0.0,0.0,0.0,0.0,0.0,0.0,-1.0219,-0.9841,0.0,-1.077,-1.0953,-1.1196,-1.1031,0.0,0.0,-1.0857,-0.9974,-0.9964,-0.9652,-0.8748,-0.7497,-0.6388,-0.5481,-0.3813,-0.2008,-0.0067,0.0805,0.1212,0.1214,0.1226,0.1232,0.1232,0.2333,0.2863,0.282,0.0861,0.0,-0.0189,0.0,-0.4687,-0.4938,-0.5053,-0.5128,-0.5243,-0.5243,-0.5291,-0.5446,-0.6067,-0.678,-0.7552,-0.7654,-0.7782,-0.7944,-0.7944,-0.794,-0.7949,-0.7957,-0.8107,-0.8354,-0.8923,-0.8586,-0.8086,-0.8012,-0.8047,-0.7929,-0.7228,-0.7139,-0.7316,-0.7929,-0.854,-0.9235,-1.0524,-1.0697,-1.0783,-1.1381,-1.1552,-1.1552,-1.1552,-1.251,-1.3288,-1.3288,-1.3737,-1.4088,-1.4088,-1.4088,-1.3906,-1.3294,-1.2928,-1.19,-0.992,-0.8774,-0.8147,-0.8104,-0.7471,-0.7157,-0.7328,-0.6624,-0.6315,-0.639,-0.6544,-0.6702,-0.6848,-0.6922,-0.7027,-0.7121,-0.682,-0.6872,-0.6471,0.0,-0.6451,0.0,0.0,0.0,0.0,0.0,0.0,0.0,-1.0551,0.0,-1.1802,-1.2756,-1.3431,-1.3678,-1.3639,-1.3224,-1.2296,-1.2081,-1.1598,-1.0674,-1.0624,-1.0238,-0.9338,-0.8678,-0.7627,-0.6117,-0.5617,-0.4148,-0.1335,-0.0869,-0.0604,-0.0605,-0.0605,-0.0404,0.0,0.0,0.0,0.0,0.0,0.0,-0.0122,-0.281,-0.418,-0.4574,-0.4751,-0.4967,-0.5182,-0.5182,-0.5383,-0.5837,-0.6802,-0.7808,-0.8652,-0.8702,-0.8945,-0.9215,-0.9215,-0.9251,-0.9296,-0.9296,-0.9366,-0.9536,-0.9849,-0.9732,-0.9511,-0.9252,-0.9169,-0.9005,-0.8089,-0.7921,-0.8185,-0.9061,-0.9492,-1.0178,-1.198,-1.1815,-1.1735,-1.2589,-1.2681,-1.2681,-1.2681,-1.347,-1.4088,-1.4088,-1.4088,-1.4088,-1.4088,-1.4088,-1.4055,-1.3988,-1.3841,-1.2743,-1.0341,-1.0156,-1.01,-0.9864,-0.8843,-0.8443,-0.8675,-0.7671,-0.7277,-0.74,-0.7119,-0.7105,-0.735,-0.7046,-0.7037,-0.8898,-0.8931,-0.9098,-0.7384,0.0,0.0,0.0,0.0,0.0,0.0,0.0,0.0,0.0,-1.0551,-1.1021,-1.3094,-1.2736,-1.2688,-1.4354,0.0,-1.508,-1.3071,-1.3597,-1.3203,-1.0862,-1.0624,-1.0238,-0.9338,-0.9268,-0.8812,-0.7892,-0.6248,-0.5262,-0.4992,-0.3405,-0.2476,-0.2477,-0.2477,-0.1677,0.0,0.0,0.0,0.0,0.0,0.0,-0.0059,-0.1649,-0.3299,-0.489,-0.4867,-0.5087,-0.5345,-0.5345,-0.587,-0.6745,-0.7745,-0.8185,-0.8235,-0.8359,-0.8638,-0.8817,-0.8817,-0.904,-0.9296,-0.9296,-0.9366,-0.9693,-1.0795,-1.141,-1.1472,-1.0391,-1.0139,-1.0189,-1.0302,-1.0351,-1.0351,-1.0438,-1.1295,-1.2072,-1.2242,-1.3118,-1.3913,-1.3997,-1.3997,-1.3997,-1.3997,-1.3997,-1.4088,-1.4088,-1.4088,-1.4088,-1.4088,-1.4088,-1.3975,-1.3701,-1.3908,-1.3712,-1.2942,-1.2031,-1.1146,-1.0176,-1.0079,-1.0079,-1.0095,-0.9999,-0.9918,-0.9933,-0.898,-0.8581,-0.8526,-0.7578,-0.7129,-1.1232,-1.0984,0.0,0.0,0.0,0.0,0.0,0.0,0.0,0.0,0.0,0.0,0.0,0.0,-1.2949,-1.3803,-1.4529,-1.5169,-1.5826,-1.6225,-1.5873,-1.4307,-1.4184,-1.367,-1.2236,-1.2097,-1.1965,-1.164,-1.1114,-1.0656,-1.0322,-0.9162,-0.7795,-0.6132,-0.5427,-0.5157,-0.5443,-0.5443,-0.5064,-0.437,-0.2568,-0.1703,-0.169,-0.144,-0.1346,-0.1467,-0.311,-0.4155,-0.4674,-0.4847,-0.4986,-0.5167,-0.5929,-0.7051,-0.8441,-0.958,-1.0265,-1.0844,-1.1653,-1.1969,-1.2026,-1.2284,-1.2431,-1.2499,-1.2125,-1.2539,-1.2991,-1.2803,-1.3337,-1.3557,-1.1723,-1.1394,-1.1357,-1.0763,-1.0611,-1.0778,-1.1466,-1.198,-1.2504,-1.3288,-1.3822,-1.4088,-1.4088,-1.4088,-1.4088,-1.4088,-1.4088,-1.4088,-1.4088,-1.4088,-1.4088,-1.4088,-1.4088,-1.428,-1.4889,-1.4982,-1.5277,-1.5763,-1.4576,-1.3742,-1.3407,-1.2578,-1.224,-1.2407,-1.0902,-1.0269,-1.0321,-0.9903,-0.9757,-0.989,-0.9452,-0.9309,-1.3228,-1.2916,-1.2524,0.0,0.0,0.0,0.0,0.0,0.0,0.0,0.0,0.0,0.0,0.0,0.0,0.0,-1.5562,-1.6296,-1.684,-1.6816,-1.6239,-1.5049,-1.4626,-1.4159,-1.3416,-1.3177,-1.322,-1.3431,-1.2906,-1.2468,-1.2303,-1.1646,-1.034,-0.8375,-0.7849,-0.7725,-0.8041,-0.7822,-0.7736,-0.7672,-0.5658,-0.4472,-0.4108,-0.3865,-0.3677,-0.3683,-0.5019,-0.5567,-0.5522,-0.5522,-0.5731,-0.621,-0.7409,-0.8773,-1.0212,-1.1284,-1.2015,-1.2577,-1.3461,-1.3827,-1.3974,-1.4105,-1.4293,-1.4453,-1.4073,-1.4426,-1.4874,-1.4355,-1.4745,-1.4984,-1.3434,-1.302,-1.285,-1.2169,-1.1838,-1.1906,-1.2681,-1.2851,-1.3118,-1.3913,-1.4088,-1.4088,-1.4088,-1.4088,-1.4088,-1.4088,-1.4088,-1.4088,-1.4088,-1.4088,-1.4088,-1.4088,-1.4412,-1.4894,-1.5621,-1.6026,-1.6519,-1.7253,-1.6782,-1.6325,-1.5932,-1.5033,-1.4678,-1.4815,-1.3244,-1.2512,-1.2603,-1.1867,-1.1539,-1.1621,-1.095,-1.0611,-1.4789,-1.4732,-1.4485,0.0,0.0,0.0,0.0,0.0,0.0,0.0,0.0,0.0,0.0,0.0,0.0,-1.573,-1.5435,-1.5466,-1.7171,-1.7002,-1.6239,-1.504,-1.4923,-1.4732,-1.4209,-1.3629,-1.3661,-1.4385,-1.4441,-1.4148,-1.3594,-1.3314,-1.2846,-1.2243,-1.0808,-1.0044,-1.0044,-0.9422,-0.9091,-0.8941,-0.9097,-0.8402,-0.7141,-0.7141,-0.6951,-0.6673,-0.7177,-0.7549,-0.7659,-0.7151,-0.7608,-0.8821,-1.0043,-1.1023,-1.1813,-1.274,-1.3009,-1.3009,-1.3078,-1.3551,-1.409,-1.3597,-1.3967,-1.4542,-1.4542,-1.4542,-1.4624,-1.5126,-1.5411,-1.5618,-1.5618,-1.5138,-1.4729,-1.5056,-1.4585,-1.4082,-1.4082,-1.4082,-1.4088,-1.4088,-1.4088,-1.4088,-1.4088,-1.4088,-1.4088,-1.4088,-1.4088,-1.4088,-1.4088,-1.4088,-1.4088,-1.4088,-1.5054,-1.5696,-1.5703,-1.6683,-1.7334,-1.7342,-1.839,-1.847,-1.7334,-1.7334,-1.7334,-1.7334,-1.7342,-1.7342,-1.7342,-1.5072,-1.4065,-1.3981,-1.1707,-1.0611,-1.6236,-1.6606,0.0,0.0,0.0,0.0,0.0,0.0,0.0,0.0,0.0,-1.4571,-1.4565,0.0,0.0,-1.5478,-1.567,-1.5974,-1.6646,-1.6919,-1.6977,-1.6816,-1.6469,-1.615,-1.5993,-1.588,-1.5866,-1.6069,-1.6428,-1.6584,-1.6385,-1.6318,-1.5818,-1.4838,-1.4397,-1.3608,-1.2452,-1.2264,-1.2008,-1.1575,-1.163,-1.0496,-0.8386,-0.8386,-0.8337,-0.8251,-0.8373,-0.8425,-0.8391,-0.8343,-0.9298,-1.0901,-1.1458,-1.2392,-1.3588,-1.526,-1.591,-1.6049,-1.6958,-1.7509,-1.7707,-1.7511,-1.7574,-1.7656,-1.7303,-1.767,-1.8168,-1.8038,-1.8094,-1.8174,-1.8174,-1.7232,-1.6187,-1.5851,-1.5553,-1.5306,-1.4918,-1.4806,-1.4639,-1.421,-1.4088,-1.4088,-1.4088,-1.4088,-1.4088,-1.4088,-1.4088,-1.4088,-1.4088,-1.4734,-1.522,-1.522,-1.6198,-1.7172,-1.798,-1.831,-1.8798,-1.959,-1.9923,-1.9599,-1.8559,-1.8479,-1.8479,-1.8479,-1.7747,-1.7342,-1.7342,-1.6667,-1.6332,-1.6332,-1.4837,-1.4169,-1.7497,-1.7994,0.0,0.0,0.0,0.0,0.0,0.0,0.0,0.0,0.0,-1.6417,-1.6567,-1.6422,0.0,-1.655,-1.6653,-1.6738,-1.6853,-1.6963,-1.7113,-1.7285,-1.7231,-1.7289,-1.7535,-1.7725,-1.7874,-1.79,-1.8359,-1.8532,-1.8347,-1.8505,-1.8233,-1.7319,-1.7057,-1.6486,-1.552,-1.5253,-1.4975,-1.466,-1.4451,-1.3584,-1.2033,-1.092,-1.0418,-1.0418,-1.0418,-1.0352,-1.0288,-1.048,-1.1442,-1.2802,-1.3345,-1.4223,-1.5372,-1.6753,-1.7462,-1.7812,-1.8326,-1.9195,-1.9935,-1.91,-1.9168,-1.9431,-1.9062,-1.923,-1.956,-1.9737,-1.9771,-1.9814,-1.9814,-1.9142,-1.8059,-1.6746,-1.6312,-1.6158,-1.5544,-1.5697,-1.5832,-1.5256,-1.5216,-1.5387,-1.5387,-1.5387,-1.5387,-1.5387,-1.5387,-1.5387,-1.5387,-1.5951,-1.6355,-1.6355,-1.7334,-1.823,-1.8957,-1.9362,-1.9923,-2.0566,-2.0566,-2.0323,-1.9678,-1.9599,-1.9599,-1.9599,-1.8948,-1.8621,-1.8621,-1.8149,-1.7989,-1.798,-1.6846,-1.6355,-1.8555,0.0,0.0,0.0,-2.2346,0.0,-2.3146,-2.1016,-1.9386,-2.0369,0.0,-1.8539,-1.9137,-1.8646,-1.8168,-1.8408,-1.8103,-1.7775,-1.7775,-1.7444,-1.7163,-1.724,-1.7712,-1.8252,-1.8806,-1.9309,-1.9586,-1.9656,-2.0055,-2.0107,-1.9612,-2.0089,-2.0135,-1.9652,-1.9114,-1.8789,-1.8738,-1.8175,-1.7885,-1.7847,-1.7392,-1.7183,-1.7063,-1.4294,-1.3027,-1.3027,-1.3027,-1.3047,-1.3107,-1.3312,-1.3879,-1.469,-1.5499,-1.6317,-1.7138,-1.7699,-1.8365,-1.8867,-1.8244,-1.9528,-2.1104,-1.9439,-1.958,-2.0406,-2.0248,-1.987,-1.9602,-2.0728,-2.0899,-2.0719,-2.0771,-2.0707,-2.0031,-1.7858,-1.7195,-1.6919,-1.6489,-1.6983,-1.7304,-1.6942,-1.7095,-1.7342,-1.7342,-1.7342,-1.7342,-1.7342,-1.7342,-1.7342,-1.7342,-1.7423,-1.7423,-1.7423,-1.847,-1.9125,-1.9125,-2.0001,-2.0566,-2.0566,-2.0566,-2.0566,-2.0566,-2.0566,-2.0566,-2.0566,-2.0566,-2.0566,-2.0566,-1.9599,-1.9125,-1.9116,-1.7989,-1.7423,-1.874,-1.9511,0.0,0.0,-2.3369,-2.4453,-2.4585,-2.4036,-2.2975,-2.0928,-2.1162,-2.1496,-2.0625,-2.0465,-2.0318,-1.986,-1.9413,-1.9265,-1.9864,-1.9862,-2.0008,-2.0561,-2.0257,-2.0045,-2.0204,-2.0088,-2.0061,-2.0061,-2.0778,-2.1165,-2.1051,-2.1376,-2.1477,-2.1374,-2.1249,-2.0975,-2.0525,-2.0399,-2.0162,0.0,-1.9432,-1.9236,-1.9166,-1.6658,-1.5516,-1.5516,-1.5516,-1.57,-1.6001,-1.5703,-1.613,-1.6919,-1.7343,-1.8122,-1.9137,-1.9847,-2.0806,-2.1693,-2.1555,-2.2161,-2.2814,-2.1978,-2.1872,-2.2188,-2.2645,-2.2252,-2.2065,-2.387,-2.3037,-2.1729,-2.2348,-2.1557,-2.0484,-1.9921,-1.9807,-1.9677,-1.9525,-1.9039,-1.8554,-1.8362,-1.7789,-1.7342,-1.7342,-1.7342,-1.7342,-1.7342,-1.7342,-1.7342,-1.7342,-1.8069,-1.863,-1.863,-1.9599,-2.0245,-2.0245,-2.0489,-2.0566,-2.0566,-2.0566,-2.0566,-2.0566,-2.0566,-2.0566,-2.0566,-2.0566,-2.0566,-2.0566,-2.0401,-2.0245,-2.0235,-1.9116,-1.863,0.0,0.0,0.0,-2.3527,0.0,-2.5819,-2.6414,-2.6488,-2.5795,-2.3661,-2.3551,-2.3484,-2.2559,-2.251,-2.2369,-2.1766,-2.1458,-2.137,-2.1468,-2.153,-2.151,-2.1535,-2.1465,-2.1302,-2.1044,-2.1385,-2.1533,-2.1354,-2.1967,-2.2319,-2.2319,-2.2444,-2.2513,-2.2513,-2.2613,-2.2526,-2.2246,-2.2327,-2.2275,-2.2013,-2.1551,-2.118,-2.0778,-1.8739,-1.7765,-1.7765,-1.7765,-1.7891,-1.8071,-1.785,-1.8057,-1.8521,-1.8919,-1.9405,-2.0061,-2.1097,-2.2061,-2.2847,-2.291,-2.3565,-2.4196,-2.3263,-2.3033,-2.3168,-2.3446,-2.3264,-2.3244,-2.4518,-2.43,-2.3631,-2.4026,-2.3533,-2.282,-2.2433,-2.1829,-2.1208,-2.0945,-2.0991,-2.1104,-2.0791,-2.013,-1.9534,-1.9534,-1.9158,-1.8868,-1.8868,-1.8868,-1.8868,-1.8868,-1.9432,-1.9766,-1.9766,-2.0245,-2.0566,-2.0566,-2.0566,-2.0566,-2.0566,-2.0566,-2.0566,-2.0566,-2.0566,-2.0566,-2.0566,-2.0566,-2.0566,-2.0566,-2.0566,-2.0566,-2.0566,-2.0001,-1.9766,0.0,0.0,-2.2152,-2.4458,-2.5778,0.0,-2.7499,-2.7767,-2.7553,-2.6523,-2.5749,-2.5107,-2.4415,-2.4369,-2.4321,-2.3808,-2.3594,-2.3407,-2.3179,-2.3025,-2.27,-2.2058,-2.2413,-2.2517,-2.1913,-2.263,-2.3004,-2.272,-2.3112,-2.3333,-2.3333,-2.3446,-2.3472,-2.3472,-2.3635,-2.3721,-2.3721,-2.3878,-2.3971,-2.3971,-2.341,-2.2817,-2.2167,-2.0792,-2.004,-1.9813,-1.9813,-1.9813,-1.9813,-1.9813,-1.9794,-1.9817,-2.0243,-2.0548,-2.082,-2.1958,-2.2851,-2.346,-2.359,-2.4388,-2.5184,-2.403,-2.3758,-2.3931,-2.392,-2.3942,-2.4168,-2.4737,-2.521,-2.5536,-2.555,-2.5508,-2.5231,-2.4624,-2.3667,-2.2712,-2.2131,-2.2753,-2.3417,-2.3262,-2.2578,-2.2027,-2.2027,-2.1375,-2.0789,-2.0644,-2.0712,-2.0789,-2.0644,-2.0712,-2.0789,-2.0644,-2.0934,-2.1011,-2.0867,-2.1011,-2.1078,-2.1078,-2.1078,-2.1011,-2.0857,-2.0867,-2.0789,-2.0566,-2.0566,-2.0712,-2.0867,-2.0867,-2.0934,-2.1088,-2.1235,-2.1121,0.0,0.0,-2.3054,0.0,-2.4272,-2.5779,0.0,0.0,-2.6859,0.0,-2.6786,-2.6514,-2.5282,-2.5552,-2.5831,-2.5512,-2.4847,-2.4694,-2.5662,-2.5196,-2.4713,-2.4613,-2.454,-2.4167,-2.3374,-2.3241,-2.3157,-2.3124,-2.3605,-2.3891,-2.3891,-2.4332,-2.4582,-2.4582,-2.4613,-2.4629,-2.4629,-2.4644,-2.4659,-2.4659,-2.429,-2.3897,-2.3533,-2.3298,-2.2617,-2.1578,-2.1578,-2.1578,-2.1578,-2.1578,-2.1424,-2.1238,-2.1289,-2.1907,-2.273,-2.2921,-2.3782,-2.4907,-2.4948,-2.5059,-2.521,-2.5005,-2.4966,-2.5124,-2.5654,-2.5818,-2.6016,-2.6763,-2.6589,-2.6193,-2.6308,-2.5892,-2.5398,-2.5287,-2.5891,-2.6113,-2.4682,-2.3839,-2.3602,-2.4519,-2.325,-2.2027,-2.2027,-2.1886,-2.1517,-2.0712,-2.1298,-2.1517,-2.0712,-2.1298,-2.1517,-2.0722,-2.2124,-2.2776,-2.1886,-2.2627,-2.3073,-2.3073,-2.3073,-2.2702,-2.1886,-2.1811,-2.1451,-2.0644,-2.0566,-2.1001,-2.1811,-2.1811,-2.2253,-2.3084,-2.3577,-2.3318,-2.0102,-2.0773,-2.1387,0.0,-2.3357,-2.4196,-2.5069,0.0,-2.5794,-2.603,-2.6387,-2.6567,-2.642,-2.662,-2.669,-2.637,-2.5973,-2.5777,-2.5836,-2.5542,-2.5178,-2.47,-2.4582,-2.4295,-2.3696,-2.3652,-2.3728,-2.3906,-2.4245,-2.4452,-2.4452,-2.4663,-2.4804,-2.4804,-2.4864,-2.4917,-2.4917,-2.5024,-2.5024,-2.4917,-2.4797,-2.4625,-2.4358,-2.4358,-2.3803,-2.2816,-2.2816,-2.273,-2.2625,-2.2625,-2.2565,-2.2452,-2.2452,-2.3031,-2.3854,-2.4099,-2.4827,-2.5782,-2.5974,-2.6135,-2.6254,-2.6254,-2.6322,-2.6495,-2.6775,-2.7137,-2.751,-2.7873,-2.8015,-2.8069,-2.8082,-2.7871,-2.755,-2.7161,-2.718,-2.7086,-2.6324,-2.591,-2.564,-2.5121,-2.4264,-2.3514,-2.2925,-2.285,-2.2702,-2.2264,-2.2563,-2.2702,-2.2264,-2.2553,-2.2702,-2.2264,-2.2999,-2.3294,-2.285,-2.322,-2.3514,-2.3514,-2.3514,-2.3294,-2.285,-2.285,-2.2627,-2.2264,-2.1165,-2.1078,-2.2027,-2.2027,-2.2553,-2.3526,-2.4018,-2.4026,0.0,0.0,-2.0638,-2.2154,-2.2832,-2.3337,0.0,0.0,-2.519,0.0,-2.5811,-2.6231,-2.686,-2.7081,-2.7087,-2.6862,-2.649,-2.6134,-2.59,-2.5667,-2.5333,-2.4797,-2.473,-2.4512,-2.4018,-2.4118,-2.4316,-2.4559,-2.4741,-2.4855,-2.4855,-2.4896,-2.4942,-2.4942,-2.5018,-2.5077,-2.5077,-2.5243,-2.5243,-2.5107,-2.5166,-2.5102,-2.4961,-2.4961,-2.4572,-2.3878,-2.3839,-2.3737,-2.3623,-2.3822,-2.3826,-2.3746,-2.3947,-2.4444,-2.5047,-2.5355,-2.5958,-2.6661,-2.6926,-2.708,-2.7167,-2.735,-2.747,-2.7525,-2.776,-2.8274,-2.8802,-2.866,-2.9108,-2.9585,-2.9451,-2.9406,-2.9275,-2.8778,-2.8393,-2.7919,-2.7143,-2.725,-2.717,-2.5977,-2.5395,-2.4885,-2.4339,-2.4013,-2.3818,-2.3514,-2.3745,-2.3818,-2.3514,-2.3745,-2.3818,-2.3514,-2.3963,-2.4181,-2.3891,-2.4108,-2.4195,-2.4057,-2.4172,-2.4123,-2.3709,-2.3822,-2.3745,-2.3514,-2.2048,-2.1821,-2.2776,-2.2776,-2.3294,-2.4264,-2.4974,-2.5125,0.0,-2.1405,0.0,-2.1348,0.0,0.0,0.0,0.0,-2.5491,-2.55,-2.55,-2.5649,-2.5996,-2.6419,-2.6836,-2.713,-2.5895,-2.5357,-2.6634,-2.6173,-2.5743,-2.589,-2.5922,-2.56,-2.4821,-2.4741,-2.4775,-2.479,-2.4917,-2.4998,-2.4998,-2.5163,-2.5264,-2.5264,-2.5274,-2.5274,-2.5274,-2.536,-2.538,-2.538,-2.5437,-2.5437,-2.537,-2.537,-2.5209,-2.4911,-2.4795,-2.4727,-2.4783,-2.5536,-2.5554,-2.5177,-2.6009,-2.6481,-2.6667,-2.6703,-2.7189,-2.7816,-2.7823,-2.7595,-2.7414,-2.8107,-2.8083,-2.794,-2.8682,-2.9424,-2.9883,-2.9327,-2.9691,-3.0123,-2.954,-2.9406,-2.9361,-2.9348,-2.9796,-2.9492,-2.6849,-2.6644,-2.7188,-2.7714,-2.644,-2.5485,-2.6052,-2.5438,-2.4564,-2.3661,-2.4337,-2.4564,-2.3599,-2.4337,-2.4564,-2.3588,-2.5205,-2.5943,-2.5004,-2.5804,-2.6077,-2.5528,-2.6015,-2.5721,-2.4222,-2.4672,-2.448,-2.3514,-2.3368,-2.3818,-2.4862,-2.4862,-2.537,-2.6339,-2.7413,-2.7373,0.0,0.0,0.0,-2.2202,-2.2715,-2.3127,-2.2797,-2.3567,-2.4272,-2.4014,-2.4586,-2.5297,-2.5877,-2.6146,-2.6206,-2.6067,-2.5546,-2.5214,-2.5336,-2.511,-2.5007,-2.5213,-2.5242,-2.5129,-2.4842,-2.4877,-2.4936,-2.5004,-2.5122,-2.5203,-2.5261,-2.5283,-2.5303,-2.5303,-2.5303,-2.5303,-2.5303,-2.5409,-2.5447,-2.5409,-2.5521,-2.5503,-2.5395,-2.5398,-2.5321,-2.5192,-2.5149,-2.5006,-2.4861,-2.5672,-2.5882,-2.5774,-2.6488,-2.713,-2.7574,-2.7211,-2.7556,-2.8183,-2.7964,-2.8129,-2.8509,-2.9281,-2.9569,-2.9763,-3.0606,-3.083,-3.0762,-3.0516,-3.0677,-3.0838,-3.0617,-3.0576,-3.0477,-3.0081,-3.0206,-3.0022,-2.8544,-2.8314,-2.8326,-2.8028,-2.7458,-2.724,-2.7943,-2.7285,-2.6637,-2.6258,-2.6045,-2.5804,-2.5499,-2.5721,-2.5804,-2.5429,-2.6082,-2.6233,-2.5438,-2.5697,-2.5674,-2.5134,-2.5598,-2.5677,-2.513,-2.5647,-2.5804,-2.5429,-2.5429,-2.5288,-2.5004,-2.5004,-2.5511,-2.6559,-2.7595,-2.7877,-2.2042,0.0,0.0,0.0,0.0,-2.3068,-2.2405,0.0,-2.3892,-2.3298,-2.4018,-2.4928,-2.5418,-2.5488,-2.5476,-2.5419,-2.5223,-2.4986,-2.4652,-2.4636,-2.4737,-2.4936,-2.4981,-2.4981,-2.5,-2.508,-2.5164,-2.5225,-2.5332,0.0,-2.539,-2.537,-2.5322,-2.5303,-2.5303,-2.5303,-2.5303,-2.5409,-2.5438,-2.5395,-2.5504,-2.5508,-2.5403,-2.5398,-2.537,-2.5322,-2.561,-2.5611,-2.5456,-2.6306,-2.6759,-2.7009,-2.7681,-2.8237,-2.8596,-2.8107,-2.8268,-2.8731,-2.8675,-2.8729,-2.8991,-3.006,-3.0251,-3.0279,-3.1376,-3.1478,-3.1293,-3.1551,-3.1524,-3.1411,-3.1411,-3.1291,-3.1162,-3.0999,-3.1018,-3.0863,-3.0214,-2.9831,-2.9471,-2.8915,-2.8795,-2.8898,-2.9392,-2.8684,-2.8117,-2.8117,-2.7417,-2.6905,-2.6905,-2.6658,-2.6533,-2.6533,-2.6289,-2.6013,-2.5624,-2.5435,-2.5197,-2.4845,-2.531,-2.5598,-2.5598,-2.6151,-2.6533,-2.6533,-2.6533,-2.6164,-2.5511,-2.5511,-2.5873,-2.6559,-2.7595,-2.831,0.0,0.0,0.0,0.0,0.0,0.0,-2.224,-2.3388,-2.4501,-2.3515,-2.3934,-2.4512,-2.4495,-2.4512,-2.4704,-2.5297,-2.4875,-2.4575,-2.4775,-2.493,-2.5057,-2.5274,-2.5303,-2.5322,-2.539,-2.539,-2.5438,-2.5505,-2.5499,-2.5466,-2.5418,-2.5409,-2.537,-2.5303,-2.5303,-2.5303,-2.5303,-2.537,-2.5406,-2.5402,-2.5463,-2.546,-2.5409,-2.5409,-2.539,-2.538,-2.6236,-2.664,-2.6736,-2.7582,-2.8279,-2.8888,-2.9689,-2.9877,-2.9678,-2.9474,-2.9412,-2.9483,-3.0014,-2.943,-2.8709,-3.0305,-3.0016,-2.9384,-3.0893,-3.1352,-3.1512,-3.2272,-3.2161,-3.1825,-3.1808,-3.1507,-3.1416,-3.2144,-3.2313,-3.215,-3.157,-3.1026,-3.0608,-3.0585,-3.0464,-3.0369,-3.0379,-2.9628,-2.9052,-2.9066,-2.8298,-2.7736,-2.767,-2.704,-2.6521,-2.6533,-2.5937,-2.5586,-2.5573,-2.5096,-2.4795,-2.4795,-2.5285,-2.5586,-2.5665,-2.6219,-2.6521,-2.6589,-2.6521,-2.6521,-2.6589,-2.6521,-2.6533,-2.6559,-2.7595,-2.8699,-2.3712,0.0,0.0,0.0,0.0,0.0,-2.3126,-2.3873,-2.4501,-2.3515,-2.4061,-2.467,-2.4528,-2.4607,-2.4776,-2.4939,-2.4835,-2.4771,-2.4911,-2.4974,-2.5057,-2.5274,-2.5341,-2.539,-2.5409,-2.5441,-2.549,0.0,-2.5538,-2.5505,-2.5534,-2.5447,-2.539,-2.537,-2.5322,-2.5303,-2.5303,-2.537,-2.5409,-2.5397,-2.5481,-2.5455,-2.5409,-2.5409,-2.5717,-2.6255,-2.6505,-2.7294,-2.8429,-2.8659,-2.8868,-2.909,-2.9732,-2.9969,-2.9893,-2.9696,-2.9532,-2.9411,-2.9569,-2.9646,-2.9862,-3.0903,-3.1211,-3.135,-3.2385,-3.2456,-3.2201,-3.2464,-3.2417,-3.223,-3.188,-3.1733,-3.1754,-3.2207,-3.2313,-3.2384,-3.2782,-3.3115,-3.3115,-3.2206,-3.1981,-3.1951,-3.1936,-3.1245,-3.0527,-2.9997,-2.9192,-2.8427,-2.7802,-2.7484,-2.7162,-2.6589,-2.5937,-2.5435,-2.5071,-2.4544,-2.423,-2.423,-2.4732,-2.5458,-2.6479,-2.6544,-2.7095,-2.8298,-2.7095,-2.7095,-2.8298,-2.7095,-2.6533,-2.6559,-2.7595,-2.8486,0.0,0.0,0.0,0.0,0.0,0.0,-2.3039,-2.3663,-2.4113,-2.2739,-2.3194,-2.3801,-2.3691,-2.4063,-2.4371,-2.4371,-2.4721,-2.5012,-2.4998,-2.5077,-2.5163,-2.5293,-2.537,-2.5408,-2.5453,-2.551,-2.5564,-2.5646,-2.5601,-2.559,-2.5593,-2.5505,-2.5432,-2.5447,-2.5409,-2.539,-2.539,-2.539,-2.5409,-2.5409,-2.5409,-2.5601,-2.5909,-2.5909,-2.6351,-2.7159,-2.7525,-2.8236,-2.9171,-2.9525,-2.966,-2.9687,-3.003,-3.0393,-3.0633,-3.0041,-3.02,-3.0715,-3.0621,-3.0762,-3.1154,-3.1853,-3.1992,-3.207,-3.2748,-3.2766,-3.2613,-3.2937,-3.2934,-3.2752,-3.2582,-3.2438,-3.2444,-3.2929,-3.2893,-3.2949,-3.3694,-3.4201,-3.4208,-3.3175,-3.321,-3.3253,-3.2671,-3.221,-3.1634,-3.0881,-3.0072,-2.938,-2.8876,-2.8492,-2.8051,-2.7604,-2.6492,-2.5781,-2.5653,-2.4406,-2.3929,-2.4619,-2.5116,-2.5896,-2.7195,-2.742,-2.7986,-2.9002,-2.8051,-2.8051,-2.9002,-2.7284,-2.6955,-2.7747,-2.8742,-2.9686,0.0,0.0,0.0,0.0,-2.4478,0.0,-2.2697,-2.329,-2.3727,-2.2055,-2.2291,-2.2787,-2.265,-2.3359,-2.3954,-2.3858,-2.4675,-2.5253,-2.5065,-2.5192,-2.5303,-2.5303,-2.539,-2.5453,-2.5515,-2.558,-2.5641,-2.5702,-2.5703,-2.5664,-2.5605,-2.5556,-2.5515,-2.5511,-2.5504,-2.5505,-2.5505,-2.5447,-2.5418,-2.5409,-2.5437,-2.586,-2.6621,-2.6697,-2.7217,-2.8082,-2.8863,-2.9259,-2.9426,-3.0186,-3.0471,-3.0398,-3.0398,-3.0871,-3.1443,-3.0519,-3.1149,-3.2435,-3.2294,-3.2278,-3.2411,-3.2901,-3.2605,-3.2166,-3.2637,-3.2768,-3.2889,-3.3605,-3.3623,-3.3424,-3.3659,-3.3424,-3.3323,-3.4077,-3.3853,-3.371,-3.4438,-3.4556,-3.4374,-3.3822,-3.4259,-3.4284,-3.3039,-3.2841,-3.2586,-3.1838,-3.1058,-3.0495,-3.0435,-2.969,-2.9129,-2.9002,-2.7363,-2.6561,-2.7003,-2.4864,-2.4091,-2.563,-2.6011,-2.6665,-2.7815,-2.862,-2.9066,-2.9254,-2.9254,-2.9192,-2.9002,-2.7616,-2.7838,-2.9568,-3.0501,-3.1474,0.0,0.0,0.0,0.0,-2.4375,0.0,-2.4302,-2.4543,-2.4721,-2.4343,-2.4528,-2.4502,-2.3694,-2.4394,-2.4869,-2.4226,-2.4832,-2.536,-2.5253,-2.5312,-2.539,-2.539,-2.5486,-2.5563,-2.558,-2.5634,-2.5696,-2.5703,-2.5703,-2.5684,-2.5684,-2.5623,-2.558,-2.557,-2.5526,-2.551,-2.551,-2.549,-2.5471,-2.5486,-2.611,-2.6514,-2.6706,-2.7351,-2.8121,-2.8959,-2.9132,-2.9622,-3.0341,-3.0515,-3.0548,-3.0487,-3.0417,-3.0494,-3.0706,-3.12,-3.144,-3.1634,-3.2289,-3.28,-3.3185,-3.3297,-3.3527,-3.3753,-3.3868,-3.3721,-3.3605,-3.3752,-3.4211,-3.46,-3.4321,-3.4167,-3.4296,-3.4913,-3.4478,-3.4226,-3.5186,-3.4928,-3.4631,-3.5088,-3.5323,-3.5161,-3.4333,-3.4186,-3.3987,-3.3271,-3.261,-3.1875,-3.1172,-3.0511,-2.9766,-2.9066,-2.8291,-2.7844,-2.7968,-2.6436,-2.5834,-2.6569,-2.6696,-2.733,-2.8721,-2.8939,-2.9628,-3.097,-3.1029,-3.0329,-2.9002,-2.9227,-2.9517,-2.991,-3.1074,-3.1723,0.0,0.0,0.0,-2.419,0.0,0.0,0.0,-2.4198,-2.4274,-2.3843,-2.3907,-2.3909,-2.3399,-2.4101,-2.462,-2.4264,-2.487,-2.5409,-2.5409,-2.5024,-2.4909,-2.5351,-2.5123,-2.5128,-2.5553,-2.566,-2.5703,-2.5703,-2.5703,-2.5703,-2.5703,-2.5664,-2.5644,-2.5644,-2.5615,-2.5601,-2.5601,-2.5562,-2.5542,-2.5542,-2.5925,-2.6532,-2.7369,-2.7794,-2.8679,-2.9852,-2.991,-3.0229,-3.0643,-3.0646,-3.0629,-3.0641,-3.0975,-3.1602,-3.2338,-3.2295,-3.2762,-3.3403,-3.3403,-3.3861,-3.4437,-3.4279,-3.4434,-3.4636,-3.4489,-3.4242,-3.4086,-3.453,-3.4823,-3.5054,-3.5283,-3.5452,-3.5616,-3.5936,-3.552,-3.5126,-3.54,-3.5155,-3.4916,-3.5023,-3.5368,-3.5362,-3.4736,-3.4279,-3.381,-3.3171,-3.2796,-3.24,-3.1966,-3.1273,-3.0845,-3.0822,-2.959,-2.8944,-2.9209,-2.7704,-2.7094,-2.7863,-2.8071,-2.86,-2.9614,-3.0011,-3.0644,-3.1467,-3.1482,-3.1087,-3.0269,-3.1281,-3.1539,-3.1104,-3.2514,-3.333,0.0,0.0,0.0,0.0,0.0,-2.4325,0.0,0.0,0.0,-2.3171,0.0,0.0,0.0,0.0,0.0,0.0,0.0,0.0,0.0,-2.4619,0.0,-2.5332,-2.4911,-2.4856,-2.5538,-2.5668,-2.5689,-2.5689,-2.5681,-2.5684,-2.5684,-2.5684,-2.5703,-2.5703,-2.5703,-2.5703,-2.5703,-2.5644,-2.5625,-2.5625,-2.5715,-2.6473,-2.7797,-2.8163,-2.9044,-3.0321,-3.0583,-3.0698,-3.0702,-3.0699,-3.0795,-3.0981,-3.1565,-3.262,-3.3763,-3.3327,-3.4045,-3.518,-3.4641,-3.4911,-3.546,-3.5258,-3.5138,-3.5053,-3.4774,-3.4508,-3.4442,-3.5152,-3.5354,-3.5487,-3.6196,-3.6608,-3.6859,-3.6919,-3.6539,-3.6059,-3.5745,-3.5479,-3.5186,-3.4917,-3.505,-3.5071,-3.4844,-3.4187,-3.3521,-3.2951,-3.2643,-3.2465,-3.2465,-3.1832,-3.1685,-3.2469,-3.09,-3.006,-3.0675,-2.8981,-2.8242,-2.9185,-2.9451,-2.9766,-3.03,-3.1087,-3.1482,-3.1482,-3.1482,-3.1482,-3.1482,-3.2856,-3.3161,-3.2504,-3.3962,-3.4966,0.0,0.0,0.0,0.0,-2.4478,0.0,0.0,0.0,-2.4893,-2.4974,0.0,0.0,0.0,0.0,0.0,0.0,0.0,0.0,-2.4534,-2.4346,-2.4607,-2.5476,-2.5565,-2.5584,-2.5679,-2.5644,-2.5608,-2.5608,-2.5619,-2.5605,-2.5605,-2.5664,-2.5703,-2.5703,-2.5703,-2.5703,-2.5703,-2.5684,-2.5684,-2.5703,-2.6406,-2.6834,-2.7061,-2.8507,-2.9337,-2.9644,-3.0379,-3.0698,-3.0698,-3.0694,-3.1119,-3.1767,-3.1781,-3.192,-3.2244,-3.357,-3.418,-3.443,-3.5122,-3.543,-3.5493,-3.546,-3.5289,-3.5053,-3.4774,-3.4674,-3.4672,-3.4766,-3.5614,-3.6519,-3.6612,-3.7036,-3.7473,-3.7724,-3.7158,-3.6681,-3.6927,-3.6099,-3.548,-3.6074,-3.4814,-3.4023,-3.5296,-3.4891,-3.4341,-3.4297,-3.3238,-3.24,-3.24,-3.1822,-3.169,-3.2406,-3.1706,-3.1459,-3.229,-3.0881,-2.999,-3.0133,-3.0197,-3.0257,-3.0329,-3.1087,-3.1482,-3.1482,-3.1482,-3.1482,-3.1482,-3.2856,-3.3423,-3.3391,-3.4722,-3.5429,0.0,0.0,0.0,0.0,0.0,0.0,-2.5437,0.0,-2.5022,0.0,0.0,0.0,0.0,0.0,0.0,0.0,-2.5023,0.0,0.0,0.0,-2.524,0.0,0.0,0.0,-2.5644,-2.5634,-2.5601,-2.5601,-2.5568,-2.5559,-2.5605,-2.5625,-2.5664,-2.5703,-2.5703,-2.5703,-2.5703,-2.5703,-2.5703,-2.5703,-2.6035,-2.6719,-2.7676,-2.8395,-2.9256,-3.0225,-3.0544,-3.0698,-3.0698,-3.066,-3.0835,-3.1245,-3.2152,-3.2805,-3.3384,-3.4532,-3.4949,-3.5007,-3.5372,-3.5493,-3.5493,-3.5493,-3.5432,-3.5304,-3.5207,-3.5375,-3.5723,-3.6179,-3.6982,-3.7746,-3.8033,-3.8265,-3.8311,-3.7783,-3.7416,-3.6999,-3.6391,-3.6167,-3.6019,-3.5809,-3.5439,-3.5249,-3.5548,-3.4996,-3.4489,-3.4489,-3.3631,-3.2988,-3.2988,-3.1999,-3.1635,-3.2366,-3.2203,-3.2163,-3.253,-3.1995,-3.1664,-3.1664,-3.1233,-3.1029,-3.1029,-3.1351,-3.1482,-3.1482,-3.1482,-3.1482,-3.1482,-3.2856,-3.3499,-3.3529,-3.4876,-3.5504,-2.5081,0.0,0.0,0.0,0.0,0.0,0.0,0.0,0.0,0.0,0.0,0.0,0.0,0.0,0.0,-2.5072,0.0,-2.5435,0.0,-2.551,0.0,0.0,0.0,0.0,0.0,-2.5609,-2.556,-2.5553,-2.5505,-2.5499,-2.5531,-2.5582,-2.5625,-2.5664,-2.5684,-2.5703,-2.5703,-2.5703,-2.5703,-2.5703,-2.5937,-2.6699,-2.7891,-2.8418,-2.9283,-3.0402,-3.0612,-3.0679,-3.066,-3.0602,-3.0564,-3.0679,-3.209,-3.3167,-3.4026,-3.5122,-3.5493,-3.5493,-3.5493,-3.5641,-3.5872,-3.6122,-3.6026,-3.5872,-3.6122,-3.6289,-3.658,-3.7405,-3.8061,-3.8593,-3.8925,-3.907,-3.8896,-3.8116,-3.7879,-3.7583,-3.6648,-3.6765,-3.6841,-3.6119,-3.6339,-3.6457,-3.5898,-3.5067,-3.4489,-3.4489,-3.388,-3.3406,-3.3406,-3.2519,-3.2067,-3.2597,-3.2557,-3.2546,-3.274,-3.2458,-3.2276,-3.2327,-3.1796,-3.1482,-3.1482,-3.1482,-3.1482,-3.1482,-3.1482,-3.1482,-3.1482,-3.2856,-3.3499,-3.3529,-3.4876,-3.5504,0.0,0.0,0.0,-2.7279,0.0,0.0,0.0,0.0,-2.7582,0.0,0.0,0.0,0.0,0.0,-2.5053,-2.4274,-2.4918,0.0,0.0,0.0,0.0,0.0,0.0,0.0,0.0,-2.5538,-2.548,-2.5409,-2.5409,-2.539,-2.5409,-2.5538,-2.5605,-2.5605,-2.5664,-2.5703,-2.5703,-2.5703,-2.5703,-2.5703,-2.6562,-2.6992,-2.7109,-2.8789,-2.959,-2.9685,-3.0399,-3.066,-3.0602,-3.0525,-3.0467,-3.0494,-3.1391,-3.2237,-3.3141,-3.4872,-3.5493,-3.5493,-3.5493,-3.6007,-3.6796,-3.7642,-3.7353,-3.6815,-3.7661,-3.7353,-3.6877,-3.7743,-3.8372,-3.8785,-3.8823,-3.8954,-3.908,-3.9061,-3.8857,-3.8652,-3.8603,-3.8212,-3.7857,-3.7823,-3.7488,-3.6981,-3.6457,-3.5352,-3.4489,-3.4489,-3.388,-3.3406,-3.3406,-3.3347,-3.333,-3.3364,-3.2768,-3.2689,-3.3425,-3.2225,-3.1481,-3.1537,-3.1524,-3.1482,-3.1482,-3.1482,-3.1482,-3.1482,-3.1482,-3.1482,-3.1482,-3.2856,-3.3499,-3.3529,-3.4876,-3.5504,0.0,0.0,-2.7477,-2.8368,0.0,0.0,0.0,0.0,0.0,0.0,0.0,0.0,0.0,0.0,-2.588,-2.5024,-2.5226,-2.5401,0.0,0.0,0.0,0.0,0.0,0.0,0.0,0.0,0.0,-2.5476,-2.539,-2.5341,-2.5409,-2.5441,-2.5503,-2.5605,-2.5625,-2.5664,-2.5703,-2.6269,-2.6562,-2.6562,-2.7441,-2.8164,-2.873,-2.9336,-2.9902,-3.0469,-3.0638,-3.0658,-3.0583,-3.0525,-3.0794,-3.1352,-3.2179,-3.3006,-3.3833,-3.441,-3.5007,-3.5584,-3.6122,-3.6469,-3.6853,-3.7719,-3.7796,-3.7623,-3.7911,-3.82,-3.8469,-3.8777,-3.9365,-3.9881,-3.9719,-3.9713,-3.9558,-3.8827,-3.8394,-3.8164,-3.8164,-3.7897,-3.7694,-3.7871,-3.7755,-3.7506,-3.702,-3.6273,-3.5634,-3.5277,-3.4607,-3.4134,-3.4134,-3.3694,-3.3406,-3.3406,-3.364,-3.3896,-3.413,-3.3791,-3.3361,-3.2902,-3.2864,-3.2864,-3.2864,-3.2864,-3.2864,-3.2864,-3.2864,-3.2664,-3.2231,-3.3548,-3.3924,-3.3529,-3.4876,-3.5504,-2.8291,-2.8332,0.0,-2.9352,-2.9179,0.0,-2.9448,0.0,-2.8698,0.0,0.0,0.0,0.0,0.0,0.0,-2.5851,-2.562,-2.5526,0.0,-2.5657,0.0,0.0,0.0,0.0,0.0,-2.5566,-2.5481,-2.5476,-2.537,-2.5322,0.0,0.0,-2.5492,-2.5551,-2.5619,-2.5801,-2.6152,-2.6719,-2.7168,-2.7461,-2.8359,-2.9062,-2.9609,-2.9922,-3.0371,-3.0898,-3.0762,-3.0674,-3.0653,-3.0874,-3.1263,-3.1802,-3.2602,-3.343,-3.4237,-3.4545,-3.5199,-3.6065,-3.6873,-3.7373,-3.7757,-3.8604,-3.87,-3.8527,-3.8796,-3.9084,-3.9354,-3.9642,-4.0085,-4.0457,-4.0304,-4.0177,-3.9909,-3.9176,-3.8738,-3.8471,-3.8369,-3.8192,-3.8111,-3.8172,-3.8183,-3.8032,-3.7542,-3.7173,-3.6706,-3.5968,-3.5331,-3.4895,-3.4895,-3.4489,-3.4083,-3.3829,-3.4218,-3.4385,-3.4147,-3.4416,-3.4333,-3.3633,-3.3582,-3.3582,-3.3582,-3.3582,-3.371,-3.3966,-3.371,-3.3519,-3.3363,-3.4171,-3.4452,-3.4296,-3.5431,-3.5904]}]]